<?xml version="1.0" encoding="UTF-8" standalone="no" ?>
<gpx xmlns="http://www.topografix.com/GPX/1/1" xmlns:xsi="http://www.w3.org/2001/XMLSchema-instance" xsi:schemaLocation="http://www.topografix.com/GPX/1/1 http://www.topografix.com/GPX/1/1/gpx.xsd" version="1.1" creator="VisuGPX - https://www.visugpx.com">
  <metadata>
    <name>Boucle Pont d'Espagne Refuge Bachimana Jour 2/3</name>
    <desc><![CDATA[Boucle Pont d'Espagne Refuge Bachimana.
Jour 2: Refuge Wallon - col de la Fache - col de Piedrafita - col del Infierno - refuge de Bachimana.
Magnifique traversée dans une ambiance féerique. A faire qu'en conditions nivologiques et météorologiques stables.
Le refuge de Bachimana est magnifique et très accueillant (douche, grand dortoir, bon diner, bon petit déjeuner). Exemple à prendre pour les autres refuges pyrénéens...]]></desc>
  </metadata>
  <trk>
    <name><![CDATA[2016-03-27 17:36:57]]></name>
    <trkseg>
      <trkpt lat="42.82002" lon="-0.19484">
        <ele>1894</ele>
        <time>2016-03-27T06:27:20Z</time>
      </trkpt>
      <trkpt lat="42.82003" lon="-0.19485">
        <ele>1895</ele>
        <time>2016-03-27T06:27:41Z</time>
      </trkpt>
      <trkpt lat="42.81998" lon="-0.19486">
        <ele>1893</ele>
        <time>2016-03-27T06:27:51Z</time>
      </trkpt>
      <trkpt lat="42.81987" lon="-0.19502">
        <ele>1890</ele>
        <time>2016-03-27T06:28:04Z</time>
      </trkpt>
      <trkpt lat="42.81988" lon="-0.19503">
        <ele>1890</ele>
        <time>2016-03-27T06:28:08Z</time>
      </trkpt>
      <trkpt lat="42.81987" lon="-0.1951">
        <ele>1889</ele>
        <time>2016-03-27T06:28:13Z</time>
      </trkpt>
      <trkpt lat="42.81981" lon="-0.19526">
        <ele>1887</ele>
        <time>2016-03-27T06:28:22Z</time>
      </trkpt>
      <trkpt lat="42.81981" lon="-0.19529">
        <ele>1886</ele>
        <time>2016-03-27T06:28:23Z</time>
      </trkpt>
      <trkpt lat="42.81973" lon="-0.19545">
        <ele>1883</ele>
        <time>2016-03-27T06:28:36Z</time>
      </trkpt>
      <trkpt lat="42.81968" lon="-0.19554">
        <ele>1881</ele>
        <time>2016-03-27T06:28:50Z</time>
      </trkpt>
      <trkpt lat="42.81967" lon="-0.19558">
        <ele>1881</ele>
        <time>2016-03-27T06:28:56Z</time>
      </trkpt>
      <trkpt lat="42.81964" lon="-0.19566">
        <ele>1880</ele>
        <time>2016-03-27T06:29:06Z</time>
      </trkpt>
      <trkpt lat="42.81951" lon="-0.19581">
        <ele>1875</ele>
        <time>2016-03-27T06:29:22Z</time>
      </trkpt>
      <trkpt lat="42.81941" lon="-0.19591">
        <ele>1872</ele>
        <time>2016-03-27T06:29:36Z</time>
      </trkpt>
      <trkpt lat="42.81927" lon="-0.19597">
        <ele>1868</ele>
        <time>2016-03-27T06:29:49Z</time>
      </trkpt>
      <trkpt lat="42.81926" lon="-0.19599">
        <ele>1868</ele>
        <time>2016-03-27T06:29:52Z</time>
      </trkpt>
      <trkpt lat="42.81914" lon="-0.1961">
        <ele>1865</ele>
        <time>2016-03-27T06:30:08Z</time>
      </trkpt>
      <trkpt lat="42.81903" lon="-0.19619">
        <ele>1864</ele>
        <time>2016-03-27T06:30:24Z</time>
      </trkpt>
      <trkpt lat="42.81897" lon="-0.1962">
        <ele>1864</ele>
        <time>2016-03-27T06:30:35Z</time>
      </trkpt>
      <trkpt lat="42.81893" lon="-0.1962">
        <ele>1864</ele>
        <time>2016-03-27T06:30:39Z</time>
      </trkpt>
      <trkpt lat="42.81881" lon="-0.19613">
        <ele>1862</ele>
        <time>2016-03-27T06:30:54Z</time>
      </trkpt>
      <trkpt lat="42.8188" lon="-0.19613">
        <ele>1862</ele>
        <time>2016-03-27T06:30:55Z</time>
      </trkpt>
      <trkpt lat="42.81878" lon="-0.19615">
        <ele>1862</ele>
        <time>2016-03-27T06:30:58Z</time>
      </trkpt>
      <trkpt lat="42.81869" lon="-0.1963">
        <ele>1861</ele>
        <time>2016-03-27T06:31:16Z</time>
      </trkpt>
      <trkpt lat="42.81866" lon="-0.19636">
        <ele>1861</ele>
        <time>2016-03-27T06:31:31Z</time>
      </trkpt>
      <trkpt lat="42.81867" lon="-0.19635">
        <ele>1861</ele>
        <time>2016-03-27T06:31:47Z</time>
      </trkpt>
      <trkpt lat="42.81867" lon="-0.19635">
        <ele>1861</ele>
        <time>2016-03-27T06:31:49Z</time>
      </trkpt>
      <trkpt lat="42.81866" lon="-0.19635">
        <ele>1861</ele>
        <time>2016-03-27T06:32:02Z</time>
      </trkpt>
      <trkpt lat="42.81864" lon="-0.19642">
        <ele>1860</ele>
        <time>2016-03-27T06:32:07Z</time>
      </trkpt>
      <trkpt lat="42.81855" lon="-0.19661">
        <ele>1859</ele>
        <time>2016-03-27T06:32:24Z</time>
      </trkpt>
      <trkpt lat="42.8185" lon="-0.19673">
        <ele>1858</ele>
        <time>2016-03-27T06:32:38Z</time>
      </trkpt>
      <trkpt lat="42.81846" lon="-0.19676">
        <ele>1858</ele>
        <time>2016-03-27T06:32:55Z</time>
      </trkpt>
      <trkpt lat="42.81844" lon="-0.19683">
        <ele>1858</ele>
        <time>2016-03-27T06:33:09Z</time>
      </trkpt>
      <trkpt lat="42.81849" lon="-0.1969">
        <ele>1859</ele>
        <time>2016-03-27T06:33:18Z</time>
      </trkpt>
      <trkpt lat="42.81854" lon="-0.19701">
        <ele>1860</ele>
        <time>2016-03-27T06:33:29Z</time>
      </trkpt>
      <trkpt lat="42.81858" lon="-0.19715">
        <ele>1860</ele>
        <time>2016-03-27T06:33:42Z</time>
      </trkpt>
      <trkpt lat="42.81859" lon="-0.19729">
        <ele>1861</ele>
        <time>2016-03-27T06:33:56Z</time>
      </trkpt>
      <trkpt lat="42.81857" lon="-0.19741">
        <ele>1861</ele>
        <time>2016-03-27T06:34:10Z</time>
      </trkpt>
      <trkpt lat="42.81854" lon="-0.19754">
        <ele>1861</ele>
        <time>2016-03-27T06:34:22Z</time>
      </trkpt>
      <trkpt lat="42.81851" lon="-0.19771">
        <ele>1862</ele>
        <time>2016-03-27T06:34:35Z</time>
      </trkpt>
      <trkpt lat="42.81846" lon="-0.19786">
        <ele>1863</ele>
        <time>2016-03-27T06:34:49Z</time>
      </trkpt>
      <trkpt lat="42.81842" lon="-0.19802">
        <ele>1864</ele>
        <time>2016-03-27T06:35:02Z</time>
      </trkpt>
      <trkpt lat="42.81844" lon="-0.19815">
        <ele>1865</ele>
        <time>2016-03-27T06:35:14Z</time>
      </trkpt>
      <trkpt lat="42.81848" lon="-0.19826">
        <ele>1866</ele>
        <time>2016-03-27T06:35:27Z</time>
      </trkpt>
      <trkpt lat="42.81851" lon="-0.19844">
        <ele>1866</ele>
        <time>2016-03-27T06:35:39Z</time>
      </trkpt>
      <trkpt lat="42.81852" lon="-0.19855">
        <ele>1867</ele>
        <time>2016-03-27T06:35:48Z</time>
      </trkpt>
      <trkpt lat="42.81852" lon="-0.19861">
        <ele>1867</ele>
        <time>2016-03-27T06:35:55Z</time>
      </trkpt>
      <trkpt lat="42.81857" lon="-0.19882">
        <ele>1867</ele>
        <time>2016-03-27T06:36:10Z</time>
      </trkpt>
      <trkpt lat="42.81859" lon="-0.19895">
        <ele>1868</ele>
        <time>2016-03-27T06:36:22Z</time>
      </trkpt>
      <trkpt lat="42.81861" lon="-0.19912">
        <ele>1868</ele>
        <time>2016-03-27T06:36:37Z</time>
      </trkpt>
      <trkpt lat="42.81864" lon="-0.1993">
        <ele>1869</ele>
        <time>2016-03-27T06:36:53Z</time>
      </trkpt>
      <trkpt lat="42.81867" lon="-0.19949">
        <ele>1870</ele>
        <time>2016-03-27T06:37:09Z</time>
      </trkpt>
      <trkpt lat="42.81869" lon="-0.19966">
        <ele>1870</ele>
        <time>2016-03-27T06:37:25Z</time>
      </trkpt>
      <trkpt lat="42.81872" lon="-0.19981">
        <ele>1871</ele>
        <time>2016-03-27T06:37:37Z</time>
      </trkpt>
      <trkpt lat="42.81876" lon="-0.19994">
        <ele>1871</ele>
        <time>2016-03-27T06:37:49Z</time>
      </trkpt>
      <trkpt lat="42.81876" lon="-0.20004">
        <ele>1871</ele>
        <time>2016-03-27T06:37:57Z</time>
      </trkpt>
      <trkpt lat="42.81878" lon="-0.20018">
        <ele>1872</ele>
        <time>2016-03-27T06:38:11Z</time>
      </trkpt>
      <trkpt lat="42.81879" lon="-0.20032">
        <ele>1872</ele>
        <time>2016-03-27T06:38:26Z</time>
      </trkpt>
      <trkpt lat="42.81878" lon="-0.20042">
        <ele>1873</ele>
        <time>2016-03-27T06:38:39Z</time>
      </trkpt>
      <trkpt lat="42.81879" lon="-0.2006">
        <ele>1874</ele>
        <time>2016-03-27T06:38:59Z</time>
      </trkpt>
      <trkpt lat="42.81881" lon="-0.20072">
        <ele>1874</ele>
        <time>2016-03-27T06:39:12Z</time>
      </trkpt>
      <trkpt lat="42.81879" lon="-0.20086">
        <ele>1875</ele>
        <time>2016-03-27T06:39:28Z</time>
      </trkpt>
      <trkpt lat="42.81876" lon="-0.20093">
        <ele>1877</ele>
        <time>2016-03-27T06:39:41Z</time>
      </trkpt>
      <trkpt lat="42.81868" lon="-0.20104">
        <ele>1879</ele>
        <time>2016-03-27T06:39:58Z</time>
      </trkpt>
      <trkpt lat="42.81864" lon="-0.20109">
        <ele>1880</ele>
        <time>2016-03-27T06:40:11Z</time>
      </trkpt>
      <trkpt lat="42.81862" lon="-0.20111">
        <ele>1881</ele>
        <time>2016-03-27T06:40:30Z</time>
      </trkpt>
      <trkpt lat="42.81864" lon="-0.20112">
        <ele>1881</ele>
        <time>2016-03-27T06:40:55Z</time>
      </trkpt>
      <trkpt lat="42.81862" lon="-0.20113">
        <ele>1881</ele>
        <time>2016-03-27T06:41:29Z</time>
      </trkpt>
      <trkpt lat="42.81862" lon="-0.20114">
        <ele>1881</ele>
        <time>2016-03-27T06:42:02Z</time>
      </trkpt>
      <trkpt lat="42.81865" lon="-0.20112">
        <ele>1881</ele>
        <time>2016-03-27T06:42:40Z</time>
      </trkpt>
      <trkpt lat="42.8186" lon="-0.20112">
        <ele>1881</ele>
        <time>2016-03-27T06:43:06Z</time>
      </trkpt>
      <trkpt lat="42.81856" lon="-0.20118">
        <ele>1882</ele>
        <time>2016-03-27T06:43:16Z</time>
      </trkpt>
      <trkpt lat="42.81845" lon="-0.20123">
        <ele>1883</ele>
        <time>2016-03-27T06:43:34Z</time>
      </trkpt>
      <trkpt lat="42.81838" lon="-0.20128">
        <ele>1884</ele>
        <time>2016-03-27T06:43:49Z</time>
      </trkpt>
      <trkpt lat="42.8183" lon="-0.20141">
        <ele>1886</ele>
        <time>2016-03-27T06:44:06Z</time>
      </trkpt>
      <trkpt lat="42.81824" lon="-0.20146">
        <ele>1887</ele>
        <time>2016-03-27T06:44:22Z</time>
      </trkpt>
      <trkpt lat="42.81818" lon="-0.20139">
        <ele>1886</ele>
        <time>2016-03-27T06:44:38Z</time>
      </trkpt>
      <trkpt lat="42.81812" lon="-0.2014">
        <ele>1886</ele>
        <time>2016-03-27T06:44:54Z</time>
      </trkpt>
      <trkpt lat="42.81805" lon="-0.20152">
        <ele>1887</ele>
        <time>2016-03-27T06:45:12Z</time>
      </trkpt>
      <trkpt lat="42.81798" lon="-0.20155">
        <ele>1887</ele>
        <time>2016-03-27T06:45:27Z</time>
      </trkpt>
      <trkpt lat="42.81793" lon="-0.20153">
        <ele>1887</ele>
        <time>2016-03-27T06:45:42Z</time>
      </trkpt>
      <trkpt lat="42.81789" lon="-0.20144">
        <ele>1886</ele>
        <time>2016-03-27T06:45:58Z</time>
      </trkpt>
      <trkpt lat="42.81784" lon="-0.20139">
        <ele>1886</ele>
        <time>2016-03-27T06:46:12Z</time>
      </trkpt>
      <trkpt lat="42.8178" lon="-0.20148">
        <ele>1886</ele>
        <time>2016-03-27T06:46:28Z</time>
      </trkpt>
      <trkpt lat="42.81774" lon="-0.20158">
        <ele>1887</ele>
        <time>2016-03-27T06:46:43Z</time>
      </trkpt>
      <trkpt lat="42.81768" lon="-0.20169">
        <ele>1887</ele>
        <time>2016-03-27T06:47:03Z</time>
      </trkpt>
      <trkpt lat="42.8176" lon="-0.20177">
        <ele>1887</ele>
        <time>2016-03-27T06:47:17Z</time>
      </trkpt>
      <trkpt lat="42.81756" lon="-0.20187">
        <ele>1888</ele>
        <time>2016-03-27T06:47:32Z</time>
      </trkpt>
      <trkpt lat="42.81753" lon="-0.20202">
        <ele>1890</ele>
        <time>2016-03-27T06:47:48Z</time>
      </trkpt>
      <trkpt lat="42.81746" lon="-0.20213">
        <ele>1892</ele>
        <time>2016-03-27T06:48:05Z</time>
      </trkpt>
      <trkpt lat="42.81736" lon="-0.20223">
        <ele>1895</ele>
        <time>2016-03-27T06:48:25Z</time>
      </trkpt>
      <trkpt lat="42.81723" lon="-0.2023">
        <ele>1897</ele>
        <time>2016-03-27T06:48:50Z</time>
      </trkpt>
      <trkpt lat="42.81713" lon="-0.20237">
        <ele>1899</ele>
        <time>2016-03-27T06:49:10Z</time>
      </trkpt>
      <trkpt lat="42.81703" lon="-0.20243">
        <ele>1900</ele>
        <time>2016-03-27T06:49:26Z</time>
      </trkpt>
      <trkpt lat="42.8169" lon="-0.20249">
        <ele>1901</ele>
        <time>2016-03-27T06:49:46Z</time>
      </trkpt>
      <trkpt lat="42.81677" lon="-0.20257">
        <ele>1903</ele>
        <time>2016-03-27T06:50:06Z</time>
      </trkpt>
      <trkpt lat="42.81666" lon="-0.20261">
        <ele>1905</ele>
        <time>2016-03-27T06:50:22Z</time>
      </trkpt>
      <trkpt lat="42.81656" lon="-0.20266">
        <ele>1907</ele>
        <time>2016-03-27T06:50:39Z</time>
      </trkpt>
      <trkpt lat="42.81649" lon="-0.2027">
        <ele>1908</ele>
        <time>2016-03-27T06:50:51Z</time>
      </trkpt>
      <trkpt lat="42.81639" lon="-0.20276">
        <ele>1910</ele>
        <time>2016-03-27T06:51:07Z</time>
      </trkpt>
      <trkpt lat="42.81632" lon="-0.20285">
        <ele>1912</ele>
        <time>2016-03-27T06:51:22Z</time>
      </trkpt>
      <trkpt lat="42.81624" lon="-0.20295">
        <ele>1914</ele>
        <time>2016-03-27T06:51:39Z</time>
      </trkpt>
      <trkpt lat="42.81619" lon="-0.20305">
        <ele>1916</ele>
        <time>2016-03-27T06:51:53Z</time>
      </trkpt>
      <trkpt lat="42.81616" lon="-0.20317">
        <ele>1917</ele>
        <time>2016-03-27T06:52:10Z</time>
      </trkpt>
      <trkpt lat="42.81607" lon="-0.20327">
        <ele>1919</ele>
        <time>2016-03-27T06:52:28Z</time>
      </trkpt>
      <trkpt lat="42.81595" lon="-0.20338">
        <ele>1922</ele>
        <time>2016-03-27T06:52:45Z</time>
      </trkpt>
      <trkpt lat="42.81586" lon="-0.20348">
        <ele>1924</ele>
        <time>2016-03-27T06:53:01Z</time>
      </trkpt>
      <trkpt lat="42.81578" lon="-0.20358">
        <ele>1927</ele>
        <time>2016-03-27T06:53:19Z</time>
      </trkpt>
      <trkpt lat="42.81572" lon="-0.2037">
        <ele>1929</ele>
        <time>2016-03-27T06:53:34Z</time>
      </trkpt>
      <trkpt lat="42.81569" lon="-0.20382">
        <ele>1931</ele>
        <time>2016-03-27T06:53:48Z</time>
      </trkpt>
      <trkpt lat="42.81565" lon="-0.20391">
        <ele>1933</ele>
        <time>2016-03-27T06:54:03Z</time>
      </trkpt>
      <trkpt lat="42.81562" lon="-0.20394">
        <ele>1933</ele>
        <time>2016-03-27T06:54:27Z</time>
      </trkpt>
      <trkpt lat="42.81564" lon="-0.20393">
        <ele>1933</ele>
        <time>2016-03-27T06:54:45Z</time>
      </trkpt>
      <trkpt lat="42.81564" lon="-0.20396">
        <ele>1933</ele>
        <time>2016-03-27T06:55:00Z</time>
      </trkpt>
      <trkpt lat="42.81563" lon="-0.20399">
        <ele>1934</ele>
        <time>2016-03-27T06:55:14Z</time>
      </trkpt>
      <trkpt lat="42.81563" lon="-0.20409">
        <ele>1935</ele>
        <time>2016-03-27T06:55:30Z</time>
      </trkpt>
      <trkpt lat="42.8156" lon="-0.2041">
        <ele>1935</ele>
        <time>2016-03-27T06:55:33Z</time>
      </trkpt>
      <trkpt lat="42.81545" lon="-0.20414">
        <ele>1935</ele>
        <time>2016-03-27T06:55:51Z</time>
      </trkpt>
      <trkpt lat="42.81532" lon="-0.20421">
        <ele>1936</ele>
        <time>2016-03-27T06:56:07Z</time>
      </trkpt>
      <trkpt lat="42.81517" lon="-0.20426">
        <ele>1937</ele>
        <time>2016-03-27T06:56:24Z</time>
      </trkpt>
      <trkpt lat="42.81504" lon="-0.20432">
        <ele>1937</ele>
        <time>2016-03-27T06:56:40Z</time>
      </trkpt>
      <trkpt lat="42.81493" lon="-0.2044">
        <ele>1938</ele>
        <time>2016-03-27T06:56:59Z</time>
      </trkpt>
      <trkpt lat="42.81485" lon="-0.20442">
        <ele>1938</ele>
        <time>2016-03-27T06:57:11Z</time>
      </trkpt>
      <trkpt lat="42.81487" lon="-0.20447">
        <ele>1939</ele>
        <time>2016-03-27T06:57:33Z</time>
      </trkpt>
      <trkpt lat="42.81482" lon="-0.20452">
        <ele>1939</ele>
        <time>2016-03-27T06:57:49Z</time>
      </trkpt>
      <trkpt lat="42.81492" lon="-0.20458">
        <ele>1940</ele>
        <time>2016-03-27T06:58:04Z</time>
      </trkpt>
      <trkpt lat="42.81499" lon="-0.2046">
        <ele>1941</ele>
        <time>2016-03-27T06:58:12Z</time>
      </trkpt>
      <trkpt lat="42.81514" lon="-0.20462">
        <ele>1942</ele>
        <time>2016-03-27T06:58:26Z</time>
      </trkpt>
      <trkpt lat="42.81525" lon="-0.20458">
        <ele>1942</ele>
        <time>2016-03-27T06:58:39Z</time>
      </trkpt>
      <trkpt lat="42.81536" lon="-0.20452">
        <ele>1942</ele>
        <time>2016-03-27T06:58:52Z</time>
      </trkpt>
      <trkpt lat="42.81547" lon="-0.20439">
        <ele>1940</ele>
        <time>2016-03-27T06:59:08Z</time>
      </trkpt>
      <trkpt lat="42.8155" lon="-0.20435">
        <ele>1939</ele>
        <time>2016-03-27T06:59:15Z</time>
      </trkpt>
      <trkpt lat="42.81551" lon="-0.20433">
        <ele>1939</ele>
        <time>2016-03-27T06:59:17Z</time>
      </trkpt>
      <trkpt lat="42.81559" lon="-0.20416">
        <ele>1936</ele>
        <time>2016-03-27T06:59:34Z</time>
      </trkpt>
      <trkpt lat="42.81563" lon="-0.20413">
        <ele>1935</ele>
        <time>2016-03-27T06:59:39Z</time>
      </trkpt>
      <trkpt lat="42.81569" lon="-0.20408">
        <ele>1935</ele>
        <time>2016-03-27T06:59:49Z</time>
      </trkpt>
      <trkpt lat="42.8158" lon="-0.20399">
        <ele>1933</ele>
        <time>2016-03-27T07:00:05Z</time>
      </trkpt>
      <trkpt lat="42.81586" lon="-0.20397">
        <ele>1933</ele>
        <time>2016-03-27T07:00:13Z</time>
      </trkpt>
      <trkpt lat="42.81592" lon="-0.20388">
        <ele>1932</ele>
        <time>2016-03-27T07:00:24Z</time>
      </trkpt>
      <trkpt lat="42.81596" lon="-0.20376">
        <ele>1929</ele>
        <time>2016-03-27T07:00:35Z</time>
      </trkpt>
      <trkpt lat="42.81597" lon="-0.20377">
        <ele>1930</ele>
        <time>2016-03-27T07:00:42Z</time>
      </trkpt>
      <trkpt lat="42.81598" lon="-0.20381">
        <ele>1931</ele>
        <time>2016-03-27T07:00:46Z</time>
      </trkpt>
      <trkpt lat="42.81598" lon="-0.20396">
        <ele>1934</ele>
        <time>2016-03-27T07:00:51Z</time>
      </trkpt>
      <trkpt lat="42.81599" lon="-0.20405">
        <ele>1936</ele>
        <time>2016-03-27T07:00:53Z</time>
      </trkpt>
      <trkpt lat="42.81604" lon="-0.20412">
        <ele>1938</ele>
        <time>2016-03-27T07:01:02Z</time>
      </trkpt>
      <trkpt lat="42.81609" lon="-0.20414">
        <ele>1939</ele>
        <time>2016-03-27T07:01:07Z</time>
      </trkpt>
      <trkpt lat="42.81619" lon="-0.20416">
        <ele>1940</ele>
        <time>2016-03-27T07:01:23Z</time>
      </trkpt>
      <trkpt lat="42.81618" lon="-0.20417">
        <ele>1941</ele>
        <time>2016-03-27T07:01:35Z</time>
      </trkpt>
      <trkpt lat="42.81616" lon="-0.20416">
        <ele>1940</ele>
        <time>2016-03-27T07:01:47Z</time>
      </trkpt>
      <trkpt lat="42.81617" lon="-0.20417">
        <ele>1940</ele>
        <time>2016-03-27T07:02:03Z</time>
      </trkpt>
      <trkpt lat="42.81617" lon="-0.2042">
        <ele>1941</ele>
        <time>2016-03-27T07:02:08Z</time>
      </trkpt>
      <trkpt lat="42.81619" lon="-0.20426">
        <ele>1944</ele>
        <time>2016-03-27T07:02:21Z</time>
      </trkpt>
      <trkpt lat="42.8162" lon="-0.20427">
        <ele>1944</ele>
        <time>2016-03-27T07:02:37Z</time>
      </trkpt>
      <trkpt lat="42.8162" lon="-0.20428">
        <ele>1944</ele>
        <time>2016-03-27T07:02:57Z</time>
      </trkpt>
      <trkpt lat="42.81619" lon="-0.20428">
        <ele>1944</ele>
        <time>2016-03-27T07:03:19Z</time>
      </trkpt>
      <trkpt lat="42.81618" lon="-0.2043">
        <ele>1945</ele>
        <time>2016-03-27T07:03:41Z</time>
      </trkpt>
      <trkpt lat="42.81619" lon="-0.20429">
        <ele>1944</ele>
        <time>2016-03-27T07:04:01Z</time>
      </trkpt>
      <trkpt lat="42.81624" lon="-0.20428">
        <ele>1945</ele>
        <time>2016-03-27T07:04:18Z</time>
      </trkpt>
      <trkpt lat="42.81625" lon="-0.20428">
        <ele>1945</ele>
        <time>2016-03-27T07:04:20Z</time>
      </trkpt>
      <trkpt lat="42.8163" lon="-0.20432">
        <ele>1947</ele>
        <time>2016-03-27T07:04:35Z</time>
      </trkpt>
      <trkpt lat="42.81627" lon="-0.20441">
        <ele>1950</ele>
        <time>2016-03-27T07:04:48Z</time>
      </trkpt>
      <trkpt lat="42.81626" lon="-0.20453">
        <ele>1953</ele>
        <time>2016-03-27T07:05:02Z</time>
      </trkpt>
      <trkpt lat="42.81628" lon="-0.20462">
        <ele>1956</ele>
        <time>2016-03-27T07:05:15Z</time>
      </trkpt>
      <trkpt lat="42.81628" lon="-0.20475">
        <ele>1960</ele>
        <time>2016-03-27T07:05:31Z</time>
      </trkpt>
      <trkpt lat="42.8163" lon="-0.20483">
        <ele>1963</ele>
        <time>2016-03-27T07:05:43Z</time>
      </trkpt>
      <trkpt lat="42.81641" lon="-0.20477">
        <ele>1964</ele>
        <time>2016-03-27T07:05:59Z</time>
      </trkpt>
      <trkpt lat="42.81643" lon="-0.20478">
        <ele>1965</ele>
        <time>2016-03-27T07:06:01Z</time>
      </trkpt>
      <trkpt lat="42.8165" lon="-0.20479">
        <ele>1967</ele>
        <time>2016-03-27T07:06:14Z</time>
      </trkpt>
      <trkpt lat="42.81651" lon="-0.20479">
        <ele>1967</ele>
        <time>2016-03-27T07:06:23Z</time>
      </trkpt>
      <trkpt lat="42.8165" lon="-0.20478">
        <ele>1966</ele>
        <time>2016-03-27T07:06:45Z</time>
      </trkpt>
      <trkpt lat="42.8165" lon="-0.20477">
        <ele>1966</ele>
        <time>2016-03-27T07:06:56Z</time>
      </trkpt>
      <trkpt lat="42.8165" lon="-0.20478">
        <ele>1966</ele>
        <time>2016-03-27T07:07:12Z</time>
      </trkpt>
      <trkpt lat="42.81652" lon="-0.2048">
        <ele>1968</ele>
        <time>2016-03-27T07:07:18Z</time>
      </trkpt>
      <trkpt lat="42.81667" lon="-0.20481">
        <ele>1971</ele>
        <time>2016-03-27T07:07:35Z</time>
      </trkpt>
      <trkpt lat="42.81677" lon="-0.20476">
        <ele>1971</ele>
        <time>2016-03-27T07:07:50Z</time>
      </trkpt>
      <trkpt lat="42.81683" lon="-0.20471">
        <ele>1970</ele>
        <time>2016-03-27T07:08:03Z</time>
      </trkpt>
      <trkpt lat="42.81693" lon="-0.20464">
        <ele>1969</ele>
        <time>2016-03-27T07:08:23Z</time>
      </trkpt>
      <trkpt lat="42.81701" lon="-0.20468">
        <ele>1972</ele>
        <time>2016-03-27T07:08:37Z</time>
      </trkpt>
      <trkpt lat="42.81702" lon="-0.20472">
        <ele>1974</ele>
        <time>2016-03-27T07:08:41Z</time>
      </trkpt>
      <trkpt lat="42.81702" lon="-0.20484">
        <ele>1978</ele>
        <time>2016-03-27T07:08:47Z</time>
      </trkpt>
      <trkpt lat="42.8171" lon="-0.20492">
        <ele>1983</ele>
        <time>2016-03-27T07:09:00Z</time>
      </trkpt>
      <trkpt lat="42.81721" lon="-0.20492">
        <ele>1985</ele>
        <time>2016-03-27T07:09:16Z</time>
      </trkpt>
      <trkpt lat="42.8173" lon="-0.20491">
        <ele>1987</ele>
        <time>2016-03-27T07:09:31Z</time>
      </trkpt>
      <trkpt lat="42.8174" lon="-0.20494">
        <ele>1989</ele>
        <time>2016-03-27T07:09:46Z</time>
      </trkpt>
      <trkpt lat="42.81746" lon="-0.20496">
        <ele>1991</ele>
        <time>2016-03-27T07:10:00Z</time>
      </trkpt>
      <trkpt lat="42.81749" lon="-0.20498">
        <ele>1993</ele>
        <time>2016-03-27T07:10:13Z</time>
      </trkpt>
      <trkpt lat="42.81743" lon="-0.20506">
        <ele>1996</ele>
        <time>2016-03-27T07:10:29Z</time>
      </trkpt>
      <trkpt lat="42.81739" lon="-0.20514">
        <ele>2000</ele>
        <time>2016-03-27T07:10:45Z</time>
      </trkpt>
      <trkpt lat="42.81732" lon="-0.20525">
        <ele>2005</ele>
        <time>2016-03-27T07:11:02Z</time>
      </trkpt>
      <trkpt lat="42.81731" lon="-0.2053">
        <ele>2008</ele>
        <time>2016-03-27T07:11:16Z</time>
      </trkpt>
      <trkpt lat="42.81737" lon="-0.20529">
        <ele>2008</ele>
        <time>2016-03-27T07:11:31Z</time>
      </trkpt>
      <trkpt lat="42.81746" lon="-0.20525">
        <ele>2009</ele>
        <time>2016-03-27T07:11:47Z</time>
      </trkpt>
      <trkpt lat="42.81748" lon="-0.20527">
        <ele>2010</ele>
        <time>2016-03-27T07:11:58Z</time>
      </trkpt>
      <trkpt lat="42.81743" lon="-0.20536">
        <ele>2015</ele>
        <time>2016-03-27T07:12:10Z</time>
      </trkpt>
      <trkpt lat="42.81738" lon="-0.20546">
        <ele>2019</ele>
        <time>2016-03-27T07:12:27Z</time>
      </trkpt>
      <trkpt lat="42.81732" lon="-0.20551">
        <ele>2020</ele>
        <time>2016-03-27T07:12:40Z</time>
      </trkpt>
      <trkpt lat="42.81728" lon="-0.20557">
        <ele>2022</ele>
        <time>2016-03-27T07:12:55Z</time>
      </trkpt>
      <trkpt lat="42.81723" lon="-0.20565">
        <ele>2025</ele>
        <time>2016-03-27T07:13:11Z</time>
      </trkpt>
      <trkpt lat="42.8172" lon="-0.20568">
        <ele>2025</ele>
        <time>2016-03-27T07:13:27Z</time>
      </trkpt>
      <trkpt lat="42.81716" lon="-0.20568">
        <ele>2023</ele>
        <time>2016-03-27T07:13:40Z</time>
      </trkpt>
      <trkpt lat="42.81717" lon="-0.20569">
        <ele>2024</ele>
        <time>2016-03-27T07:13:52Z</time>
      </trkpt>
      <trkpt lat="42.81723" lon="-0.20567">
        <ele>2026</ele>
        <time>2016-03-27T07:14:06Z</time>
      </trkpt>
      <trkpt lat="42.8173" lon="-0.20565">
        <ele>2027</ele>
        <time>2016-03-27T07:14:23Z</time>
      </trkpt>
      <trkpt lat="42.81733" lon="-0.20567">
        <ele>2029</ele>
        <time>2016-03-27T07:14:45Z</time>
      </trkpt>
      <trkpt lat="42.81731" lon="-0.20575">
        <ele>2033</ele>
        <time>2016-03-27T07:14:59Z</time>
      </trkpt>
      <trkpt lat="42.81724" lon="-0.20585">
        <ele>2036</ele>
        <time>2016-03-27T07:15:14Z</time>
      </trkpt>
      <trkpt lat="42.81718" lon="-0.20589">
        <ele>2036</ele>
        <time>2016-03-27T07:15:26Z</time>
      </trkpt>
      <trkpt lat="42.81712" lon="-0.20592">
        <ele>2035</ele>
        <time>2016-03-27T07:15:39Z</time>
      </trkpt>
      <trkpt lat="42.81706" lon="-0.20592">
        <ele>2032</ele>
        <time>2016-03-27T07:15:55Z</time>
      </trkpt>
      <trkpt lat="42.81711" lon="-0.20595">
        <ele>2036</ele>
        <time>2016-03-27T07:16:10Z</time>
      </trkpt>
      <trkpt lat="42.81718" lon="-0.20599">
        <ele>2041</ele>
        <time>2016-03-27T07:16:26Z</time>
      </trkpt>
      <trkpt lat="42.81724" lon="-0.20599">
        <ele>2044</ele>
        <time>2016-03-27T07:16:39Z</time>
      </trkpt>
      <trkpt lat="42.8173" lon="-0.206">
        <ele>2048</ele>
        <time>2016-03-27T07:16:53Z</time>
      </trkpt>
      <trkpt lat="42.81728" lon="-0.20603">
        <ele>2049</ele>
        <time>2016-03-27T07:17:05Z</time>
      </trkpt>
      <trkpt lat="42.81721" lon="-0.2061">
        <ele>2050</ele>
        <time>2016-03-27T07:17:20Z</time>
      </trkpt>
      <trkpt lat="42.81714" lon="-0.20616">
        <ele>2050</ele>
        <time>2016-03-27T07:17:34Z</time>
      </trkpt>
      <trkpt lat="42.81708" lon="-0.20624">
        <ele>2051</ele>
        <time>2016-03-27T07:17:49Z</time>
      </trkpt>
      <trkpt lat="42.81701" lon="-0.20631">
        <ele>2052</ele>
        <time>2016-03-27T07:18:02Z</time>
      </trkpt>
      <trkpt lat="42.81693" lon="-0.20636">
        <ele>2051</ele>
        <time>2016-03-27T07:18:17Z</time>
      </trkpt>
      <trkpt lat="42.81684" lon="-0.20639">
        <ele>2048</ele>
        <time>2016-03-27T07:18:35Z</time>
      </trkpt>
      <trkpt lat="42.81689" lon="-0.20647">
        <ele>2055</ele>
        <time>2016-03-27T07:18:52Z</time>
      </trkpt>
      <trkpt lat="42.81698" lon="-0.20645">
        <ele>2059</ele>
        <time>2016-03-27T07:19:08Z</time>
      </trkpt>
      <trkpt lat="42.81708" lon="-0.20645">
        <ele>2064</ele>
        <time>2016-03-27T07:19:26Z</time>
      </trkpt>
      <trkpt lat="42.81714" lon="-0.20645">
        <ele>2067</ele>
        <time>2016-03-27T07:19:41Z</time>
      </trkpt>
      <trkpt lat="42.81715" lon="-0.20648">
        <ele>2069</ele>
        <time>2016-03-27T07:19:55Z</time>
      </trkpt>
      <trkpt lat="42.81708" lon="-0.20658">
        <ele>2071</ele>
        <time>2016-03-27T07:20:11Z</time>
      </trkpt>
      <trkpt lat="42.81702" lon="-0.20668">
        <ele>2074</ele>
        <time>2016-03-27T07:20:26Z</time>
      </trkpt>
      <trkpt lat="42.81697" lon="-0.20674">
        <ele>2074</ele>
        <time>2016-03-27T07:20:40Z</time>
      </trkpt>
      <trkpt lat="42.8169" lon="-0.20685">
        <ele>2076</ele>
        <time>2016-03-27T07:20:58Z</time>
      </trkpt>
      <trkpt lat="42.81685" lon="-0.20691">
        <ele>2077</ele>
        <time>2016-03-27T07:21:12Z</time>
      </trkpt>
      <trkpt lat="42.8168" lon="-0.20696">
        <ele>2076</ele>
        <time>2016-03-27T07:21:27Z</time>
      </trkpt>
      <trkpt lat="42.81674" lon="-0.20698">
        <ele>2074</ele>
        <time>2016-03-27T07:21:42Z</time>
      </trkpt>
      <trkpt lat="42.8167" lon="-0.20704">
        <ele>2075</ele>
        <time>2016-03-27T07:21:59Z</time>
      </trkpt>
      <trkpt lat="42.81675" lon="-0.20705">
        <ele>2078</ele>
        <time>2016-03-27T07:22:12Z</time>
      </trkpt>
      <trkpt lat="42.81681" lon="-0.20709">
        <ele>2084</ele>
        <time>2016-03-27T07:22:27Z</time>
      </trkpt>
      <trkpt lat="42.81688" lon="-0.20709">
        <ele>2088</ele>
        <time>2016-03-27T07:22:44Z</time>
      </trkpt>
      <trkpt lat="42.81686" lon="-0.20714">
        <ele>2090</ele>
        <time>2016-03-27T07:22:58Z</time>
      </trkpt>
      <trkpt lat="42.8168" lon="-0.20722">
        <ele>2090</ele>
        <time>2016-03-27T07:23:14Z</time>
      </trkpt>
      <trkpt lat="42.81672" lon="-0.20725">
        <ele>2087</ele>
        <time>2016-03-27T07:23:31Z</time>
      </trkpt>
      <trkpt lat="42.81669" lon="-0.20732">
        <ele>2089</ele>
        <time>2016-03-27T07:23:45Z</time>
      </trkpt>
      <trkpt lat="42.81671" lon="-0.20738">
        <ele>2093</ele>
        <time>2016-03-27T07:24:00Z</time>
      </trkpt>
      <trkpt lat="42.81666" lon="-0.20746">
        <ele>2095</ele>
        <time>2016-03-27T07:24:14Z</time>
      </trkpt>
      <trkpt lat="42.8166" lon="-0.20753">
        <ele>2095</ele>
        <time>2016-03-27T07:24:29Z</time>
      </trkpt>
      <trkpt lat="42.81656" lon="-0.20761">
        <ele>2096</ele>
        <time>2016-03-27T07:24:42Z</time>
      </trkpt>
      <trkpt lat="42.81654" lon="-0.20762">
        <ele>2096</ele>
        <time>2016-03-27T07:24:45Z</time>
      </trkpt>
      <trkpt lat="42.81653" lon="-0.20766">
        <ele>2097</ele>
        <time>2016-03-27T07:24:57Z</time>
      </trkpt>
      <trkpt lat="42.81654" lon="-0.20766">
        <ele>2098</ele>
        <time>2016-03-27T07:25:20Z</time>
      </trkpt>
      <trkpt lat="42.81651" lon="-0.20764">
        <ele>2096</ele>
        <time>2016-03-27T07:25:36Z</time>
      </trkpt>
      <trkpt lat="42.81652" lon="-0.2076">
        <ele>2094</ele>
        <time>2016-03-27T07:26:08Z</time>
      </trkpt>
      <trkpt lat="42.81654" lon="-0.2076">
        <ele>2095</ele>
        <time>2016-03-27T07:26:46Z</time>
      </trkpt>
      <trkpt lat="42.81654" lon="-0.20761">
        <ele>2096</ele>
        <time>2016-03-27T07:27:30Z</time>
      </trkpt>
      <trkpt lat="42.81654" lon="-0.20757">
        <ele>2094</ele>
        <time>2016-03-27T07:28:14Z</time>
      </trkpt>
      <trkpt lat="42.81654" lon="-0.2076">
        <ele>2095</ele>
        <time>2016-03-27T07:28:53Z</time>
      </trkpt>
      <trkpt lat="42.81655" lon="-0.20758">
        <ele>2095</ele>
        <time>2016-03-27T07:29:31Z</time>
      </trkpt>
      <trkpt lat="42.81655" lon="-0.2076">
        <ele>2096</ele>
        <time>2016-03-27T07:30:05Z</time>
      </trkpt>
      <trkpt lat="42.81655" lon="-0.20759">
        <ele>2095</ele>
        <time>2016-03-27T07:30:21Z</time>
      </trkpt>
      <trkpt lat="42.81654" lon="-0.20761">
        <ele>2096</ele>
        <time>2016-03-27T07:30:33Z</time>
      </trkpt>
      <trkpt lat="42.81658" lon="-0.20768">
        <ele>2101</ele>
        <time>2016-03-27T07:30:49Z</time>
      </trkpt>
      <trkpt lat="42.81665" lon="-0.20769">
        <ele>2105</ele>
        <time>2016-03-27T07:31:03Z</time>
      </trkpt>
      <trkpt lat="42.81669" lon="-0.20771">
        <ele>2109</ele>
        <time>2016-03-27T07:31:16Z</time>
      </trkpt>
      <trkpt lat="42.81664" lon="-0.2078">
        <ele>2110</ele>
        <time>2016-03-27T07:31:30Z</time>
      </trkpt>
      <trkpt lat="42.81661" lon="-0.20787">
        <ele>2112</ele>
        <time>2016-03-27T07:31:43Z</time>
      </trkpt>
      <trkpt lat="42.81658" lon="-0.20797">
        <ele>2115</ele>
        <time>2016-03-27T07:31:59Z</time>
      </trkpt>
      <trkpt lat="42.81653" lon="-0.20809">
        <ele>2117</ele>
        <time>2016-03-27T07:32:16Z</time>
      </trkpt>
      <trkpt lat="42.81651" lon="-0.20818">
        <ele>2120</ele>
        <time>2016-03-27T07:32:32Z</time>
      </trkpt>
      <trkpt lat="42.81647" lon="-0.20828">
        <ele>2122</ele>
        <time>2016-03-27T07:32:49Z</time>
      </trkpt>
      <trkpt lat="42.81645" lon="-0.20838">
        <ele>2125</ele>
        <time>2016-03-27T07:33:05Z</time>
      </trkpt>
      <trkpt lat="42.81643" lon="-0.20846">
        <ele>2126</ele>
        <time>2016-03-27T07:33:21Z</time>
      </trkpt>
      <trkpt lat="42.81647" lon="-0.20846">
        <ele>2128</ele>
        <time>2016-03-27T07:33:34Z</time>
      </trkpt>
      <trkpt lat="42.81656" lon="-0.20841">
        <ele>2133</ele>
        <time>2016-03-27T07:33:51Z</time>
      </trkpt>
      <trkpt lat="42.81664" lon="-0.2084">
        <ele>2137</ele>
        <time>2016-03-27T07:34:06Z</time>
      </trkpt>
      <trkpt lat="42.81667" lon="-0.20839">
        <ele>2138</ele>
        <time>2016-03-27T07:34:21Z</time>
      </trkpt>
      <trkpt lat="42.81664" lon="-0.20848">
        <ele>2139</ele>
        <time>2016-03-27T07:34:36Z</time>
      </trkpt>
      <trkpt lat="42.8166" lon="-0.20858">
        <ele>2140</ele>
        <time>2016-03-27T07:34:50Z</time>
      </trkpt>
      <trkpt lat="42.81658" lon="-0.20866">
        <ele>2141</ele>
        <time>2016-03-27T07:35:04Z</time>
      </trkpt>
      <trkpt lat="42.81656" lon="-0.20874">
        <ele>2142</ele>
        <time>2016-03-27T07:35:20Z</time>
      </trkpt>
      <trkpt lat="42.81653" lon="-0.20886">
        <ele>2143</ele>
        <time>2016-03-27T07:35:35Z</time>
      </trkpt>
      <trkpt lat="42.81651" lon="-0.20896">
        <ele>2144</ele>
        <time>2016-03-27T07:35:51Z</time>
      </trkpt>
      <trkpt lat="42.81647" lon="-0.20905">
        <ele>2145</ele>
        <time>2016-03-27T07:36:06Z</time>
      </trkpt>
      <trkpt lat="42.81645" lon="-0.20914">
        <ele>2146</ele>
        <time>2016-03-27T07:36:23Z</time>
      </trkpt>
      <trkpt lat="42.81642" lon="-0.2092">
        <ele>2146</ele>
        <time>2016-03-27T07:36:38Z</time>
      </trkpt>
      <trkpt lat="42.8164" lon="-0.20929">
        <ele>2147</ele>
        <time>2016-03-27T07:36:54Z</time>
      </trkpt>
      <trkpt lat="42.81643" lon="-0.20931">
        <ele>2150</ele>
        <time>2016-03-27T07:37:09Z</time>
      </trkpt>
      <trkpt lat="42.81651" lon="-0.20925">
        <ele>2153</ele>
        <time>2016-03-27T07:37:26Z</time>
      </trkpt>
      <trkpt lat="42.81658" lon="-0.20926">
        <ele>2158</ele>
        <time>2016-03-27T07:37:40Z</time>
      </trkpt>
      <trkpt lat="42.8166" lon="-0.20926">
        <ele>2159</ele>
        <time>2016-03-27T07:37:54Z</time>
      </trkpt>
      <trkpt lat="42.81655" lon="-0.20936">
        <ele>2159</ele>
        <time>2016-03-27T07:38:10Z</time>
      </trkpt>
      <trkpt lat="42.81652" lon="-0.20944">
        <ele>2160</ele>
        <time>2016-03-27T07:38:25Z</time>
      </trkpt>
      <trkpt lat="42.81651" lon="-0.20949">
        <ele>2161</ele>
        <time>2016-03-27T07:38:39Z</time>
      </trkpt>
      <trkpt lat="42.8165" lon="-0.20952">
        <ele>2162</ele>
        <time>2016-03-27T07:38:56Z</time>
      </trkpt>
      <trkpt lat="42.81655" lon="-0.20948">
        <ele>2164</ele>
        <time>2016-03-27T07:39:08Z</time>
      </trkpt>
      <trkpt lat="42.81661" lon="-0.20945">
        <ele>2166</ele>
        <time>2016-03-27T07:39:23Z</time>
      </trkpt>
      <trkpt lat="42.8167" lon="-0.20941">
        <ele>2171</ele>
        <time>2016-03-27T07:39:40Z</time>
      </trkpt>
      <trkpt lat="42.81668" lon="-0.20944">
        <ele>2170</ele>
        <time>2016-03-27T07:39:53Z</time>
      </trkpt>
      <trkpt lat="42.81665" lon="-0.20952">
        <ele>2171</ele>
        <time>2016-03-27T07:40:09Z</time>
      </trkpt>
      <trkpt lat="42.81662" lon="-0.20962">
        <ele>2172</ele>
        <time>2016-03-27T07:40:24Z</time>
      </trkpt>
      <trkpt lat="42.81661" lon="-0.20965">
        <ele>2173</ele>
        <time>2016-03-27T07:40:28Z</time>
      </trkpt>
      <trkpt lat="42.81667" lon="-0.20963">
        <ele>2176</ele>
        <time>2016-03-27T07:40:48Z</time>
      </trkpt>
      <trkpt lat="42.81676" lon="-0.20955">
        <ele>2179</ele>
        <time>2016-03-27T07:41:08Z</time>
      </trkpt>
      <trkpt lat="42.81681" lon="-0.20952">
        <ele>2182</ele>
        <time>2016-03-27T07:41:21Z</time>
      </trkpt>
      <trkpt lat="42.81679" lon="-0.20957">
        <ele>2182</ele>
        <time>2016-03-27T07:41:33Z</time>
      </trkpt>
      <trkpt lat="42.81674" lon="-0.20966">
        <ele>2182</ele>
        <time>2016-03-27T07:41:50Z</time>
      </trkpt>
      <trkpt lat="42.8167" lon="-0.20975">
        <ele>2182</ele>
        <time>2016-03-27T07:42:06Z</time>
      </trkpt>
      <trkpt lat="42.81669" lon="-0.20984">
        <ele>2184</ele>
        <time>2016-03-27T07:42:23Z</time>
      </trkpt>
      <trkpt lat="42.81667" lon="-0.20993">
        <ele>2186</ele>
        <time>2016-03-27T07:42:43Z</time>
      </trkpt>
      <trkpt lat="42.81664" lon="-0.21003">
        <ele>2187</ele>
        <time>2016-03-27T07:42:58Z</time>
      </trkpt>
      <trkpt lat="42.81661" lon="-0.21009">
        <ele>2188</ele>
        <time>2016-03-27T07:43:12Z</time>
      </trkpt>
      <trkpt lat="42.81657" lon="-0.21018">
        <ele>2187</ele>
        <time>2016-03-27T07:43:29Z</time>
      </trkpt>
      <trkpt lat="42.81655" lon="-0.21026">
        <ele>2188</ele>
        <time>2016-03-27T07:43:45Z</time>
      </trkpt>
      <trkpt lat="42.8166" lon="-0.21023">
        <ele>2191</ele>
        <time>2016-03-27T07:43:58Z</time>
      </trkpt>
      <trkpt lat="42.81667" lon="-0.21019">
        <ele>2193</ele>
        <time>2016-03-27T07:44:12Z</time>
      </trkpt>
      <trkpt lat="42.81672" lon="-0.21017">
        <ele>2196</ele>
        <time>2016-03-27T07:44:26Z</time>
      </trkpt>
      <trkpt lat="42.81677" lon="-0.21015">
        <ele>2199</ele>
        <time>2016-03-27T07:44:42Z</time>
      </trkpt>
      <trkpt lat="42.81678" lon="-0.21019">
        <ele>2201</ele>
        <time>2016-03-27T07:44:58Z</time>
      </trkpt>
      <trkpt lat="42.81674" lon="-0.21028">
        <ele>2200</ele>
        <time>2016-03-27T07:45:13Z</time>
      </trkpt>
      <trkpt lat="42.81669" lon="-0.21038">
        <ele>2200</ele>
        <time>2016-03-27T07:45:29Z</time>
      </trkpt>
      <trkpt lat="42.81667" lon="-0.21049">
        <ele>2201</ele>
        <time>2016-03-27T07:45:48Z</time>
      </trkpt>
      <trkpt lat="42.81664" lon="-0.21057">
        <ele>2201</ele>
        <time>2016-03-27T07:46:01Z</time>
      </trkpt>
      <trkpt lat="42.81663" lon="-0.21064">
        <ele>2203</ele>
        <time>2016-03-27T07:46:13Z</time>
      </trkpt>
      <trkpt lat="42.81666" lon="-0.21069">
        <ele>2206</ele>
        <time>2016-03-27T07:46:27Z</time>
      </trkpt>
      <trkpt lat="42.81672" lon="-0.21064">
        <ele>2208</ele>
        <time>2016-03-27T07:46:40Z</time>
      </trkpt>
      <trkpt lat="42.81677" lon="-0.21063">
        <ele>2211</ele>
        <time>2016-03-27T07:46:57Z</time>
      </trkpt>
      <trkpt lat="42.81675" lon="-0.21073">
        <ele>2213</ele>
        <time>2016-03-27T07:47:12Z</time>
      </trkpt>
      <trkpt lat="42.81675" lon="-0.21079">
        <ele>2214</ele>
        <time>2016-03-27T07:47:26Z</time>
      </trkpt>
      <trkpt lat="42.81673" lon="-0.21088">
        <ele>2214</ele>
        <time>2016-03-27T07:47:40Z</time>
      </trkpt>
      <trkpt lat="42.8167" lon="-0.21095">
        <ele>2213</ele>
        <time>2016-03-27T07:47:54Z</time>
      </trkpt>
      <trkpt lat="42.81668" lon="-0.211">
        <ele>2213</ele>
        <time>2016-03-27T07:48:10Z</time>
      </trkpt>
      <trkpt lat="42.81669" lon="-0.21108">
        <ele>2214</ele>
        <time>2016-03-27T07:48:24Z</time>
      </trkpt>
      <trkpt lat="42.81667" lon="-0.21116">
        <ele>2213</ele>
        <time>2016-03-27T07:48:39Z</time>
      </trkpt>
      <trkpt lat="42.81673" lon="-0.2111">
        <ele>2216</ele>
        <time>2016-03-27T07:48:53Z</time>
      </trkpt>
      <trkpt lat="42.81673" lon="-0.2111">
        <ele>2216</ele>
        <time>2016-03-27T07:48:54Z</time>
      </trkpt>
      <trkpt lat="42.81678" lon="-0.21105">
        <ele>2219</ele>
        <time>2016-03-27T07:49:08Z</time>
      </trkpt>
      <trkpt lat="42.81684" lon="-0.21101">
        <ele>2222</ele>
        <time>2016-03-27T07:49:23Z</time>
      </trkpt>
      <trkpt lat="42.81687" lon="-0.21099">
        <ele>2224</ele>
        <time>2016-03-27T07:49:48Z</time>
      </trkpt>
      <trkpt lat="42.81685" lon="-0.21103">
        <ele>2223</ele>
        <time>2016-03-27T07:50:01Z</time>
      </trkpt>
      <trkpt lat="42.81684" lon="-0.21114">
        <ele>2223</ele>
        <time>2016-03-27T07:50:15Z</time>
      </trkpt>
      <trkpt lat="42.81682" lon="-0.2112">
        <ele>2222</ele>
        <time>2016-03-27T07:50:24Z</time>
      </trkpt>
      <trkpt lat="42.81679" lon="-0.21124">
        <ele>2221</ele>
        <time>2016-03-27T07:50:39Z</time>
      </trkpt>
      <trkpt lat="42.8168" lon="-0.21122">
        <ele>2221</ele>
        <time>2016-03-27T07:50:57Z</time>
      </trkpt>
      <trkpt lat="42.81678" lon="-0.21125">
        <ele>2220</ele>
        <time>2016-03-27T07:51:12Z</time>
      </trkpt>
      <trkpt lat="42.81677" lon="-0.21135">
        <ele>2221</ele>
        <time>2016-03-27T07:51:25Z</time>
      </trkpt>
      <trkpt lat="42.81676" lon="-0.21139">
        <ele>2221</ele>
        <time>2016-03-27T07:51:38Z</time>
      </trkpt>
      <trkpt lat="42.81675" lon="-0.21138">
        <ele>2220</ele>
        <time>2016-03-27T07:52:02Z</time>
      </trkpt>
      <trkpt lat="42.81673" lon="-0.21146">
        <ele>2219</ele>
        <time>2016-03-27T07:52:15Z</time>
      </trkpt>
      <trkpt lat="42.81678" lon="-0.21139">
        <ele>2222</ele>
        <time>2016-03-27T07:52:26Z</time>
      </trkpt>
      <trkpt lat="42.81685" lon="-0.21135">
        <ele>2226</ele>
        <time>2016-03-27T07:52:41Z</time>
      </trkpt>
      <trkpt lat="42.81691" lon="-0.21129">
        <ele>2229</ele>
        <time>2016-03-27T07:52:55Z</time>
      </trkpt>
      <trkpt lat="42.81697" lon="-0.21121">
        <ele>2231</ele>
        <time>2016-03-27T07:53:11Z</time>
      </trkpt>
      <trkpt lat="42.81701" lon="-0.21115">
        <ele>2234</ele>
        <time>2016-03-27T07:53:25Z</time>
      </trkpt>
      <trkpt lat="42.81701" lon="-0.21126">
        <ele>2234</ele>
        <time>2016-03-27T07:53:39Z</time>
      </trkpt>
      <trkpt lat="42.81698" lon="-0.21139">
        <ele>2233</ele>
        <time>2016-03-27T07:53:54Z</time>
      </trkpt>
      <trkpt lat="42.81696" lon="-0.21145">
        <ele>2232</ele>
        <time>2016-03-27T07:54:14Z</time>
      </trkpt>
      <trkpt lat="42.81693" lon="-0.21155">
        <ele>2231</ele>
        <time>2016-03-27T07:54:28Z</time>
      </trkpt>
      <trkpt lat="42.81692" lon="-0.21165">
        <ele>2232</ele>
        <time>2016-03-27T07:54:40Z</time>
      </trkpt>
      <trkpt lat="42.81692" lon="-0.21175">
        <ele>2233</ele>
        <time>2016-03-27T07:54:54Z</time>
      </trkpt>
      <trkpt lat="42.81689" lon="-0.21186">
        <ele>2234</ele>
        <time>2016-03-27T07:55:09Z</time>
      </trkpt>
      <trkpt lat="42.81687" lon="-0.21196">
        <ele>2234</ele>
        <time>2016-03-27T07:55:25Z</time>
      </trkpt>
      <trkpt lat="42.81689" lon="-0.21204">
        <ele>2237</ele>
        <time>2016-03-27T07:55:38Z</time>
      </trkpt>
      <trkpt lat="42.8169" lon="-0.21213">
        <ele>2238</ele>
        <time>2016-03-27T07:55:51Z</time>
      </trkpt>
      <trkpt lat="42.81689" lon="-0.21221">
        <ele>2239</ele>
        <time>2016-03-27T07:56:03Z</time>
      </trkpt>
      <trkpt lat="42.81695" lon="-0.21225">
        <ele>2243</ele>
        <time>2016-03-27T07:56:16Z</time>
      </trkpt>
      <trkpt lat="42.81693" lon="-0.21225">
        <ele>2242</ele>
        <time>2016-03-27T07:56:34Z</time>
      </trkpt>
      <trkpt lat="42.81692" lon="-0.21224">
        <ele>2241</ele>
        <time>2016-03-27T07:56:57Z</time>
      </trkpt>
      <trkpt lat="42.81691" lon="-0.21229">
        <ele>2242</ele>
        <time>2016-03-27T07:57:09Z</time>
      </trkpt>
      <trkpt lat="42.81687" lon="-0.21235">
        <ele>2240</ele>
        <time>2016-03-27T07:57:22Z</time>
      </trkpt>
      <trkpt lat="42.81685" lon="-0.21236">
        <ele>2240</ele>
        <time>2016-03-27T07:57:35Z</time>
      </trkpt>
      <trkpt lat="42.81687" lon="-0.21236">
        <ele>2241</ele>
        <time>2016-03-27T07:57:55Z</time>
      </trkpt>
      <trkpt lat="42.81686" lon="-0.21239">
        <ele>2241</ele>
        <time>2016-03-27T07:58:14Z</time>
      </trkpt>
      <trkpt lat="42.81687" lon="-0.21239">
        <ele>2241</ele>
        <time>2016-03-27T07:58:34Z</time>
      </trkpt>
      <trkpt lat="42.81686" lon="-0.21235">
        <ele>2240</ele>
        <time>2016-03-27T07:59:04Z</time>
      </trkpt>
      <trkpt lat="42.81685" lon="-0.21233">
        <ele>2240</ele>
        <time>2016-03-27T07:59:38Z</time>
      </trkpt>
      <trkpt lat="42.81685" lon="-0.21237">
        <ele>2240</ele>
        <time>2016-03-27T07:59:54Z</time>
      </trkpt>
      <trkpt lat="42.81685" lon="-0.21236">
        <ele>2240</ele>
        <time>2016-03-27T08:00:22Z</time>
      </trkpt>
      <trkpt lat="42.81686" lon="-0.21239">
        <ele>2241</ele>
        <time>2016-03-27T08:00:44Z</time>
      </trkpt>
      <trkpt lat="42.81685" lon="-0.21234">
        <ele>2240</ele>
        <time>2016-03-27T08:01:18Z</time>
      </trkpt>
      <trkpt lat="42.81685" lon="-0.21234">
        <ele>2240</ele>
        <time>2016-03-27T08:01:46Z</time>
      </trkpt>
      <trkpt lat="42.81685" lon="-0.21237">
        <ele>2240</ele>
        <time>2016-03-27T08:02:06Z</time>
      </trkpt>
      <trkpt lat="42.81685" lon="-0.21236">
        <ele>2240</ele>
        <time>2016-03-27T08:02:46Z</time>
      </trkpt>
      <trkpt lat="42.81686" lon="-0.21235">
        <ele>2240</ele>
        <time>2016-03-27T08:03:25Z</time>
      </trkpt>
      <trkpt lat="42.81686" lon="-0.21235">
        <ele>2240</ele>
        <time>2016-03-27T08:04:04Z</time>
      </trkpt>
      <trkpt lat="42.81688" lon="-0.21236">
        <ele>2241</ele>
        <time>2016-03-27T08:04:39Z</time>
      </trkpt>
      <trkpt lat="42.81686" lon="-0.21235">
        <ele>2240</ele>
        <time>2016-03-27T08:05:18Z</time>
      </trkpt>
      <trkpt lat="42.81685" lon="-0.21234">
        <ele>2239</ele>
        <time>2016-03-27T08:06:03Z</time>
      </trkpt>
      <trkpt lat="42.81687" lon="-0.21233">
        <ele>2240</ele>
        <time>2016-03-27T08:06:14Z</time>
      </trkpt>
      <trkpt lat="42.81687" lon="-0.21239">
        <ele>2242</ele>
        <time>2016-03-27T08:06:28Z</time>
      </trkpt>
      <trkpt lat="42.81687" lon="-0.21243">
        <ele>2242</ele>
        <time>2016-03-27T08:06:42Z</time>
      </trkpt>
      <trkpt lat="42.81683" lon="-0.21253">
        <ele>2242</ele>
        <time>2016-03-27T08:06:54Z</time>
      </trkpt>
      <trkpt lat="42.81679" lon="-0.21266">
        <ele>2243</ele>
        <time>2016-03-27T08:07:09Z</time>
      </trkpt>
      <trkpt lat="42.81676" lon="-0.21276">
        <ele>2243</ele>
        <time>2016-03-27T08:07:22Z</time>
      </trkpt>
      <trkpt lat="42.81672" lon="-0.21284">
        <ele>2244</ele>
        <time>2016-03-27T08:07:35Z</time>
      </trkpt>
      <trkpt lat="42.81667" lon="-0.2129">
        <ele>2243</ele>
        <time>2016-03-27T08:07:51Z</time>
      </trkpt>
      <trkpt lat="42.81662" lon="-0.21298">
        <ele>2243</ele>
        <time>2016-03-27T08:08:06Z</time>
      </trkpt>
      <trkpt lat="42.81659" lon="-0.21306">
        <ele>2244</ele>
        <time>2016-03-27T08:08:22Z</time>
      </trkpt>
      <trkpt lat="42.81656" lon="-0.21318">
        <ele>2247</ele>
        <time>2016-03-27T08:08:40Z</time>
      </trkpt>
      <trkpt lat="42.81654" lon="-0.21323">
        <ele>2248</ele>
        <time>2016-03-27T08:08:55Z</time>
      </trkpt>
      <trkpt lat="42.81651" lon="-0.21331">
        <ele>2249</ele>
        <time>2016-03-27T08:09:10Z</time>
      </trkpt>
      <trkpt lat="42.81647" lon="-0.2134">
        <ele>2250</ele>
        <time>2016-03-27T08:09:25Z</time>
      </trkpt>
      <trkpt lat="42.81639" lon="-0.21344">
        <ele>2249</ele>
        <time>2016-03-27T08:09:41Z</time>
      </trkpt>
      <trkpt lat="42.81635" lon="-0.21354">
        <ele>2251</ele>
        <time>2016-03-27T08:09:58Z</time>
      </trkpt>
      <trkpt lat="42.81629" lon="-0.21361">
        <ele>2251</ele>
        <time>2016-03-27T08:10:14Z</time>
      </trkpt>
      <trkpt lat="42.81624" lon="-0.21365">
        <ele>2251</ele>
        <time>2016-03-27T08:10:29Z</time>
      </trkpt>
      <trkpt lat="42.81619" lon="-0.2137">
        <ele>2251</ele>
        <time>2016-03-27T08:10:42Z</time>
      </trkpt>
      <trkpt lat="42.81615" lon="-0.21376">
        <ele>2252</ele>
        <time>2016-03-27T08:11:01Z</time>
      </trkpt>
      <trkpt lat="42.81609" lon="-0.21381">
        <ele>2252</ele>
        <time>2016-03-27T08:11:18Z</time>
      </trkpt>
      <trkpt lat="42.81603" lon="-0.21382">
        <ele>2250</ele>
        <time>2016-03-27T08:11:33Z</time>
      </trkpt>
      <trkpt lat="42.81595" lon="-0.21377">
        <ele>2247</ele>
        <time>2016-03-27T08:11:50Z</time>
      </trkpt>
      <trkpt lat="42.81594" lon="-0.21382">
        <ele>2248</ele>
        <time>2016-03-27T08:12:03Z</time>
      </trkpt>
      <trkpt lat="42.81593" lon="-0.2139">
        <ele>2250</ele>
        <time>2016-03-27T08:12:17Z</time>
      </trkpt>
      <trkpt lat="42.81595" lon="-0.21396">
        <ele>2252</ele>
        <time>2016-03-27T08:12:31Z</time>
      </trkpt>
      <trkpt lat="42.81593" lon="-0.21398">
        <ele>2252</ele>
        <time>2016-03-27T08:12:45Z</time>
      </trkpt>
      <trkpt lat="42.81588" lon="-0.21394">
        <ele>2250</ele>
        <time>2016-03-27T08:13:00Z</time>
      </trkpt>
      <trkpt lat="42.81582" lon="-0.21384">
        <ele>2246</ele>
        <time>2016-03-27T08:13:16Z</time>
      </trkpt>
      <trkpt lat="42.81579" lon="-0.21395">
        <ele>2249</ele>
        <time>2016-03-27T08:13:32Z</time>
      </trkpt>
      <trkpt lat="42.81576" lon="-0.21404">
        <ele>2251</ele>
        <time>2016-03-27T08:13:47Z</time>
      </trkpt>
      <trkpt lat="42.81575" lon="-0.21413">
        <ele>2253</ele>
        <time>2016-03-27T08:14:03Z</time>
      </trkpt>
      <trkpt lat="42.81574" lon="-0.21419">
        <ele>2255</ele>
        <time>2016-03-27T08:14:17Z</time>
      </trkpt>
      <trkpt lat="42.81574" lon="-0.21429">
        <ele>2259</ele>
        <time>2016-03-27T08:14:34Z</time>
      </trkpt>
      <trkpt lat="42.81576" lon="-0.21436">
        <ele>2261</ele>
        <time>2016-03-27T08:14:50Z</time>
      </trkpt>
      <trkpt lat="42.8158" lon="-0.21442">
        <ele>2264</ele>
        <time>2016-03-27T08:15:05Z</time>
      </trkpt>
      <trkpt lat="42.81583" lon="-0.2145">
        <ele>2267</ele>
        <time>2016-03-27T08:15:18Z</time>
      </trkpt>
      <trkpt lat="42.81584" lon="-0.21458">
        <ele>2270</ele>
        <time>2016-03-27T08:15:32Z</time>
      </trkpt>
      <trkpt lat="42.81587" lon="-0.2147">
        <ele>2275</ele>
        <time>2016-03-27T08:15:45Z</time>
      </trkpt>
      <trkpt lat="42.81591" lon="-0.21475">
        <ele>2278</ele>
        <time>2016-03-27T08:15:59Z</time>
      </trkpt>
      <trkpt lat="42.81596" lon="-0.21483">
        <ele>2281</ele>
        <time>2016-03-27T08:16:17Z</time>
      </trkpt>
      <trkpt lat="42.81603" lon="-0.21485">
        <ele>2283</ele>
        <time>2016-03-27T08:16:34Z</time>
      </trkpt>
      <trkpt lat="42.81608" lon="-0.21481">
        <ele>2283</ele>
        <time>2016-03-27T08:16:49Z</time>
      </trkpt>
      <trkpt lat="42.81613" lon="-0.21489">
        <ele>2286</ele>
        <time>2016-03-27T08:17:01Z</time>
      </trkpt>
      <trkpt lat="42.81616" lon="-0.21493">
        <ele>2288</ele>
        <time>2016-03-27T08:17:15Z</time>
      </trkpt>
      <trkpt lat="42.81617" lon="-0.21494">
        <ele>2288</ele>
        <time>2016-03-27T08:17:28Z</time>
      </trkpt>
      <trkpt lat="42.8161" lon="-0.215">
        <ele>2289</ele>
        <time>2016-03-27T08:17:45Z</time>
      </trkpt>
      <trkpt lat="42.81608" lon="-0.21501">
        <ele>2289</ele>
        <time>2016-03-27T08:18:01Z</time>
      </trkpt>
      <trkpt lat="42.8161" lon="-0.21506">
        <ele>2291</ele>
        <time>2016-03-27T08:18:13Z</time>
      </trkpt>
      <trkpt lat="42.81615" lon="-0.21508">
        <ele>2292</ele>
        <time>2016-03-27T08:18:26Z</time>
      </trkpt>
      <trkpt lat="42.81621" lon="-0.21508">
        <ele>2293</ele>
        <time>2016-03-27T08:18:43Z</time>
      </trkpt>
      <trkpt lat="42.81623" lon="-0.21508">
        <ele>2293</ele>
        <time>2016-03-27T08:19:03Z</time>
      </trkpt>
      <trkpt lat="42.81627" lon="-0.21501">
        <ele>2291</ele>
        <time>2016-03-27T08:19:18Z</time>
      </trkpt>
      <trkpt lat="42.81632" lon="-0.21497">
        <ele>2291</ele>
        <time>2016-03-27T08:19:31Z</time>
      </trkpt>
      <trkpt lat="42.81635" lon="-0.21493">
        <ele>2290</ele>
        <time>2016-03-27T08:19:50Z</time>
      </trkpt>
      <trkpt lat="42.8164" lon="-0.21491">
        <ele>2290</ele>
        <time>2016-03-27T08:20:04Z</time>
      </trkpt>
      <trkpt lat="42.81641" lon="-0.21494">
        <ele>2291</ele>
        <time>2016-03-27T08:20:16Z</time>
      </trkpt>
      <trkpt lat="42.8164" lon="-0.21503">
        <ele>2294</ele>
        <time>2016-03-27T08:20:33Z</time>
      </trkpt>
      <trkpt lat="42.81639" lon="-0.2151">
        <ele>2295</ele>
        <time>2016-03-27T08:20:44Z</time>
      </trkpt>
      <trkpt lat="42.81638" lon="-0.21517">
        <ele>2297</ele>
        <time>2016-03-27T08:20:57Z</time>
      </trkpt>
      <trkpt lat="42.81641" lon="-0.21512">
        <ele>2296</ele>
        <time>2016-03-27T08:21:07Z</time>
      </trkpt>
      <trkpt lat="42.81645" lon="-0.21509">
        <ele>2296</ele>
        <time>2016-03-27T08:21:23Z</time>
      </trkpt>
      <trkpt lat="42.81651" lon="-0.21511">
        <ele>2297</ele>
        <time>2016-03-27T08:21:38Z</time>
      </trkpt>
      <trkpt lat="42.81652" lon="-0.21512">
        <ele>2297</ele>
        <time>2016-03-27T08:21:54Z</time>
      </trkpt>
      <trkpt lat="42.81651" lon="-0.21518">
        <ele>2299</ele>
        <time>2016-03-27T08:22:13Z</time>
      </trkpt>
      <trkpt lat="42.81649" lon="-0.21522">
        <ele>2300</ele>
        <time>2016-03-27T08:22:26Z</time>
      </trkpt>
      <trkpt lat="42.81648" lon="-0.21532">
        <ele>2302</ele>
        <time>2016-03-27T08:22:40Z</time>
      </trkpt>
      <trkpt lat="42.81645" lon="-0.21541">
        <ele>2304</ele>
        <time>2016-03-27T08:22:54Z</time>
      </trkpt>
      <trkpt lat="42.8164" lon="-0.21547">
        <ele>2305</ele>
        <time>2016-03-27T08:23:09Z</time>
      </trkpt>
      <trkpt lat="42.81635" lon="-0.21553">
        <ele>2307</ele>
        <time>2016-03-27T08:23:24Z</time>
      </trkpt>
      <trkpt lat="42.81632" lon="-0.2156">
        <ele>2309</ele>
        <time>2016-03-27T08:23:37Z</time>
      </trkpt>
      <trkpt lat="42.81628" lon="-0.21566">
        <ele>2310</ele>
        <time>2016-03-27T08:23:50Z</time>
      </trkpt>
      <trkpt lat="42.81627" lon="-0.21572">
        <ele>2312</ele>
        <time>2016-03-27T08:24:00Z</time>
      </trkpt>
      <trkpt lat="42.81623" lon="-0.21579">
        <ele>2314</ele>
        <time>2016-03-27T08:24:16Z</time>
      </trkpt>
      <trkpt lat="42.8162" lon="-0.21586">
        <ele>2315</ele>
        <time>2016-03-27T08:24:30Z</time>
      </trkpt>
      <trkpt lat="42.81621" lon="-0.21589">
        <ele>2316</ele>
        <time>2016-03-27T08:24:42Z</time>
      </trkpt>
      <trkpt lat="42.8162" lon="-0.2159">
        <ele>2316</ele>
        <time>2016-03-27T08:25:12Z</time>
      </trkpt>
      <trkpt lat="42.8162" lon="-0.2159">
        <ele>2316</ele>
        <time>2016-03-27T08:25:44Z</time>
      </trkpt>
      <trkpt lat="42.81621" lon="-0.21591">
        <ele>2316</ele>
        <time>2016-03-27T08:26:19Z</time>
      </trkpt>
      <trkpt lat="42.81622" lon="-0.21591">
        <ele>2316</ele>
        <time>2016-03-27T08:26:45Z</time>
      </trkpt>
      <trkpt lat="42.8162" lon="-0.21593">
        <ele>2317</ele>
        <time>2016-03-27T08:27:03Z</time>
      </trkpt>
      <trkpt lat="42.81613" lon="-0.21603">
        <ele>2318</ele>
        <time>2016-03-27T08:27:19Z</time>
      </trkpt>
      <trkpt lat="42.81612" lon="-0.21602">
        <ele>2318</ele>
        <time>2016-03-27T08:27:32Z</time>
      </trkpt>
      <trkpt lat="42.81605" lon="-0.21606">
        <ele>2319</ele>
        <time>2016-03-27T08:27:37Z</time>
      </trkpt>
      <trkpt lat="42.81602" lon="-0.21611">
        <ele>2319</ele>
        <time>2016-03-27T08:27:49Z</time>
      </trkpt>
      <trkpt lat="42.81604" lon="-0.21615">
        <ele>2320</ele>
        <time>2016-03-27T08:28:02Z</time>
      </trkpt>
      <trkpt lat="42.81605" lon="-0.21615">
        <ele>2320</ele>
        <time>2016-03-27T08:28:17Z</time>
      </trkpt>
      <trkpt lat="42.81605" lon="-0.21616">
        <ele>2320</ele>
        <time>2016-03-27T08:28:36Z</time>
      </trkpt>
      <trkpt lat="42.81605" lon="-0.21614">
        <ele>2320</ele>
        <time>2016-03-27T08:28:55Z</time>
      </trkpt>
      <trkpt lat="42.81605" lon="-0.21616">
        <ele>2320</ele>
        <time>2016-03-27T08:29:15Z</time>
      </trkpt>
      <trkpt lat="42.81606" lon="-0.21615">
        <ele>2320</ele>
        <time>2016-03-27T08:29:30Z</time>
      </trkpt>
      <trkpt lat="42.81605" lon="-0.21615">
        <ele>2320</ele>
        <time>2016-03-27T08:29:45Z</time>
      </trkpt>
      <trkpt lat="42.81605" lon="-0.21616">
        <ele>2320</ele>
        <time>2016-03-27T08:29:47Z</time>
      </trkpt>
      <trkpt lat="42.81606" lon="-0.21635">
        <ele>2323</ele>
        <time>2016-03-27T08:29:56Z</time>
      </trkpt>
      <trkpt lat="42.81604" lon="-0.21652">
        <ele>2326</ele>
        <time>2016-03-27T08:30:02Z</time>
      </trkpt>
      <trkpt lat="42.81603" lon="-0.21668">
        <ele>2328</ele>
        <time>2016-03-27T08:30:07Z</time>
      </trkpt>
      <trkpt lat="42.81602" lon="-0.21671">
        <ele>2329</ele>
        <time>2016-03-27T08:30:08Z</time>
      </trkpt>
      <trkpt lat="42.81602" lon="-0.21672">
        <ele>2328</ele>
        <time>2016-03-27T08:30:10Z</time>
      </trkpt>
      <trkpt lat="42.81591" lon="-0.21683">
        <ele>2328</ele>
        <time>2016-03-27T08:30:14Z</time>
      </trkpt>
      <trkpt lat="42.81579" lon="-0.21692">
        <ele>2325</ele>
        <time>2016-03-27T08:30:17Z</time>
      </trkpt>
      <trkpt lat="42.8157" lon="-0.217">
        <ele>2323</ele>
        <time>2016-03-27T08:30:19Z</time>
      </trkpt>
      <trkpt lat="42.81568" lon="-0.217">
        <ele>2323</ele>
        <time>2016-03-27T08:30:26Z</time>
      </trkpt>
      <trkpt lat="42.81568" lon="-0.21698">
        <ele>2323</ele>
        <time>2016-03-27T08:30:43Z</time>
      </trkpt>
      <trkpt lat="42.81567" lon="-0.21699">
        <ele>2322</ele>
        <time>2016-03-27T08:31:04Z</time>
      </trkpt>
      <trkpt lat="42.81566" lon="-0.21699">
        <ele>2322</ele>
        <time>2016-03-27T08:31:15Z</time>
      </trkpt>
      <trkpt lat="42.81564" lon="-0.21698">
        <ele>2322</ele>
        <time>2016-03-27T08:31:37Z</time>
      </trkpt>
      <trkpt lat="42.81563" lon="-0.21699">
        <ele>2321</ele>
        <time>2016-03-27T08:31:54Z</time>
      </trkpt>
      <trkpt lat="42.81564" lon="-0.21697">
        <ele>2322</ele>
        <time>2016-03-27T08:32:12Z</time>
      </trkpt>
      <trkpt lat="42.81566" lon="-0.217">
        <ele>2322</ele>
        <time>2016-03-27T08:32:33Z</time>
      </trkpt>
      <trkpt lat="42.81566" lon="-0.217">
        <ele>2322</ele>
        <time>2016-03-27T08:32:58Z</time>
      </trkpt>
      <trkpt lat="42.81562" lon="-0.21701">
        <ele>2321</ele>
        <time>2016-03-27T08:33:09Z</time>
      </trkpt>
      <trkpt lat="42.81559" lon="-0.21706">
        <ele>2320</ele>
        <time>2016-03-27T08:33:22Z</time>
      </trkpt>
      <trkpt lat="42.81557" lon="-0.21715">
        <ele>2319</ele>
        <time>2016-03-27T08:33:39Z</time>
      </trkpt>
      <trkpt lat="42.81553" lon="-0.21723">
        <ele>2318</ele>
        <time>2016-03-27T08:33:56Z</time>
      </trkpt>
      <trkpt lat="42.81548" lon="-0.21727">
        <ele>2317</ele>
        <time>2016-03-27T08:34:10Z</time>
      </trkpt>
      <trkpt lat="42.8154" lon="-0.21723">
        <ele>2315</ele>
        <time>2016-03-27T08:34:25Z</time>
      </trkpt>
      <trkpt lat="42.81537" lon="-0.21722">
        <ele>2314</ele>
        <time>2016-03-27T08:34:36Z</time>
      </trkpt>
      <trkpt lat="42.81535" lon="-0.21733">
        <ele>2313</ele>
        <time>2016-03-27T08:34:53Z</time>
      </trkpt>
      <trkpt lat="42.81535" lon="-0.21738">
        <ele>2313</ele>
        <time>2016-03-27T08:35:07Z</time>
      </trkpt>
      <trkpt lat="42.81534" lon="-0.21749">
        <ele>2312</ele>
        <time>2016-03-27T08:35:23Z</time>
      </trkpt>
      <trkpt lat="42.81536" lon="-0.21758">
        <ele>2314</ele>
        <time>2016-03-27T08:35:37Z</time>
      </trkpt>
      <trkpt lat="42.81537" lon="-0.21767">
        <ele>2315</ele>
        <time>2016-03-27T08:35:52Z</time>
      </trkpt>
      <trkpt lat="42.81535" lon="-0.21773">
        <ele>2315</ele>
        <time>2016-03-27T08:36:07Z</time>
      </trkpt>
      <trkpt lat="42.81534" lon="-0.21784">
        <ele>2316</ele>
        <time>2016-03-27T08:36:22Z</time>
      </trkpt>
      <trkpt lat="42.8153" lon="-0.21797">
        <ele>2317</ele>
        <time>2016-03-27T08:36:39Z</time>
      </trkpt>
      <trkpt lat="42.81529" lon="-0.21807">
        <ele>2317</ele>
        <time>2016-03-27T08:36:52Z</time>
      </trkpt>
      <trkpt lat="42.81524" lon="-0.21822">
        <ele>2317</ele>
        <time>2016-03-27T08:37:10Z</time>
      </trkpt>
      <trkpt lat="42.81521" lon="-0.21834">
        <ele>2317</ele>
        <time>2016-03-27T08:37:25Z</time>
      </trkpt>
      <trkpt lat="42.81519" lon="-0.21846">
        <ele>2322</ele>
        <time>2016-03-27T08:37:40Z</time>
      </trkpt>
      <trkpt lat="42.81518" lon="-0.21856">
        <ele>2327</ele>
        <time>2016-03-27T08:37:54Z</time>
      </trkpt>
      <trkpt lat="42.81516" lon="-0.21867">
        <ele>2331</ele>
        <time>2016-03-27T08:38:09Z</time>
      </trkpt>
      <trkpt lat="42.81515" lon="-0.21878">
        <ele>2336</ele>
        <time>2016-03-27T08:38:25Z</time>
      </trkpt>
      <trkpt lat="42.81514" lon="-0.21886">
        <ele>2339</ele>
        <time>2016-03-27T08:38:39Z</time>
      </trkpt>
      <trkpt lat="42.81514" lon="-0.21896">
        <ele>2344</ele>
        <time>2016-03-27T08:38:56Z</time>
      </trkpt>
      <trkpt lat="42.81509" lon="-0.21905">
        <ele>2346</ele>
        <time>2016-03-27T08:39:13Z</time>
      </trkpt>
      <trkpt lat="42.81508" lon="-0.21914">
        <ele>2350</ele>
        <time>2016-03-27T08:39:28Z</time>
      </trkpt>
      <trkpt lat="42.81505" lon="-0.21924">
        <ele>2352</ele>
        <time>2016-03-27T08:39:45Z</time>
      </trkpt>
      <trkpt lat="42.81503" lon="-0.21934">
        <ele>2354</ele>
        <time>2016-03-27T08:39:59Z</time>
      </trkpt>
      <trkpt lat="42.81502" lon="-0.21943">
        <ele>2356</ele>
        <time>2016-03-27T08:40:14Z</time>
      </trkpt>
      <trkpt lat="42.81501" lon="-0.21953">
        <ele>2358</ele>
        <time>2016-03-27T08:40:28Z</time>
      </trkpt>
      <trkpt lat="42.81501" lon="-0.21963">
        <ele>2361</ele>
        <time>2016-03-27T08:40:40Z</time>
      </trkpt>
      <trkpt lat="42.81505" lon="-0.21972">
        <ele>2366</ele>
        <time>2016-03-27T08:40:56Z</time>
      </trkpt>
      <trkpt lat="42.81511" lon="-0.2198">
        <ele>2372</ele>
        <time>2016-03-27T08:41:11Z</time>
      </trkpt>
      <trkpt lat="42.81513" lon="-0.21989">
        <ele>2376</ele>
        <time>2016-03-27T08:41:27Z</time>
      </trkpt>
      <trkpt lat="42.81514" lon="-0.21997">
        <ele>2379</ele>
        <time>2016-03-27T08:41:42Z</time>
      </trkpt>
      <trkpt lat="42.81514" lon="-0.21997">
        <ele>2379</ele>
        <time>2016-03-27T08:42:02Z</time>
      </trkpt>
      <trkpt lat="42.81511" lon="-0.21999">
        <ele>2378</ele>
        <time>2016-03-27T08:42:21Z</time>
      </trkpt>
      <trkpt lat="42.8151" lon="-0.22011">
        <ele>2381</ele>
        <time>2016-03-27T08:42:34Z</time>
      </trkpt>
      <trkpt lat="42.81509" lon="-0.22018">
        <ele>2382</ele>
        <time>2016-03-27T08:42:41Z</time>
      </trkpt>
      <trkpt lat="42.81504" lon="-0.22027">
        <ele>2382</ele>
        <time>2016-03-27T08:42:56Z</time>
      </trkpt>
      <trkpt lat="42.81506" lon="-0.22038">
        <ele>2387</ele>
        <time>2016-03-27T08:43:12Z</time>
      </trkpt>
      <trkpt lat="42.81502" lon="-0.22042">
        <ele>2386</ele>
        <time>2016-03-27T08:43:26Z</time>
      </trkpt>
      <trkpt lat="42.81503" lon="-0.22052">
        <ele>2389</ele>
        <time>2016-03-27T08:43:41Z</time>
      </trkpt>
      <trkpt lat="42.81503" lon="-0.2206">
        <ele>2392</ele>
        <time>2016-03-27T08:43:55Z</time>
      </trkpt>
      <trkpt lat="42.81502" lon="-0.22068">
        <ele>2393</ele>
        <time>2016-03-27T08:44:09Z</time>
      </trkpt>
      <trkpt lat="42.81501" lon="-0.22076">
        <ele>2396</ele>
        <time>2016-03-27T08:44:25Z</time>
      </trkpt>
      <trkpt lat="42.81503" lon="-0.22083">
        <ele>2398</ele>
        <time>2016-03-27T08:44:41Z</time>
      </trkpt>
      <trkpt lat="42.81499" lon="-0.22088">
        <ele>2399</ele>
        <time>2016-03-27T08:44:57Z</time>
      </trkpt>
      <trkpt lat="42.815" lon="-0.22094">
        <ele>2402</ele>
        <time>2016-03-27T08:45:10Z</time>
      </trkpt>
      <trkpt lat="42.81502" lon="-0.22102">
        <ele>2407</ele>
        <time>2016-03-27T08:45:27Z</time>
      </trkpt>
      <trkpt lat="42.81503" lon="-0.22107">
        <ele>2410</ele>
        <time>2016-03-27T08:45:42Z</time>
      </trkpt>
      <trkpt lat="42.81502" lon="-0.22113">
        <ele>2413</ele>
        <time>2016-03-27T08:45:56Z</time>
      </trkpt>
      <trkpt lat="42.81503" lon="-0.22121">
        <ele>2417</ele>
        <time>2016-03-27T08:46:12Z</time>
      </trkpt>
      <trkpt lat="42.81503" lon="-0.22128">
        <ele>2421</ele>
        <time>2016-03-27T08:46:27Z</time>
      </trkpt>
      <trkpt lat="42.815" lon="-0.22135">
        <ele>2423</ele>
        <time>2016-03-27T08:46:41Z</time>
      </trkpt>
      <trkpt lat="42.81498" lon="-0.2214">
        <ele>2425</ele>
        <time>2016-03-27T08:46:56Z</time>
      </trkpt>
      <trkpt lat="42.81497" lon="-0.22149">
        <ele>2428</ele>
        <time>2016-03-27T08:47:13Z</time>
      </trkpt>
      <trkpt lat="42.81495" lon="-0.22155">
        <ele>2431</ele>
        <time>2016-03-27T08:47:29Z</time>
      </trkpt>
      <trkpt lat="42.81491" lon="-0.2216">
        <ele>2432</ele>
        <time>2016-03-27T08:47:45Z</time>
      </trkpt>
      <trkpt lat="42.8149" lon="-0.22169">
        <ele>2436</ele>
        <time>2016-03-27T08:48:02Z</time>
      </trkpt>
      <trkpt lat="42.81488" lon="-0.22173">
        <ele>2437</ele>
        <time>2016-03-27T08:48:15Z</time>
      </trkpt>
      <trkpt lat="42.81488" lon="-0.22175">
        <ele>2438</ele>
        <time>2016-03-27T08:48:19Z</time>
      </trkpt>
      <trkpt lat="42.81487" lon="-0.22179">
        <ele>2440</ele>
        <time>2016-03-27T08:48:31Z</time>
      </trkpt>
      <trkpt lat="42.81486" lon="-0.22185">
        <ele>2442</ele>
        <time>2016-03-27T08:48:45Z</time>
      </trkpt>
      <trkpt lat="42.81485" lon="-0.22191">
        <ele>2445</ele>
        <time>2016-03-27T08:49:00Z</time>
      </trkpt>
      <trkpt lat="42.81483" lon="-0.22197">
        <ele>2447</ele>
        <time>2016-03-27T08:49:15Z</time>
      </trkpt>
      <trkpt lat="42.81482" lon="-0.22205">
        <ele>2450</ele>
        <time>2016-03-27T08:49:28Z</time>
      </trkpt>
      <trkpt lat="42.81478" lon="-0.22212">
        <ele>2452</ele>
        <time>2016-03-27T08:49:42Z</time>
      </trkpt>
      <trkpt lat="42.81476" lon="-0.22218">
        <ele>2454</ele>
        <time>2016-03-27T08:49:59Z</time>
      </trkpt>
      <trkpt lat="42.81475" lon="-0.22225">
        <ele>2456</ele>
        <time>2016-03-27T08:50:13Z</time>
      </trkpt>
      <trkpt lat="42.81475" lon="-0.22234">
        <ele>2461</ele>
        <time>2016-03-27T08:50:27Z</time>
      </trkpt>
      <trkpt lat="42.81479" lon="-0.22243">
        <ele>2467</ele>
        <time>2016-03-27T08:50:42Z</time>
      </trkpt>
      <trkpt lat="42.81484" lon="-0.22242">
        <ele>2469</ele>
        <time>2016-03-27T08:50:52Z</time>
      </trkpt>
      <trkpt lat="42.81485" lon="-0.22242">
        <ele>2469</ele>
        <time>2016-03-27T08:50:54Z</time>
      </trkpt>
      <trkpt lat="42.8149" lon="-0.22239">
        <ele>2470</ele>
        <time>2016-03-27T08:51:09Z</time>
      </trkpt>
      <trkpt lat="42.81494" lon="-0.22236">
        <ele>2470</ele>
        <time>2016-03-27T08:51:24Z</time>
      </trkpt>
      <trkpt lat="42.81497" lon="-0.22236">
        <ele>2472</ele>
        <time>2016-03-27T08:51:37Z</time>
      </trkpt>
      <trkpt lat="42.81496" lon="-0.22245">
        <ele>2476</ele>
        <time>2016-03-27T08:51:51Z</time>
      </trkpt>
      <trkpt lat="42.81495" lon="-0.22251">
        <ele>2478</ele>
        <time>2016-03-27T08:52:03Z</time>
      </trkpt>
      <trkpt lat="42.81492" lon="-0.22257">
        <ele>2478</ele>
        <time>2016-03-27T08:52:16Z</time>
      </trkpt>
      <trkpt lat="42.81488" lon="-0.22262">
        <ele>2479</ele>
        <time>2016-03-27T08:52:29Z</time>
      </trkpt>
      <trkpt lat="42.8148" lon="-0.22268">
        <ele>2476</ele>
        <time>2016-03-27T08:52:44Z</time>
      </trkpt>
      <trkpt lat="42.81475" lon="-0.22272">
        <ele>2475</ele>
        <time>2016-03-27T08:52:58Z</time>
      </trkpt>
      <trkpt lat="42.81471" lon="-0.22275">
        <ele>2474</ele>
        <time>2016-03-27T08:53:14Z</time>
      </trkpt>
      <trkpt lat="42.81469" lon="-0.22282">
        <ele>2475</ele>
        <time>2016-03-27T08:53:28Z</time>
      </trkpt>
      <trkpt lat="42.81469" lon="-0.22293">
        <ele>2479</ele>
        <time>2016-03-27T08:53:44Z</time>
      </trkpt>
      <trkpt lat="42.81468" lon="-0.223">
        <ele>2481</ele>
        <time>2016-03-27T08:53:57Z</time>
      </trkpt>
      <trkpt lat="42.81468" lon="-0.22313">
        <ele>2485</ele>
        <time>2016-03-27T08:54:13Z</time>
      </trkpt>
      <trkpt lat="42.81466" lon="-0.22324">
        <ele>2487</ele>
        <time>2016-03-27T08:54:28Z</time>
      </trkpt>
      <trkpt lat="42.81467" lon="-0.22338">
        <ele>2492</ele>
        <time>2016-03-27T08:54:43Z</time>
      </trkpt>
      <trkpt lat="42.8147" lon="-0.22347">
        <ele>2497</ele>
        <time>2016-03-27T08:54:57Z</time>
      </trkpt>
      <trkpt lat="42.8147" lon="-0.22345">
        <ele>2497</ele>
        <time>2016-03-27T08:55:22Z</time>
      </trkpt>
      <trkpt lat="42.81464" lon="-0.22354">
        <ele>2496</ele>
        <time>2016-03-27T08:55:44Z</time>
      </trkpt>
      <trkpt lat="42.81461" lon="-0.2236">
        <ele>2497</ele>
        <time>2016-03-27T08:56:00Z</time>
      </trkpt>
      <trkpt lat="42.81461" lon="-0.2236">
        <ele>2496</ele>
        <time>2016-03-27T08:56:25Z</time>
      </trkpt>
      <trkpt lat="42.81461" lon="-0.22361">
        <ele>2497</ele>
        <time>2016-03-27T08:56:43Z</time>
      </trkpt>
      <trkpt lat="42.81462" lon="-0.22359">
        <ele>2497</ele>
        <time>2016-03-27T08:57:11Z</time>
      </trkpt>
      <trkpt lat="42.81462" lon="-0.2236">
        <ele>2497</ele>
        <time>2016-03-27T08:57:28Z</time>
      </trkpt>
      <trkpt lat="42.81462" lon="-0.22358">
        <ele>2496</ele>
        <time>2016-03-27T08:57:59Z</time>
      </trkpt>
      <trkpt lat="42.81462" lon="-0.2236">
        <ele>2497</ele>
        <time>2016-03-27T08:58:27Z</time>
      </trkpt>
      <trkpt lat="42.81463" lon="-0.22358">
        <ele>2497</ele>
        <time>2016-03-27T08:59:05Z</time>
      </trkpt>
      <trkpt lat="42.81462" lon="-0.2236">
        <ele>2497</ele>
        <time>2016-03-27T08:59:32Z</time>
      </trkpt>
      <trkpt lat="42.81462" lon="-0.22359">
        <ele>2496</ele>
        <time>2016-03-27T08:59:57Z</time>
      </trkpt>
      <trkpt lat="42.81463" lon="-0.2236">
        <ele>2497</ele>
        <time>2016-03-27T09:00:20Z</time>
      </trkpt>
      <trkpt lat="42.81462" lon="-0.22358">
        <ele>2496</ele>
        <time>2016-03-27T09:00:42Z</time>
      </trkpt>
      <trkpt lat="42.81457" lon="-0.22366">
        <ele>2495</ele>
        <time>2016-03-27T09:00:57Z</time>
      </trkpt>
      <trkpt lat="42.81452" lon="-0.22372">
        <ele>2494</ele>
        <time>2016-03-27T09:01:09Z</time>
      </trkpt>
      <trkpt lat="42.81443" lon="-0.22378">
        <ele>2490</ele>
        <time>2016-03-27T09:01:23Z</time>
      </trkpt>
      <trkpt lat="42.81434" lon="-0.22388">
        <ele>2487</ele>
        <time>2016-03-27T09:01:40Z</time>
      </trkpt>
      <trkpt lat="42.81428" lon="-0.22399">
        <ele>2485</ele>
        <time>2016-03-27T09:01:55Z</time>
      </trkpt>
      <trkpt lat="42.81426" lon="-0.22406">
        <ele>2487</ele>
        <time>2016-03-27T09:02:01Z</time>
      </trkpt>
      <trkpt lat="42.8142" lon="-0.22425">
        <ele>2486</ele>
        <time>2016-03-27T09:02:18Z</time>
      </trkpt>
      <trkpt lat="42.81415" lon="-0.22442">
        <ele>2486</ele>
        <time>2016-03-27T09:02:35Z</time>
      </trkpt>
      <trkpt lat="42.81408" lon="-0.22454">
        <ele>2485</ele>
        <time>2016-03-27T09:02:50Z</time>
      </trkpt>
      <trkpt lat="42.81396" lon="-0.22458">
        <ele>2481</ele>
        <time>2016-03-27T09:03:08Z</time>
      </trkpt>
      <trkpt lat="42.81386" lon="-0.2246">
        <ele>2477</ele>
        <time>2016-03-27T09:03:28Z</time>
      </trkpt>
      <trkpt lat="42.8138" lon="-0.22468">
        <ele>2476</ele>
        <time>2016-03-27T09:03:44Z</time>
      </trkpt>
      <trkpt lat="42.81374" lon="-0.2248">
        <ele>2476</ele>
        <time>2016-03-27T09:04:00Z</time>
      </trkpt>
      <trkpt lat="42.81369" lon="-0.22494">
        <ele>2477</ele>
        <time>2016-03-27T09:04:15Z</time>
      </trkpt>
      <trkpt lat="42.81363" lon="-0.22507">
        <ele>2478</ele>
        <time>2016-03-27T09:04:27Z</time>
      </trkpt>
      <trkpt lat="42.81357" lon="-0.22519">
        <ele>2480</ele>
        <time>2016-03-27T09:04:42Z</time>
      </trkpt>
      <trkpt lat="42.8135" lon="-0.22528">
        <ele>2480</ele>
        <time>2016-03-27T09:04:59Z</time>
      </trkpt>
      <trkpt lat="42.81345" lon="-0.22536">
        <ele>2481</ele>
        <time>2016-03-27T09:05:20Z</time>
      </trkpt>
      <trkpt lat="42.8134" lon="-0.22543">
        <ele>2481</ele>
        <time>2016-03-27T09:05:36Z</time>
      </trkpt>
      <trkpt lat="42.81335" lon="-0.22554">
        <ele>2482</ele>
        <time>2016-03-27T09:05:51Z</time>
      </trkpt>
      <trkpt lat="42.81329" lon="-0.22566">
        <ele>2484</ele>
        <time>2016-03-27T09:06:07Z</time>
      </trkpt>
      <trkpt lat="42.81324" lon="-0.22572">
        <ele>2485</ele>
        <time>2016-03-27T09:06:19Z</time>
      </trkpt>
      <trkpt lat="42.81321" lon="-0.22576">
        <ele>2486</ele>
        <time>2016-03-27T09:06:35Z</time>
      </trkpt>
      <trkpt lat="42.81314" lon="-0.22588">
        <ele>2487</ele>
        <time>2016-03-27T09:06:51Z</time>
      </trkpt>
      <trkpt lat="42.81309" lon="-0.226">
        <ele>2488</ele>
        <time>2016-03-27T09:07:07Z</time>
      </trkpt>
      <trkpt lat="42.81305" lon="-0.22611">
        <ele>2488</ele>
        <time>2016-03-27T09:07:22Z</time>
      </trkpt>
      <trkpt lat="42.81305" lon="-0.2262">
        <ele>2490</ele>
        <time>2016-03-27T09:07:40Z</time>
      </trkpt>
      <trkpt lat="42.81304" lon="-0.22636">
        <ele>2492</ele>
        <time>2016-03-27T09:07:56Z</time>
      </trkpt>
      <trkpt lat="42.81305" lon="-0.22651">
        <ele>2495</ele>
        <time>2016-03-27T09:08:11Z</time>
      </trkpt>
      <trkpt lat="42.81306" lon="-0.22656">
        <ele>2496</ele>
        <time>2016-03-27T09:08:17Z</time>
      </trkpt>
      <trkpt lat="42.81307" lon="-0.22669">
        <ele>2498</ele>
        <time>2016-03-27T09:08:32Z</time>
      </trkpt>
      <trkpt lat="42.81309" lon="-0.22684">
        <ele>2499</ele>
        <time>2016-03-27T09:08:47Z</time>
      </trkpt>
      <trkpt lat="42.81315" lon="-0.22697">
        <ele>2502</ele>
        <time>2016-03-27T09:09:02Z</time>
      </trkpt>
      <trkpt lat="42.81315" lon="-0.22698">
        <ele>2502</ele>
        <time>2016-03-27T09:09:03Z</time>
      </trkpt>
      <trkpt lat="42.81318" lon="-0.22715">
        <ele>2504</ele>
        <time>2016-03-27T09:09:17Z</time>
      </trkpt>
      <trkpt lat="42.8132" lon="-0.22735">
        <ele>2506</ele>
        <time>2016-03-27T09:09:38Z</time>
      </trkpt>
      <trkpt lat="42.81323" lon="-0.22747">
        <ele>2507</ele>
        <time>2016-03-27T09:09:52Z</time>
      </trkpt>
      <trkpt lat="42.81324" lon="-0.22758">
        <ele>2509</ele>
        <time>2016-03-27T09:10:05Z</time>
      </trkpt>
      <trkpt lat="42.81327" lon="-0.22756">
        <ele>2510</ele>
        <time>2016-03-27T09:10:16Z</time>
      </trkpt>
      <trkpt lat="42.81331" lon="-0.22761">
        <ele>2513</ele>
        <time>2016-03-27T09:10:39Z</time>
      </trkpt>
      <trkpt lat="42.81337" lon="-0.22772">
        <ele>2517</ele>
        <time>2016-03-27T09:10:49Z</time>
      </trkpt>
      <trkpt lat="42.8134" lon="-0.22785">
        <ele>2521</ele>
        <time>2016-03-27T09:10:57Z</time>
      </trkpt>
      <trkpt lat="42.81342" lon="-0.22792">
        <ele>2523</ele>
        <time>2016-03-27T09:11:01Z</time>
      </trkpt>
      <trkpt lat="42.81349" lon="-0.22814">
        <ele>2530</ele>
        <time>2016-03-27T09:11:15Z</time>
      </trkpt>
      <trkpt lat="42.8135" lon="-0.22834">
        <ele>2532</ele>
        <time>2016-03-27T09:11:29Z</time>
      </trkpt>
      <trkpt lat="42.81348" lon="-0.22838">
        <ele>2531</ele>
        <time>2016-03-27T09:11:48Z</time>
      </trkpt>
      <trkpt lat="42.81346" lon="-0.22855">
        <ele>2532</ele>
        <time>2016-03-27T09:12:03Z</time>
      </trkpt>
      <trkpt lat="42.81342" lon="-0.2287">
        <ele>2532</ele>
        <time>2016-03-27T09:12:18Z</time>
      </trkpt>
      <trkpt lat="42.81339" lon="-0.22881">
        <ele>2531</ele>
        <time>2016-03-27T09:12:31Z</time>
      </trkpt>
      <trkpt lat="42.81338" lon="-0.22893">
        <ele>2532</ele>
        <time>2016-03-27T09:12:44Z</time>
      </trkpt>
      <trkpt lat="42.81336" lon="-0.22911">
        <ele>2534</ele>
        <time>2016-03-27T09:13:00Z</time>
      </trkpt>
      <trkpt lat="42.81332" lon="-0.2293">
        <ele>2538</ele>
        <time>2016-03-27T09:13:15Z</time>
      </trkpt>
      <trkpt lat="42.81325" lon="-0.22951">
        <ele>2543</ele>
        <time>2016-03-27T09:13:31Z</time>
      </trkpt>
      <trkpt lat="42.8132" lon="-0.22961">
        <ele>2544</ele>
        <time>2016-03-27T09:13:41Z</time>
      </trkpt>
      <trkpt lat="42.81313" lon="-0.22972">
        <ele>2545</ele>
        <time>2016-03-27T09:13:56Z</time>
      </trkpt>
      <trkpt lat="42.81307" lon="-0.22986">
        <ele>2547</ele>
        <time>2016-03-27T09:14:11Z</time>
      </trkpt>
      <trkpt lat="42.81299" lon="-0.22999">
        <ele>2547</ele>
        <time>2016-03-27T09:14:25Z</time>
      </trkpt>
      <trkpt lat="42.81293" lon="-0.23003">
        <ele>2545</ele>
        <time>2016-03-27T09:14:39Z</time>
      </trkpt>
      <trkpt lat="42.81294" lon="-0.23008">
        <ele>2547</ele>
        <time>2016-03-27T09:14:53Z</time>
      </trkpt>
      <trkpt lat="42.81298" lon="-0.23012">
        <ele>2551</ele>
        <time>2016-03-27T09:15:12Z</time>
      </trkpt>
      <trkpt lat="42.81294" lon="-0.23017">
        <ele>2551</ele>
        <time>2016-03-27T09:15:26Z</time>
      </trkpt>
      <trkpt lat="42.81291" lon="-0.23023">
        <ele>2550</ele>
        <time>2016-03-27T09:15:42Z</time>
      </trkpt>
      <trkpt lat="42.81295" lon="-0.23032">
        <ele>2556</ele>
        <time>2016-03-27T09:16:00Z</time>
      </trkpt>
      <trkpt lat="42.81286" lon="-0.2303">
        <ele>2551</ele>
        <time>2016-03-27T09:16:15Z</time>
      </trkpt>
      <trkpt lat="42.81279" lon="-0.23026">
        <ele>2544</ele>
        <time>2016-03-27T09:16:31Z</time>
      </trkpt>
      <trkpt lat="42.81274" lon="-0.23026">
        <ele>2541</ele>
        <time>2016-03-27T09:16:46Z</time>
      </trkpt>
      <trkpt lat="42.81267" lon="-0.23035">
        <ele>2540</ele>
        <time>2016-03-27T09:17:01Z</time>
      </trkpt>
      <trkpt lat="42.81262" lon="-0.23046">
        <ele>2541</ele>
        <time>2016-03-27T09:17:15Z</time>
      </trkpt>
      <trkpt lat="42.81263" lon="-0.23056">
        <ele>2545</ele>
        <time>2016-03-27T09:17:29Z</time>
      </trkpt>
      <trkpt lat="42.8126" lon="-0.23065">
        <ele>2547</ele>
        <time>2016-03-27T09:17:41Z</time>
      </trkpt>
      <trkpt lat="42.81258" lon="-0.23077">
        <ele>2551</ele>
        <time>2016-03-27T09:17:54Z</time>
      </trkpt>
      <trkpt lat="42.81256" lon="-0.23088">
        <ele>2552</ele>
        <time>2016-03-27T09:18:09Z</time>
      </trkpt>
      <trkpt lat="42.81252" lon="-0.231">
        <ele>2552</ele>
        <time>2016-03-27T09:18:24Z</time>
      </trkpt>
      <trkpt lat="42.81247" lon="-0.23113">
        <ele>2551</ele>
        <time>2016-03-27T09:18:40Z</time>
      </trkpt>
      <trkpt lat="42.81247" lon="-0.23123">
        <ele>2554</ele>
        <time>2016-03-27T09:18:56Z</time>
      </trkpt>
      <trkpt lat="42.81255" lon="-0.23131">
        <ele>2560</ele>
        <time>2016-03-27T09:19:13Z</time>
      </trkpt>
      <trkpt lat="42.81262" lon="-0.23138">
        <ele>2566</ele>
        <time>2016-03-27T09:19:27Z</time>
      </trkpt>
      <trkpt lat="42.81267" lon="-0.23146">
        <ele>2572</ele>
        <time>2016-03-27T09:19:44Z</time>
      </trkpt>
      <trkpt lat="42.81265" lon="-0.23151">
        <ele>2572</ele>
        <time>2016-03-27T09:19:58Z</time>
      </trkpt>
      <trkpt lat="42.81263" lon="-0.2315">
        <ele>2570</ele>
        <time>2016-03-27T09:20:17Z</time>
      </trkpt>
      <trkpt lat="42.81253" lon="-0.23156">
        <ele>2564</ele>
        <time>2016-03-27T09:20:34Z</time>
      </trkpt>
      <trkpt lat="42.81248" lon="-0.23166">
        <ele>2562</ele>
        <time>2016-03-27T09:20:51Z</time>
      </trkpt>
      <trkpt lat="42.81246" lon="-0.23177">
        <ele>2562</ele>
        <time>2016-03-27T09:21:06Z</time>
      </trkpt>
      <trkpt lat="42.81244" lon="-0.23187">
        <ele>2563</ele>
        <time>2016-03-27T09:21:21Z</time>
      </trkpt>
      <trkpt lat="42.81244" lon="-0.23195">
        <ele>2564</ele>
        <time>2016-03-27T09:21:36Z</time>
      </trkpt>
      <trkpt lat="42.81248" lon="-0.232">
        <ele>2567</ele>
        <time>2016-03-27T09:21:49Z</time>
      </trkpt>
      <trkpt lat="42.81256" lon="-0.23205">
        <ele>2574</ele>
        <time>2016-03-27T09:22:06Z</time>
      </trkpt>
      <trkpt lat="42.81257" lon="-0.23215">
        <ele>2576</ele>
        <time>2016-03-27T09:22:20Z</time>
      </trkpt>
      <trkpt lat="42.8125" lon="-0.23228">
        <ele>2572</ele>
        <time>2016-03-27T09:22:38Z</time>
      </trkpt>
      <trkpt lat="42.81244" lon="-0.23241">
        <ele>2572</ele>
        <time>2016-03-27T09:22:54Z</time>
      </trkpt>
      <trkpt lat="42.81239" lon="-0.23255">
        <ele>2573</ele>
        <time>2016-03-27T09:23:13Z</time>
      </trkpt>
      <trkpt lat="42.81238" lon="-0.23262">
        <ele>2574</ele>
        <time>2016-03-27T09:23:29Z</time>
      </trkpt>
      <trkpt lat="42.81246" lon="-0.23264">
        <ele>2579</ele>
        <time>2016-03-27T09:23:44Z</time>
      </trkpt>
      <trkpt lat="42.81253" lon="-0.23267">
        <ele>2584</ele>
        <time>2016-03-27T09:24:04Z</time>
      </trkpt>
      <trkpt lat="42.8126" lon="-0.23262">
        <ele>2588</ele>
        <time>2016-03-27T09:24:19Z</time>
      </trkpt>
      <trkpt lat="42.81255" lon="-0.2327">
        <ele>2587</ele>
        <time>2016-03-27T09:24:35Z</time>
      </trkpt>
      <trkpt lat="42.81251" lon="-0.23284">
        <ele>2589</ele>
        <time>2016-03-27T09:24:52Z</time>
      </trkpt>
      <trkpt lat="42.81246" lon="-0.23298">
        <ele>2591</ele>
        <time>2016-03-27T09:25:07Z</time>
      </trkpt>
      <trkpt lat="42.81246" lon="-0.2331">
        <ele>2595</ele>
        <time>2016-03-27T09:25:22Z</time>
      </trkpt>
      <trkpt lat="42.81248" lon="-0.23318">
        <ele>2600</ele>
        <time>2016-03-27T09:25:37Z</time>
      </trkpt>
      <trkpt lat="42.8125" lon="-0.2333">
        <ele>2605</ele>
        <time>2016-03-27T09:25:53Z</time>
      </trkpt>
      <trkpt lat="42.81253" lon="-0.23339">
        <ele>2608</ele>
        <time>2016-03-27T09:26:09Z</time>
      </trkpt>
      <trkpt lat="42.81254" lon="-0.23346">
        <ele>2609</ele>
        <time>2016-03-27T09:26:24Z</time>
      </trkpt>
      <trkpt lat="42.81246" lon="-0.23354">
        <ele>2604</ele>
        <time>2016-03-27T09:26:41Z</time>
      </trkpt>
      <trkpt lat="42.81241" lon="-0.23362">
        <ele>2602</ele>
        <time>2016-03-27T09:26:55Z</time>
      </trkpt>
      <trkpt lat="42.81246" lon="-0.23369">
        <ele>2605</ele>
        <time>2016-03-27T09:27:11Z</time>
      </trkpt>
      <trkpt lat="42.81253" lon="-0.23375">
        <ele>2609</ele>
        <time>2016-03-27T09:27:25Z</time>
      </trkpt>
      <trkpt lat="42.81245" lon="-0.23379">
        <ele>2605</ele>
        <time>2016-03-27T09:27:40Z</time>
      </trkpt>
      <trkpt lat="42.8124" lon="-0.23381">
        <ele>2602</ele>
        <time>2016-03-27T09:27:53Z</time>
      </trkpt>
      <trkpt lat="42.81239" lon="-0.23389">
        <ele>2602</ele>
        <time>2016-03-27T09:28:08Z</time>
      </trkpt>
      <trkpt lat="42.81244" lon="-0.23391">
        <ele>2605</ele>
        <time>2016-03-27T09:28:28Z</time>
      </trkpt>
      <trkpt lat="42.81245" lon="-0.23395">
        <ele>2605</ele>
        <time>2016-03-27T09:28:45Z</time>
      </trkpt>
      <trkpt lat="42.81246" lon="-0.23399">
        <ele>2606</ele>
        <time>2016-03-27T09:28:56Z</time>
      </trkpt>
      <trkpt lat="42.81241" lon="-0.23402">
        <ele>2604</ele>
        <time>2016-03-27T09:29:09Z</time>
      </trkpt>
      <trkpt lat="42.81238" lon="-0.23409">
        <ele>2602</ele>
        <time>2016-03-27T09:29:23Z</time>
      </trkpt>
      <trkpt lat="42.81237" lon="-0.23411">
        <ele>2602</ele>
        <time>2016-03-27T09:29:42Z</time>
      </trkpt>
      <trkpt lat="42.81239" lon="-0.23408">
        <ele>2603</ele>
        <time>2016-03-27T09:30:28Z</time>
      </trkpt>
      <trkpt lat="42.81239" lon="-0.23408">
        <ele>2603</ele>
        <time>2016-03-27T09:31:07Z</time>
      </trkpt>
      <trkpt lat="42.81239" lon="-0.23408">
        <ele>2603</ele>
        <time>2016-03-27T09:31:43Z</time>
      </trkpt>
      <trkpt lat="42.81237" lon="-0.2341">
        <ele>2602</ele>
        <time>2016-03-27T09:32:23Z</time>
      </trkpt>
      <trkpt lat="42.81238" lon="-0.23407">
        <ele>2602</ele>
        <time>2016-03-27T09:33:01Z</time>
      </trkpt>
      <trkpt lat="42.81238" lon="-0.23407">
        <ele>2602</ele>
        <time>2016-03-27T09:33:02Z</time>
      </trkpt>
      <trkpt lat="42.81237" lon="-0.23409">
        <ele>2602</ele>
        <time>2016-03-27T09:33:44Z</time>
      </trkpt>
      <trkpt lat="42.81237" lon="-0.23405">
        <ele>2602</ele>
        <time>2016-03-27T09:34:33Z</time>
      </trkpt>
      <trkpt lat="42.81239" lon="-0.23405">
        <ele>2603</ele>
        <time>2016-03-27T09:35:08Z</time>
      </trkpt>
      <trkpt lat="42.81237" lon="-0.23406">
        <ele>2602</ele>
        <time>2016-03-27T09:35:56Z</time>
      </trkpt>
      <trkpt lat="42.81237" lon="-0.23407">
        <ele>2602</ele>
        <time>2016-03-27T09:36:39Z</time>
      </trkpt>
      <trkpt lat="42.81237" lon="-0.23405">
        <ele>2602</ele>
        <time>2016-03-27T09:37:00Z</time>
      </trkpt>
      <trkpt lat="42.81237" lon="-0.23405">
        <ele>2602</ele>
        <time>2016-03-27T09:37:01Z</time>
      </trkpt>
      <trkpt lat="42.81237" lon="-0.23406">
        <ele>2602</ele>
        <time>2016-03-27T09:37:02Z</time>
      </trkpt>
      <trkpt lat="42.81237" lon="-0.23407">
        <ele>2602</ele>
        <time>2016-03-27T09:37:26Z</time>
      </trkpt>
      <trkpt lat="42.81237" lon="-0.23404">
        <ele>2602</ele>
        <time>2016-03-27T09:38:09Z</time>
      </trkpt>
      <trkpt lat="42.81237" lon="-0.23406">
        <ele>2602</ele>
        <time>2016-03-27T09:38:59Z</time>
      </trkpt>
      <trkpt lat="42.81237" lon="-0.23406">
        <ele>2602</ele>
        <time>2016-03-27T09:39:05Z</time>
      </trkpt>
      <trkpt lat="42.81237" lon="-0.23409">
        <ele>2602</ele>
        <time>2016-03-27T09:39:20Z</time>
      </trkpt>
      <trkpt lat="42.81237" lon="-0.2341">
        <ele>2602</ele>
        <time>2016-03-27T09:39:42Z</time>
      </trkpt>
      <trkpt lat="42.81236" lon="-0.23417">
        <ele>2602</ele>
        <time>2016-03-27T09:40:04Z</time>
      </trkpt>
      <trkpt lat="42.81235" lon="-0.23432">
        <ele>2602</ele>
        <time>2016-03-27T09:40:20Z</time>
      </trkpt>
      <trkpt lat="42.81236" lon="-0.23445">
        <ele>2603</ele>
        <time>2016-03-27T09:40:36Z</time>
      </trkpt>
      <trkpt lat="42.81236" lon="-0.23458">
        <ele>2603</ele>
        <time>2016-03-27T09:40:49Z</time>
      </trkpt>
      <trkpt lat="42.81236" lon="-0.2347">
        <ele>2604</ele>
        <time>2016-03-27T09:41:04Z</time>
      </trkpt>
      <trkpt lat="42.81237" lon="-0.23482">
        <ele>2605</ele>
        <time>2016-03-27T09:41:20Z</time>
      </trkpt>
      <trkpt lat="42.8124" lon="-0.23491">
        <ele>2606</ele>
        <time>2016-03-27T09:41:30Z</time>
      </trkpt>
      <trkpt lat="42.81241" lon="-0.23503">
        <ele>2608</ele>
        <time>2016-03-27T09:41:42Z</time>
      </trkpt>
      <trkpt lat="42.81238" lon="-0.23515">
        <ele>2609</ele>
        <time>2016-03-27T09:41:57Z</time>
      </trkpt>
      <trkpt lat="42.81235" lon="-0.23523">
        <ele>2609</ele>
        <time>2016-03-27T09:42:10Z</time>
      </trkpt>
      <trkpt lat="42.81234" lon="-0.23535">
        <ele>2611</ele>
        <time>2016-03-27T09:42:23Z</time>
      </trkpt>
      <trkpt lat="42.81234" lon="-0.23547">
        <ele>2613</ele>
        <time>2016-03-27T09:42:37Z</time>
      </trkpt>
      <trkpt lat="42.81233" lon="-0.23563">
        <ele>2615</ele>
        <time>2016-03-27T09:42:51Z</time>
      </trkpt>
      <trkpt lat="42.81231" lon="-0.23578">
        <ele>2617</ele>
        <time>2016-03-27T09:43:07Z</time>
      </trkpt>
      <trkpt lat="42.81234" lon="-0.23587">
        <ele>2620</ele>
        <time>2016-03-27T09:43:20Z</time>
      </trkpt>
      <trkpt lat="42.81236" lon="-0.236">
        <ele>2623</ele>
        <time>2016-03-27T09:43:37Z</time>
      </trkpt>
      <trkpt lat="42.81232" lon="-0.23606">
        <ele>2622</ele>
        <time>2016-03-27T09:43:50Z</time>
      </trkpt>
      <trkpt lat="42.81229" lon="-0.23615">
        <ele>2622</ele>
        <time>2016-03-27T09:44:02Z</time>
      </trkpt>
      <trkpt lat="42.81234" lon="-0.23626">
        <ele>2626</ele>
        <time>2016-03-27T09:44:18Z</time>
      </trkpt>
      <trkpt lat="42.81234" lon="-0.23633">
        <ele>2628</ele>
        <time>2016-03-27T09:44:32Z</time>
      </trkpt>
      <trkpt lat="42.81228" lon="-0.2364">
        <ele>2626</ele>
        <time>2016-03-27T09:44:45Z</time>
      </trkpt>
      <trkpt lat="42.81226" lon="-0.23656">
        <ele>2628</ele>
        <time>2016-03-27T09:45:02Z</time>
      </trkpt>
      <trkpt lat="42.8123" lon="-0.23669">
        <ele>2632</ele>
        <time>2016-03-27T09:45:17Z</time>
      </trkpt>
      <trkpt lat="42.81234" lon="-0.23678">
        <ele>2635</ele>
        <time>2016-03-27T09:45:32Z</time>
      </trkpt>
      <trkpt lat="42.81242" lon="-0.23684">
        <ele>2640</ele>
        <time>2016-03-27T09:45:48Z</time>
      </trkpt>
      <trkpt lat="42.81248" lon="-0.23689">
        <ele>2643</ele>
        <time>2016-03-27T09:46:04Z</time>
      </trkpt>
      <trkpt lat="42.81245" lon="-0.23699">
        <ele>2643</ele>
        <time>2016-03-27T09:46:19Z</time>
      </trkpt>
      <trkpt lat="42.81246" lon="-0.23709">
        <ele>2645</ele>
        <time>2016-03-27T09:46:34Z</time>
      </trkpt>
      <trkpt lat="42.81253" lon="-0.23715">
        <ele>2649</ele>
        <time>2016-03-27T09:46:49Z</time>
      </trkpt>
      <trkpt lat="42.81259" lon="-0.23722">
        <ele>2653</ele>
        <time>2016-03-27T09:47:06Z</time>
      </trkpt>
      <trkpt lat="42.81258" lon="-0.23733">
        <ele>2654</ele>
        <time>2016-03-27T09:47:21Z</time>
      </trkpt>
      <trkpt lat="42.8125" lon="-0.23741">
        <ele>2651</ele>
        <time>2016-03-27T09:47:38Z</time>
      </trkpt>
      <trkpt lat="42.8125" lon="-0.23749">
        <ele>2652</ele>
        <time>2016-03-27T09:47:53Z</time>
      </trkpt>
      <trkpt lat="42.81252" lon="-0.23757">
        <ele>2654</ele>
        <time>2016-03-27T09:48:08Z</time>
      </trkpt>
      <trkpt lat="42.81259" lon="-0.23757">
        <ele>2657</ele>
        <time>2016-03-27T09:48:27Z</time>
      </trkpt>
      <trkpt lat="42.81266" lon="-0.23757">
        <ele>2661</ele>
        <time>2016-03-27T09:48:43Z</time>
      </trkpt>
      <trkpt lat="42.81275" lon="-0.23757">
        <ele>2665</ele>
        <time>2016-03-27T09:48:56Z</time>
      </trkpt>
      <trkpt lat="42.81282" lon="-0.23756">
        <ele>2668</ele>
        <time>2016-03-27T09:49:11Z</time>
      </trkpt>
      <trkpt lat="42.81281" lon="-0.23768">
        <ele>2668</ele>
        <time>2016-03-27T09:49:28Z</time>
      </trkpt>
      <trkpt lat="42.81276" lon="-0.23779">
        <ele>2667</ele>
        <time>2016-03-27T09:49:44Z</time>
      </trkpt>
      <trkpt lat="42.8127" lon="-0.23784">
        <ele>2664</ele>
        <time>2016-03-27T09:49:59Z</time>
      </trkpt>
      <trkpt lat="42.81265" lon="-0.23791">
        <ele>2663</ele>
        <time>2016-03-27T09:50:11Z</time>
      </trkpt>
      <trkpt lat="42.81268" lon="-0.23795">
        <ele>2664</ele>
        <time>2016-03-27T09:50:24Z</time>
      </trkpt>
      <trkpt lat="42.81273" lon="-0.238">
        <ele>2667</ele>
        <time>2016-03-27T09:50:39Z</time>
      </trkpt>
      <trkpt lat="42.81281" lon="-0.23805">
        <ele>2671</ele>
        <time>2016-03-27T09:50:56Z</time>
      </trkpt>
      <trkpt lat="42.81291" lon="-0.23807">
        <ele>2675</ele>
        <time>2016-03-27T09:51:12Z</time>
      </trkpt>
      <trkpt lat="42.81298" lon="-0.23807">
        <ele>2679</ele>
        <time>2016-03-27T09:51:28Z</time>
      </trkpt>
      <trkpt lat="42.81305" lon="-0.23806">
        <ele>2682</ele>
        <time>2016-03-27T09:51:42Z</time>
      </trkpt>
      <trkpt lat="42.81304" lon="-0.23816">
        <ele>2681</ele>
        <time>2016-03-27T09:51:55Z</time>
      </trkpt>
      <trkpt lat="42.81299" lon="-0.2383">
        <ele>2680</ele>
        <time>2016-03-27T09:52:10Z</time>
      </trkpt>
      <trkpt lat="42.81291" lon="-0.23845">
        <ele>2677</ele>
        <time>2016-03-27T09:52:29Z</time>
      </trkpt>
      <trkpt lat="42.81299" lon="-0.23842">
        <ele>2680</ele>
        <time>2016-03-27T09:52:43Z</time>
      </trkpt>
      <trkpt lat="42.81308" lon="-0.23842">
        <ele>2684</ele>
        <time>2016-03-27T09:52:59Z</time>
      </trkpt>
      <trkpt lat="42.81312" lon="-0.23841">
        <ele>2686</ele>
        <time>2016-03-27T09:53:13Z</time>
      </trkpt>
      <trkpt lat="42.81309" lon="-0.23854">
        <ele>2684</ele>
        <time>2016-03-27T09:53:29Z</time>
      </trkpt>
      <trkpt lat="42.81301" lon="-0.23863">
        <ele>2680</ele>
        <time>2016-03-27T09:53:45Z</time>
      </trkpt>
      <trkpt lat="42.81301" lon="-0.23869">
        <ele>2680</ele>
        <time>2016-03-27T09:53:59Z</time>
      </trkpt>
      <trkpt lat="42.81309" lon="-0.23873">
        <ele>2683</ele>
        <time>2016-03-27T09:54:13Z</time>
      </trkpt>
      <trkpt lat="42.81313" lon="-0.23878">
        <ele>2684</ele>
        <time>2016-03-27T09:54:28Z</time>
      </trkpt>
      <trkpt lat="42.81312" lon="-0.23878">
        <ele>2684</ele>
        <time>2016-03-27T09:54:29Z</time>
      </trkpt>
      <trkpt lat="42.81306" lon="-0.23888">
        <ele>2682</ele>
        <time>2016-03-27T09:54:44Z</time>
      </trkpt>
      <trkpt lat="42.81313" lon="-0.239">
        <ele>2683</ele>
        <time>2016-03-27T09:55:02Z</time>
      </trkpt>
      <trkpt lat="42.8132" lon="-0.23911">
        <ele>2685</ele>
        <time>2016-03-27T09:55:20Z</time>
      </trkpt>
      <trkpt lat="42.81325" lon="-0.23919">
        <ele>2686</ele>
        <time>2016-03-27T09:55:35Z</time>
      </trkpt>
      <trkpt lat="42.81328" lon="-0.23919">
        <ele>2686</ele>
        <time>2016-03-27T09:55:46Z</time>
      </trkpt>
      <trkpt lat="42.81337" lon="-0.2392">
        <ele>2689</ele>
        <time>2016-03-27T09:56:03Z</time>
      </trkpt>
      <trkpt lat="42.81346" lon="-0.2392">
        <ele>2692</ele>
        <time>2016-03-27T09:56:15Z</time>
      </trkpt>
      <trkpt lat="42.8135" lon="-0.2391">
        <ele>2695</ele>
        <time>2016-03-27T09:56:30Z</time>
      </trkpt>
      <trkpt lat="42.81351" lon="-0.23906">
        <ele>2696</ele>
        <time>2016-03-27T09:56:49Z</time>
      </trkpt>
      <trkpt lat="42.81349" lon="-0.23906">
        <ele>2695</ele>
        <time>2016-03-27T09:57:09Z</time>
      </trkpt>
      <trkpt lat="42.81348" lon="-0.23906">
        <ele>2694</ele>
        <time>2016-03-27T09:57:17Z</time>
      </trkpt>
      <trkpt lat="42.81346" lon="-0.23908">
        <ele>2694</ele>
        <time>2016-03-27T09:57:56Z</time>
      </trkpt>
      <trkpt lat="42.81348" lon="-0.23906">
        <ele>2694</ele>
        <time>2016-03-27T09:58:41Z</time>
      </trkpt>
      <trkpt lat="42.81348" lon="-0.23906">
        <ele>2694</ele>
        <time>2016-03-27T09:59:28Z</time>
      </trkpt>
      <trkpt lat="42.81348" lon="-0.23908">
        <ele>2694</ele>
        <time>2016-03-27T10:00:04Z</time>
      </trkpt>
      <trkpt lat="42.81347" lon="-0.23909">
        <ele>2694</ele>
        <time>2016-03-27T10:00:50Z</time>
      </trkpt>
      <trkpt lat="42.81347" lon="-0.23908">
        <ele>2694</ele>
        <time>2016-03-27T10:01:25Z</time>
      </trkpt>
      <trkpt lat="42.81346" lon="-0.23907">
        <ele>2693</ele>
        <time>2016-03-27T10:01:56Z</time>
      </trkpt>
      <trkpt lat="42.81345" lon="-0.23906">
        <ele>2693</ele>
        <time>2016-03-27T10:02:39Z</time>
      </trkpt>
      <trkpt lat="42.81346" lon="-0.23907">
        <ele>2693</ele>
        <time>2016-03-27T10:03:16Z</time>
      </trkpt>
      <trkpt lat="42.81347" lon="-0.23907">
        <ele>2694</ele>
        <time>2016-03-27T10:03:47Z</time>
      </trkpt>
      <trkpt lat="42.81348" lon="-0.23909">
        <ele>2694</ele>
        <time>2016-03-27T10:04:34Z</time>
      </trkpt>
      <trkpt lat="42.81347" lon="-0.23908">
        <ele>2694</ele>
        <time>2016-03-27T10:05:11Z</time>
      </trkpt>
      <trkpt lat="42.81349" lon="-0.23907">
        <ele>2695</ele>
        <time>2016-03-27T10:05:50Z</time>
      </trkpt>
      <trkpt lat="42.81348" lon="-0.23909">
        <ele>2694</ele>
        <time>2016-03-27T10:06:20Z</time>
      </trkpt>
      <trkpt lat="42.81348" lon="-0.23909">
        <ele>2694</ele>
        <time>2016-03-27T10:06:51Z</time>
      </trkpt>
      <trkpt lat="42.81348" lon="-0.23909">
        <ele>2694</ele>
        <time>2016-03-27T10:07:29Z</time>
      </trkpt>
      <trkpt lat="42.81347" lon="-0.23909">
        <ele>2694</ele>
        <time>2016-03-27T10:08:09Z</time>
      </trkpt>
      <trkpt lat="42.81347" lon="-0.23909">
        <ele>2694</ele>
        <time>2016-03-27T10:08:48Z</time>
      </trkpt>
      <trkpt lat="42.81347" lon="-0.23909">
        <ele>2694</ele>
        <time>2016-03-27T10:09:19Z</time>
      </trkpt>
      <trkpt lat="42.81347" lon="-0.23908">
        <ele>2694</ele>
        <time>2016-03-27T10:09:53Z</time>
      </trkpt>
      <trkpt lat="42.81347" lon="-0.23909">
        <ele>2694</ele>
        <time>2016-03-27T10:10:26Z</time>
      </trkpt>
      <trkpt lat="42.81346" lon="-0.23908">
        <ele>2693</ele>
        <time>2016-03-27T10:10:55Z</time>
      </trkpt>
      <trkpt lat="42.81346" lon="-0.23908">
        <ele>2693</ele>
        <time>2016-03-27T10:11:32Z</time>
      </trkpt>
      <trkpt lat="42.81346" lon="-0.2391">
        <ele>2693</ele>
        <time>2016-03-27T10:12:04Z</time>
      </trkpt>
      <trkpt lat="42.81346" lon="-0.23907">
        <ele>2693</ele>
        <time>2016-03-27T10:12:13Z</time>
      </trkpt>
      <trkpt lat="42.81347" lon="-0.23905">
        <ele>2694</ele>
        <time>2016-03-27T10:12:27Z</time>
      </trkpt>
      <trkpt lat="42.81347" lon="-0.23905">
        <ele>2694</ele>
        <time>2016-03-27T10:12:35Z</time>
      </trkpt>
      <trkpt lat="42.81347" lon="-0.23906">
        <ele>2694</ele>
        <time>2016-03-27T10:12:53Z</time>
      </trkpt>
      <trkpt lat="42.8135" lon="-0.23912">
        <ele>2694</ele>
        <time>2016-03-27T10:13:10Z</time>
      </trkpt>
      <trkpt lat="42.81348" lon="-0.23917">
        <ele>2693</ele>
        <time>2016-03-27T10:13:21Z</time>
      </trkpt>
      <trkpt lat="42.81347" lon="-0.23928">
        <ele>2692</ele>
        <time>2016-03-27T10:13:24Z</time>
      </trkpt>
      <trkpt lat="42.81343" lon="-0.23932">
        <ele>2690</ele>
        <time>2016-03-27T10:13:26Z</time>
      </trkpt>
      <trkpt lat="42.81341" lon="-0.23936">
        <ele>2689</ele>
        <time>2016-03-27T10:13:27Z</time>
      </trkpt>
      <trkpt lat="42.81332" lon="-0.2393">
        <ele>2686</ele>
        <time>2016-03-27T10:13:33Z</time>
      </trkpt>
      <trkpt lat="42.81333" lon="-0.2393">
        <ele>2687</ele>
        <time>2016-03-27T10:13:52Z</time>
      </trkpt>
      <trkpt lat="42.81331" lon="-0.2393">
        <ele>2686</ele>
        <time>2016-03-27T10:14:10Z</time>
      </trkpt>
      <trkpt lat="42.8133" lon="-0.23933">
        <ele>2686</ele>
        <time>2016-03-27T10:14:28Z</time>
      </trkpt>
      <trkpt lat="42.81332" lon="-0.23933">
        <ele>2686</ele>
        <time>2016-03-27T10:14:45Z</time>
      </trkpt>
      <trkpt lat="42.81331" lon="-0.23931">
        <ele>2686</ele>
        <time>2016-03-27T10:15:10Z</time>
      </trkpt>
      <trkpt lat="42.8133" lon="-0.23928">
        <ele>2686</ele>
        <time>2016-03-27T10:15:40Z</time>
      </trkpt>
      <trkpt lat="42.81329" lon="-0.23927">
        <ele>2686</ele>
        <time>2016-03-27T10:16:13Z</time>
      </trkpt>
      <trkpt lat="42.81329" lon="-0.23928">
        <ele>2686</ele>
        <time>2016-03-27T10:16:18Z</time>
      </trkpt>
      <trkpt lat="42.81329" lon="-0.23935">
        <ele>2685</ele>
        <time>2016-03-27T10:16:22Z</time>
      </trkpt>
      <trkpt lat="42.81353" lon="-0.23957">
        <ele>2692</ele>
        <time>2016-03-27T10:16:35Z</time>
      </trkpt>
      <trkpt lat="42.81357" lon="-0.23964">
        <ele>2693</ele>
        <time>2016-03-27T10:16:38Z</time>
      </trkpt>
      <trkpt lat="42.81357" lon="-0.23966">
        <ele>2693</ele>
        <time>2016-03-27T10:16:49Z</time>
      </trkpt>
      <trkpt lat="42.81355" lon="-0.23968">
        <ele>2692</ele>
        <time>2016-03-27T10:17:16Z</time>
      </trkpt>
      <trkpt lat="42.81353" lon="-0.23968">
        <ele>2691</ele>
        <time>2016-03-27T10:17:43Z</time>
      </trkpt>
      <trkpt lat="42.81351" lon="-0.23967">
        <ele>2690</ele>
        <time>2016-03-27T10:18:00Z</time>
      </trkpt>
      <trkpt lat="42.8135" lon="-0.23967">
        <ele>2690</ele>
        <time>2016-03-27T10:18:24Z</time>
      </trkpt>
      <trkpt lat="42.81351" lon="-0.23965">
        <ele>2691</ele>
        <time>2016-03-27T10:18:46Z</time>
      </trkpt>
      <trkpt lat="42.81351" lon="-0.23965">
        <ele>2691</ele>
        <time>2016-03-27T10:19:08Z</time>
      </trkpt>
      <trkpt lat="42.81351" lon="-0.23969">
        <ele>2690</ele>
        <time>2016-03-27T10:19:26Z</time>
      </trkpt>
      <trkpt lat="42.81351" lon="-0.2397">
        <ele>2690</ele>
        <time>2016-03-27T10:20:04Z</time>
      </trkpt>
      <trkpt lat="42.81351" lon="-0.23971">
        <ele>2690</ele>
        <time>2016-03-27T10:20:11Z</time>
      </trkpt>
      <trkpt lat="42.81343" lon="-0.23978">
        <ele>2687</ele>
        <time>2016-03-27T10:20:15Z</time>
      </trkpt>
      <trkpt lat="42.81338" lon="-0.23982">
        <ele>2684</ele>
        <time>2016-03-27T10:20:18Z</time>
      </trkpt>
      <trkpt lat="42.81338" lon="-0.23981">
        <ele>2684</ele>
        <time>2016-03-27T10:20:19Z</time>
      </trkpt>
      <trkpt lat="42.81337" lon="-0.23981">
        <ele>2684</ele>
        <time>2016-03-27T10:20:20Z</time>
      </trkpt>
      <trkpt lat="42.81328" lon="-0.23986">
        <ele>2680</ele>
        <time>2016-03-27T10:20:24Z</time>
      </trkpt>
      <trkpt lat="42.81326" lon="-0.23992">
        <ele>2679</ele>
        <time>2016-03-27T10:20:25Z</time>
      </trkpt>
      <trkpt lat="42.81315" lon="-0.24008">
        <ele>2673</ele>
        <time>2016-03-27T10:20:28Z</time>
      </trkpt>
      <trkpt lat="42.81311" lon="-0.24013">
        <ele>2671</ele>
        <time>2016-03-27T10:20:29Z</time>
      </trkpt>
      <trkpt lat="42.81306" lon="-0.24026">
        <ele>2667</ele>
        <time>2016-03-27T10:20:31Z</time>
      </trkpt>
      <trkpt lat="42.81304" lon="-0.24033">
        <ele>2664</ele>
        <time>2016-03-27T10:20:32Z</time>
      </trkpt>
      <trkpt lat="42.81304" lon="-0.24059">
        <ele>2659</ele>
        <time>2016-03-27T10:20:35Z</time>
      </trkpt>
      <trkpt lat="42.81299" lon="-0.24082">
        <ele>2653</ele>
        <time>2016-03-27T10:20:38Z</time>
      </trkpt>
      <trkpt lat="42.81301" lon="-0.24087">
        <ele>2653</ele>
        <time>2016-03-27T10:20:40Z</time>
      </trkpt>
      <trkpt lat="42.81302" lon="-0.24087">
        <ele>2653</ele>
        <time>2016-03-27T10:20:41Z</time>
      </trkpt>
      <trkpt lat="42.81301" lon="-0.24088">
        <ele>2653</ele>
        <time>2016-03-27T10:20:42Z</time>
      </trkpt>
      <trkpt lat="42.81299" lon="-0.24094">
        <ele>2651</ele>
        <time>2016-03-27T10:20:45Z</time>
      </trkpt>
      <trkpt lat="42.81297" lon="-0.24105">
        <ele>2648</ele>
        <time>2016-03-27T10:20:47Z</time>
      </trkpt>
      <trkpt lat="42.8129" lon="-0.24124">
        <ele>2642</ele>
        <time>2016-03-27T10:20:50Z</time>
      </trkpt>
      <trkpt lat="42.81286" lon="-0.24136">
        <ele>2639</ele>
        <time>2016-03-27T10:20:52Z</time>
      </trkpt>
      <trkpt lat="42.81286" lon="-0.24143">
        <ele>2638</ele>
        <time>2016-03-27T10:20:57Z</time>
      </trkpt>
      <trkpt lat="42.81287" lon="-0.24141">
        <ele>2639</ele>
        <time>2016-03-27T10:21:14Z</time>
      </trkpt>
      <trkpt lat="42.81288" lon="-0.24144">
        <ele>2639</ele>
        <time>2016-03-27T10:21:35Z</time>
      </trkpt>
      <trkpt lat="42.81289" lon="-0.24144">
        <ele>2639</ele>
        <time>2016-03-27T10:21:56Z</time>
      </trkpt>
      <trkpt lat="42.81289" lon="-0.24142">
        <ele>2639</ele>
        <time>2016-03-27T10:22:12Z</time>
      </trkpt>
      <trkpt lat="42.81289" lon="-0.24143">
        <ele>2639</ele>
        <time>2016-03-27T10:22:27Z</time>
      </trkpt>
      <trkpt lat="42.81292" lon="-0.24143">
        <ele>2640</ele>
        <time>2016-03-27T10:22:51Z</time>
      </trkpt>
      <trkpt lat="42.81293" lon="-0.24144">
        <ele>2640</ele>
        <time>2016-03-27T10:23:20Z</time>
      </trkpt>
      <trkpt lat="42.81291" lon="-0.24141">
        <ele>2640</ele>
        <time>2016-03-27T10:23:39Z</time>
      </trkpt>
      <trkpt lat="42.81291" lon="-0.24144">
        <ele>2640</ele>
        <time>2016-03-27T10:24:05Z</time>
      </trkpt>
      <trkpt lat="42.81291" lon="-0.24144">
        <ele>2639</ele>
        <time>2016-03-27T10:24:30Z</time>
      </trkpt>
      <trkpt lat="42.81288" lon="-0.24144">
        <ele>2638</ele>
        <time>2016-03-27T10:24:51Z</time>
      </trkpt>
      <trkpt lat="42.81285" lon="-0.24152">
        <ele>2636</ele>
        <time>2016-03-27T10:25:03Z</time>
      </trkpt>
      <trkpt lat="42.81283" lon="-0.2415">
        <ele>2636</ele>
        <time>2016-03-27T10:25:21Z</time>
      </trkpt>
      <trkpt lat="42.81277" lon="-0.24147">
        <ele>2635</ele>
        <time>2016-03-27T10:25:44Z</time>
      </trkpt>
      <trkpt lat="42.81279" lon="-0.24145">
        <ele>2636</ele>
        <time>2016-03-27T10:26:04Z</time>
      </trkpt>
      <trkpt lat="42.81278" lon="-0.24145">
        <ele>2635</ele>
        <time>2016-03-27T10:26:12Z</time>
      </trkpt>
      <trkpt lat="42.81273" lon="-0.24158">
        <ele>2632</ele>
        <time>2016-03-27T10:26:16Z</time>
      </trkpt>
      <trkpt lat="42.81271" lon="-0.24166">
        <ele>2631</ele>
        <time>2016-03-27T10:26:18Z</time>
      </trkpt>
      <trkpt lat="42.81269" lon="-0.24172">
        <ele>2628</ele>
        <time>2016-03-27T10:26:20Z</time>
      </trkpt>
      <trkpt lat="42.81266" lon="-0.24179">
        <ele>2625</ele>
        <time>2016-03-27T10:26:29Z</time>
      </trkpt>
      <trkpt lat="42.81259" lon="-0.24186">
        <ele>2621</ele>
        <time>2016-03-27T10:26:34Z</time>
      </trkpt>
      <trkpt lat="42.81257" lon="-0.24191">
        <ele>2619</ele>
        <time>2016-03-27T10:26:36Z</time>
      </trkpt>
      <trkpt lat="42.81248" lon="-0.24189">
        <ele>2617</ele>
        <time>2016-03-27T10:26:40Z</time>
      </trkpt>
      <trkpt lat="42.81247" lon="-0.24187">
        <ele>2617</ele>
        <time>2016-03-27T10:26:41Z</time>
      </trkpt>
      <trkpt lat="42.81242" lon="-0.24179">
        <ele>2618</ele>
        <time>2016-03-27T10:26:50Z</time>
      </trkpt>
      <trkpt lat="42.81241" lon="-0.24189">
        <ele>2614</ele>
        <time>2016-03-27T10:26:53Z</time>
      </trkpt>
      <trkpt lat="42.81235" lon="-0.24195">
        <ele>2610</ele>
        <time>2016-03-27T10:26:55Z</time>
      </trkpt>
      <trkpt lat="42.81236" lon="-0.24208">
        <ele>2606</ele>
        <time>2016-03-27T10:26:57Z</time>
      </trkpt>
      <trkpt lat="42.81234" lon="-0.24211">
        <ele>2604</ele>
        <time>2016-03-27T10:26:58Z</time>
      </trkpt>
      <trkpt lat="42.81231" lon="-0.24213">
        <ele>2602</ele>
        <time>2016-03-27T10:27:00Z</time>
      </trkpt>
      <trkpt lat="42.81232" lon="-0.24214">
        <ele>2602</ele>
        <time>2016-03-27T10:27:01Z</time>
      </trkpt>
      <trkpt lat="42.81234" lon="-0.24216">
        <ele>2602</ele>
        <time>2016-03-27T10:27:03Z</time>
      </trkpt>
      <trkpt lat="42.81235" lon="-0.24213">
        <ele>2604</ele>
        <time>2016-03-27T10:27:12Z</time>
      </trkpt>
      <trkpt lat="42.81228" lon="-0.24214">
        <ele>2601</ele>
        <time>2016-03-27T10:27:15Z</time>
      </trkpt>
      <trkpt lat="42.81227" lon="-0.24225">
        <ele>2596</ele>
        <time>2016-03-27T10:27:18Z</time>
      </trkpt>
      <trkpt lat="42.81227" lon="-0.24232">
        <ele>2594</ele>
        <time>2016-03-27T10:27:20Z</time>
      </trkpt>
      <trkpt lat="42.8122" lon="-0.24236">
        <ele>2589</ele>
        <time>2016-03-27T10:27:22Z</time>
      </trkpt>
      <trkpt lat="42.81196" lon="-0.24247">
        <ele>2574</ele>
        <time>2016-03-27T10:27:30Z</time>
      </trkpt>
      <trkpt lat="42.81192" lon="-0.24248">
        <ele>2572</ele>
        <time>2016-03-27T10:27:31Z</time>
      </trkpt>
      <trkpt lat="42.81182" lon="-0.24248">
        <ele>2567</ele>
        <time>2016-03-27T10:27:37Z</time>
      </trkpt>
      <trkpt lat="42.81177" lon="-0.24247">
        <ele>2566</ele>
        <time>2016-03-27T10:27:53Z</time>
      </trkpt>
      <trkpt lat="42.81169" lon="-0.24259">
        <ele>2558</ele>
        <time>2016-03-27T10:27:58Z</time>
      </trkpt>
      <trkpt lat="42.81161" lon="-0.24272">
        <ele>2554</ele>
        <time>2016-03-27T10:28:01Z</time>
      </trkpt>
      <trkpt lat="42.81151" lon="-0.24288">
        <ele>2549</ele>
        <time>2016-03-27T10:28:05Z</time>
      </trkpt>
      <trkpt lat="42.81134" lon="-0.24316">
        <ele>2540</ele>
        <time>2016-03-27T10:28:14Z</time>
      </trkpt>
      <trkpt lat="42.81131" lon="-0.24321">
        <ele>2538</ele>
        <time>2016-03-27T10:28:16Z</time>
      </trkpt>
      <trkpt lat="42.81127" lon="-0.24342">
        <ele>2532</ele>
        <time>2016-03-27T10:28:20Z</time>
      </trkpt>
      <trkpt lat="42.81124" lon="-0.24365">
        <ele>2529</ele>
        <time>2016-03-27T10:28:23Z</time>
      </trkpt>
      <trkpt lat="42.81126" lon="-0.24407">
        <ele>2523</ele>
        <time>2016-03-27T10:28:28Z</time>
      </trkpt>
      <trkpt lat="42.8113" lon="-0.24424">
        <ele>2522</ele>
        <time>2016-03-27T10:28:30Z</time>
      </trkpt>
      <trkpt lat="42.81145" lon="-0.24464">
        <ele>2525</ele>
        <time>2016-03-27T10:28:35Z</time>
      </trkpt>
      <trkpt lat="42.81148" lon="-0.24472">
        <ele>2525</ele>
        <time>2016-03-27T10:28:36Z</time>
      </trkpt>
      <trkpt lat="42.8115" lon="-0.2448">
        <ele>2525</ele>
        <time>2016-03-27T10:28:37Z</time>
      </trkpt>
      <trkpt lat="42.81154" lon="-0.24495">
        <ele>2526</ele>
        <time>2016-03-27T10:28:39Z</time>
      </trkpt>
      <trkpt lat="42.81156" lon="-0.24501">
        <ele>2526</ele>
        <time>2016-03-27T10:28:40Z</time>
      </trkpt>
      <trkpt lat="42.81165" lon="-0.24535">
        <ele>2528</ele>
        <time>2016-03-27T10:28:46Z</time>
      </trkpt>
      <trkpt lat="42.81169" lon="-0.2456">
        <ele>2530</ele>
        <time>2016-03-27T10:28:55Z</time>
      </trkpt>
      <trkpt lat="42.81169" lon="-0.24559">
        <ele>2530</ele>
        <time>2016-03-27T10:28:56Z</time>
      </trkpt>
      <trkpt lat="42.8117" lon="-0.2456">
        <ele>2530</ele>
        <time>2016-03-27T10:29:14Z</time>
      </trkpt>
      <trkpt lat="42.8117" lon="-0.24561">
        <ele>2530</ele>
        <time>2016-03-27T10:29:24Z</time>
      </trkpt>
      <trkpt lat="42.8117" lon="-0.24559">
        <ele>2530</ele>
        <time>2016-03-27T10:29:44Z</time>
      </trkpt>
      <trkpt lat="42.81168" lon="-0.24597">
        <ele>2531</ele>
        <time>2016-03-27T11:04:22Z</time>
      </trkpt>
      <trkpt lat="42.81171" lon="-0.24601">
        <ele>2531</ele>
        <time>2016-03-27T11:04:41Z</time>
      </trkpt>
      <trkpt lat="42.81171" lon="-0.24601">
        <ele>2531</ele>
        <time>2016-03-27T11:04:42Z</time>
      </trkpt>
      <trkpt lat="42.8117" lon="-0.24601">
        <ele>2531</ele>
        <time>2016-03-27T11:04:43Z</time>
      </trkpt>
      <trkpt lat="42.8117" lon="-0.24601">
        <ele>2531</ele>
        <time>2016-03-27T11:04:44Z</time>
      </trkpt>
      <trkpt lat="42.8117" lon="-0.24601">
        <ele>2531</ele>
        <time>2016-03-27T11:04:45Z</time>
      </trkpt>
      <trkpt lat="42.8117" lon="-0.24601">
        <ele>2531</ele>
        <time>2016-03-27T11:04:46Z</time>
      </trkpt>
      <trkpt lat="42.81169" lon="-0.24601">
        <ele>2531</ele>
        <time>2016-03-27T11:04:47Z</time>
      </trkpt>
      <trkpt lat="42.81169" lon="-0.24601">
        <ele>2531</ele>
        <time>2016-03-27T11:04:48Z</time>
      </trkpt>
      <trkpt lat="42.81169" lon="-0.24601">
        <ele>2531</ele>
        <time>2016-03-27T11:04:49Z</time>
      </trkpt>
      <trkpt lat="42.81168" lon="-0.24601">
        <ele>2531</ele>
        <time>2016-03-27T11:04:50Z</time>
      </trkpt>
      <trkpt lat="42.81168" lon="-0.24601">
        <ele>2531</ele>
        <time>2016-03-27T11:04:51Z</time>
      </trkpt>
      <trkpt lat="42.81169" lon="-0.246">
        <ele>2531</ele>
        <time>2016-03-27T11:04:52Z</time>
      </trkpt>
      <trkpt lat="42.81169" lon="-0.246">
        <ele>2531</ele>
        <time>2016-03-27T11:04:53Z</time>
      </trkpt>
      <trkpt lat="42.81169" lon="-0.24599">
        <ele>2531</ele>
        <time>2016-03-27T11:04:54Z</time>
      </trkpt>
      <trkpt lat="42.8117" lon="-0.24599">
        <ele>2531</ele>
        <time>2016-03-27T11:04:55Z</time>
      </trkpt>
      <trkpt lat="42.8117" lon="-0.24599">
        <ele>2531</ele>
        <time>2016-03-27T11:04:56Z</time>
      </trkpt>
      <trkpt lat="42.81171" lon="-0.246">
        <ele>2531</ele>
        <time>2016-03-27T11:04:57Z</time>
      </trkpt>
      <trkpt lat="42.81173" lon="-0.24603">
        <ele>2531</ele>
        <time>2016-03-27T11:04:58Z</time>
      </trkpt>
      <trkpt lat="42.81175" lon="-0.24605">
        <ele>2531</ele>
        <time>2016-03-27T11:04:59Z</time>
      </trkpt>
      <trkpt lat="42.81176" lon="-0.24606">
        <ele>2530</ele>
        <time>2016-03-27T11:05:00Z</time>
      </trkpt>
      <trkpt lat="42.81178" lon="-0.24607">
        <ele>2530</ele>
        <time>2016-03-27T11:05:01Z</time>
      </trkpt>
      <trkpt lat="42.81183" lon="-0.24534">
        <ele>2527</ele>
        <time>2016-03-27T11:06:45Z</time>
      </trkpt>
      <trkpt lat="42.81182" lon="-0.24534">
        <ele>2527</ele>
        <time>2016-03-27T11:07:08Z</time>
      </trkpt>
      <trkpt lat="42.81181" lon="-0.24533">
        <ele>2527</ele>
        <time>2016-03-27T11:07:31Z</time>
      </trkpt>
      <trkpt lat="42.81181" lon="-0.24531">
        <ele>2527</ele>
        <time>2016-03-27T11:07:56Z</time>
      </trkpt>
      <trkpt lat="42.81182" lon="-0.24531">
        <ele>2527</ele>
        <time>2016-03-27T11:08:21Z</time>
      </trkpt>
      <trkpt lat="42.81183" lon="-0.24535">
        <ele>2527</ele>
        <time>2016-03-27T11:08:42Z</time>
      </trkpt>
      <trkpt lat="42.81183" lon="-0.24535">
        <ele>2527</ele>
        <time>2016-03-27T11:08:49Z</time>
      </trkpt>
      <trkpt lat="42.81184" lon="-0.24538">
        <ele>2527</ele>
        <time>2016-03-27T11:09:15Z</time>
      </trkpt>
      <trkpt lat="42.81181" lon="-0.24537">
        <ele>2528</ele>
        <time>2016-03-27T11:09:33Z</time>
      </trkpt>
      <trkpt lat="42.81181" lon="-0.24537">
        <ele>2528</ele>
        <time>2016-03-27T11:09:34Z</time>
      </trkpt>
      <trkpt lat="42.81181" lon="-0.24534">
        <ele>2527</ele>
        <time>2016-03-27T11:09:58Z</time>
      </trkpt>
      <trkpt lat="42.81182" lon="-0.24531">
        <ele>2527</ele>
        <time>2016-03-27T11:10:23Z</time>
      </trkpt>
      <trkpt lat="42.81183" lon="-0.24531">
        <ele>2527</ele>
        <time>2016-03-27T11:10:43Z</time>
      </trkpt>
      <trkpt lat="42.81182" lon="-0.2453">
        <ele>2527</ele>
        <time>2016-03-27T11:11:03Z</time>
      </trkpt>
      <trkpt lat="42.81182" lon="-0.24532">
        <ele>2527</ele>
        <time>2016-03-27T11:11:23Z</time>
      </trkpt>
      <trkpt lat="42.8118" lon="-0.24533">
        <ele>2527</ele>
        <time>2016-03-27T11:11:36Z</time>
      </trkpt>
      <trkpt lat="42.81183" lon="-0.24535">
        <ele>2527</ele>
        <time>2016-03-27T11:11:50Z</time>
      </trkpt>
      <trkpt lat="42.81184" lon="-0.24536">
        <ele>2527</ele>
        <time>2016-03-27T11:12:20Z</time>
      </trkpt>
      <trkpt lat="42.81184" lon="-0.24535">
        <ele>2527</ele>
        <time>2016-03-27T11:12:50Z</time>
      </trkpt>
      <trkpt lat="42.81183" lon="-0.24536">
        <ele>2527</ele>
        <time>2016-03-27T11:13:20Z</time>
      </trkpt>
      <trkpt lat="42.81183" lon="-0.2454">
        <ele>2528</ele>
        <time>2016-03-27T11:13:44Z</time>
      </trkpt>
      <trkpt lat="42.81178" lon="-0.24541">
        <ele>2528</ele>
        <time>2016-03-27T11:13:54Z</time>
      </trkpt>
      <trkpt lat="42.81175" lon="-0.24544">
        <ele>2529</ele>
        <time>2016-03-27T11:14:01Z</time>
      </trkpt>
      <trkpt lat="42.81171" lon="-0.2454">
        <ele>2529</ele>
        <time>2016-03-27T11:14:24Z</time>
      </trkpt>
      <trkpt lat="42.81168" lon="-0.24542">
        <ele>2529</ele>
        <time>2016-03-27T11:14:55Z</time>
      </trkpt>
      <trkpt lat="42.8117" lon="-0.24542">
        <ele>2529</ele>
        <time>2016-03-27T11:15:25Z</time>
      </trkpt>
      <trkpt lat="42.81171" lon="-0.24541">
        <ele>2529</ele>
        <time>2016-03-27T11:15:42Z</time>
      </trkpt>
      <trkpt lat="42.81174" lon="-0.24542">
        <ele>2528</ele>
        <time>2016-03-27T11:16:00Z</time>
      </trkpt>
      <trkpt lat="42.81174" lon="-0.24543">
        <ele>2529</ele>
        <time>2016-03-27T11:16:14Z</time>
      </trkpt>
      <trkpt lat="42.81174" lon="-0.24546">
        <ele>2529</ele>
        <time>2016-03-27T11:16:31Z</time>
      </trkpt>
      <trkpt lat="42.81173" lon="-0.24548">
        <ele>2529</ele>
        <time>2016-03-27T11:16:35Z</time>
      </trkpt>
      <trkpt lat="42.81171" lon="-0.2455">
        <ele>2529</ele>
        <time>2016-03-27T11:16:54Z</time>
      </trkpt>
      <trkpt lat="42.81173" lon="-0.2455">
        <ele>2529</ele>
        <time>2016-03-27T11:17:10Z</time>
      </trkpt>
      <trkpt lat="42.81173" lon="-0.24547">
        <ele>2529</ele>
        <time>2016-03-27T11:17:29Z</time>
      </trkpt>
      <trkpt lat="42.81169" lon="-0.24549">
        <ele>2529</ele>
        <time>2016-03-27T11:17:50Z</time>
      </trkpt>
      <trkpt lat="42.81169" lon="-0.24549">
        <ele>2529</ele>
        <time>2016-03-27T11:17:55Z</time>
      </trkpt>
      <trkpt lat="42.81167" lon="-0.24549">
        <ele>2530</ele>
        <time>2016-03-27T11:18:09Z</time>
      </trkpt>
      <trkpt lat="42.8117" lon="-0.24553">
        <ele>2530</ele>
        <time>2016-03-27T11:18:18Z</time>
      </trkpt>
      <trkpt lat="42.81171" lon="-0.24575">
        <ele>2531</ele>
        <time>2016-03-27T11:18:30Z</time>
      </trkpt>
      <trkpt lat="42.81158" lon="-0.2459">
        <ele>2531</ele>
        <time>2016-03-27T11:18:35Z</time>
      </trkpt>
      <trkpt lat="42.81163" lon="-0.24598">
        <ele>2531</ele>
        <time>2016-03-27T11:18:38Z</time>
      </trkpt>
      <trkpt lat="42.81166" lon="-0.24601">
        <ele>2531</ele>
        <time>2016-03-27T11:18:39Z</time>
      </trkpt>
      <trkpt lat="42.81162" lon="-0.24607">
        <ele>2530</ele>
        <time>2016-03-27T11:18:41Z</time>
      </trkpt>
      <trkpt lat="42.81155" lon="-0.24614">
        <ele>2529</ele>
        <time>2016-03-27T11:18:43Z</time>
      </trkpt>
      <trkpt lat="42.81151" lon="-0.24623">
        <ele>2527</ele>
        <time>2016-03-27T11:18:45Z</time>
      </trkpt>
      <trkpt lat="42.81153" lon="-0.24627">
        <ele>2528</ele>
        <time>2016-03-27T11:18:46Z</time>
      </trkpt>
      <trkpt lat="42.81154" lon="-0.24637">
        <ele>2527</ele>
        <time>2016-03-27T11:18:48Z</time>
      </trkpt>
      <trkpt lat="42.81156" lon="-0.24642">
        <ele>2527</ele>
        <time>2016-03-27T11:18:49Z</time>
      </trkpt>
      <trkpt lat="42.81157" lon="-0.24646">
        <ele>2527</ele>
        <time>2016-03-27T11:18:50Z</time>
      </trkpt>
      <trkpt lat="42.81157" lon="-0.24657">
        <ele>2526</ele>
        <time>2016-03-27T11:18:52Z</time>
      </trkpt>
      <trkpt lat="42.81158" lon="-0.24663">
        <ele>2526</ele>
        <time>2016-03-27T11:18:53Z</time>
      </trkpt>
      <trkpt lat="42.81157" lon="-0.24669">
        <ele>2525</ele>
        <time>2016-03-27T11:18:54Z</time>
      </trkpt>
      <trkpt lat="42.81154" lon="-0.24685">
        <ele>2521</ele>
        <time>2016-03-27T11:18:56Z</time>
      </trkpt>
      <trkpt lat="42.81149" lon="-0.24691">
        <ele>2518</ele>
        <time>2016-03-27T11:18:57Z</time>
      </trkpt>
      <trkpt lat="42.81146" lon="-0.24695">
        <ele>2516</ele>
        <time>2016-03-27T11:18:58Z</time>
      </trkpt>
      <trkpt lat="42.81147" lon="-0.24701">
        <ele>2515</ele>
        <time>2016-03-27T11:18:59Z</time>
      </trkpt>
      <trkpt lat="42.81149" lon="-0.24706">
        <ele>2514</ele>
        <time>2016-03-27T11:19:00Z</time>
      </trkpt>
      <trkpt lat="42.81144" lon="-0.24722">
        <ele>2509</ele>
        <time>2016-03-27T11:19:03Z</time>
      </trkpt>
      <trkpt lat="42.81143" lon="-0.24727">
        <ele>2507</ele>
        <time>2016-03-27T11:19:04Z</time>
      </trkpt>
      <trkpt lat="42.81142" lon="-0.24734">
        <ele>2505</ele>
        <time>2016-03-27T11:19:05Z</time>
      </trkpt>
      <trkpt lat="42.81134" lon="-0.24745">
        <ele>2499</ele>
        <time>2016-03-27T11:19:07Z</time>
      </trkpt>
      <trkpt lat="42.81127" lon="-0.24753">
        <ele>2494</ele>
        <time>2016-03-27T11:19:09Z</time>
      </trkpt>
      <trkpt lat="42.81115" lon="-0.24774">
        <ele>2481</ele>
        <time>2016-03-27T11:19:12Z</time>
      </trkpt>
      <trkpt lat="42.81111" lon="-0.24784">
        <ele>2475</ele>
        <time>2016-03-27T11:19:13Z</time>
      </trkpt>
      <trkpt lat="42.81107" lon="-0.24793">
        <ele>2470</ele>
        <time>2016-03-27T11:19:14Z</time>
      </trkpt>
      <trkpt lat="42.81094" lon="-0.24825">
        <ele>2451</ele>
        <time>2016-03-27T11:19:19Z</time>
      </trkpt>
      <trkpt lat="42.81088" lon="-0.2484">
        <ele>2442</ele>
        <time>2016-03-27T11:19:21Z</time>
      </trkpt>
      <trkpt lat="42.8108" lon="-0.24854">
        <ele>2435</ele>
        <time>2016-03-27T11:19:23Z</time>
      </trkpt>
      <trkpt lat="42.81055" lon="-0.24895">
        <ele>2421</ele>
        <time>2016-03-27T11:19:34Z</time>
      </trkpt>
      <trkpt lat="42.81048" lon="-0.24902">
        <ele>2419</ele>
        <time>2016-03-27T11:19:37Z</time>
      </trkpt>
      <trkpt lat="42.8105" lon="-0.24911">
        <ele>2415</ele>
        <time>2016-03-27T11:19:40Z</time>
      </trkpt>
      <trkpt lat="42.81052" lon="-0.24917">
        <ele>2413</ele>
        <time>2016-03-27T11:19:41Z</time>
      </trkpt>
      <trkpt lat="42.81055" lon="-0.24931">
        <ele>2411</ele>
        <time>2016-03-27T11:19:43Z</time>
      </trkpt>
      <trkpt lat="42.81061" lon="-0.24946">
        <ele>2408</ele>
        <time>2016-03-27T11:19:46Z</time>
      </trkpt>
      <trkpt lat="42.81065" lon="-0.24954">
        <ele>2406</ele>
        <time>2016-03-27T11:19:48Z</time>
      </trkpt>
      <trkpt lat="42.81067" lon="-0.24957">
        <ele>2406</ele>
        <time>2016-03-27T11:19:56Z</time>
      </trkpt>
      <trkpt lat="42.81062" lon="-0.24958">
        <ele>2406</ele>
        <time>2016-03-27T11:20:16Z</time>
      </trkpt>
      <trkpt lat="42.81063" lon="-0.2496">
        <ele>2405</ele>
        <time>2016-03-27T11:20:38Z</time>
      </trkpt>
      <trkpt lat="42.81062" lon="-0.24961">
        <ele>2405</ele>
        <time>2016-03-27T11:21:02Z</time>
      </trkpt>
      <trkpt lat="42.8106" lon="-0.24961">
        <ele>2405</ele>
        <time>2016-03-27T11:21:31Z</time>
      </trkpt>
      <trkpt lat="42.81059" lon="-0.24964">
        <ele>2404</ele>
        <time>2016-03-27T11:21:44Z</time>
      </trkpt>
      <trkpt lat="42.81058" lon="-0.24966">
        <ele>2404</ele>
        <time>2016-03-27T11:21:48Z</time>
      </trkpt>
      <trkpt lat="42.81042" lon="-0.24979">
        <ele>2400</ele>
        <time>2016-03-27T11:21:54Z</time>
      </trkpt>
      <trkpt lat="42.81031" lon="-0.24987">
        <ele>2397</ele>
        <time>2016-03-27T11:21:56Z</time>
      </trkpt>
      <trkpt lat="42.81025" lon="-0.24986">
        <ele>2397</ele>
        <time>2016-03-27T11:21:58Z</time>
      </trkpt>
      <trkpt lat="42.81024" lon="-0.24987">
        <ele>2397</ele>
        <time>2016-03-27T11:22:04Z</time>
      </trkpt>
      <trkpt lat="42.81013" lon="-0.25004">
        <ele>2391</ele>
        <time>2016-03-27T11:22:08Z</time>
      </trkpt>
      <trkpt lat="42.80989" lon="-0.25024">
        <ele>2386</ele>
        <time>2016-03-27T11:22:12Z</time>
      </trkpt>
      <trkpt lat="42.80976" lon="-0.25045">
        <ele>2382</ele>
        <time>2016-03-27T11:22:16Z</time>
      </trkpt>
      <trkpt lat="42.80963" lon="-0.25086">
        <ele>2374</ele>
        <time>2016-03-27T11:22:25Z</time>
      </trkpt>
      <trkpt lat="42.80946" lon="-0.25127">
        <ele>2371</ele>
        <time>2016-03-27T11:22:37Z</time>
      </trkpt>
      <trkpt lat="42.80938" lon="-0.25149">
        <ele>2369</ele>
        <time>2016-03-27T11:22:47Z</time>
      </trkpt>
      <trkpt lat="42.80935" lon="-0.2515">
        <ele>2370</ele>
        <time>2016-03-27T11:22:59Z</time>
      </trkpt>
      <trkpt lat="42.80939" lon="-0.25152">
        <ele>2369</ele>
        <time>2016-03-27T11:23:18Z</time>
      </trkpt>
      <trkpt lat="42.80944" lon="-0.25151">
        <ele>2368</ele>
        <time>2016-03-27T11:23:44Z</time>
      </trkpt>
      <trkpt lat="42.80946" lon="-0.2515">
        <ele>2368</ele>
        <time>2016-03-27T11:24:03Z</time>
      </trkpt>
      <trkpt lat="42.80944" lon="-0.2515">
        <ele>2368</ele>
        <time>2016-03-27T11:24:26Z</time>
      </trkpt>
      <trkpt lat="42.80942" lon="-0.25152">
        <ele>2368</ele>
        <time>2016-03-27T11:24:58Z</time>
      </trkpt>
      <trkpt lat="42.8094" lon="-0.25154">
        <ele>2369</ele>
        <time>2016-03-27T11:25:31Z</time>
      </trkpt>
      <trkpt lat="42.80941" lon="-0.25152">
        <ele>2369</ele>
        <time>2016-03-27T11:26:12Z</time>
      </trkpt>
      <trkpt lat="42.80941" lon="-0.25153">
        <ele>2368</ele>
        <time>2016-03-27T11:26:47Z</time>
      </trkpt>
      <trkpt lat="42.80941" lon="-0.25152">
        <ele>2369</ele>
        <time>2016-03-27T11:26:48Z</time>
      </trkpt>
      <trkpt lat="42.8094" lon="-0.25152">
        <ele>2369</ele>
        <time>2016-03-27T11:27:29Z</time>
      </trkpt>
      <trkpt lat="42.80945" lon="-0.25152">
        <ele>2368</ele>
        <time>2016-03-27T11:28:00Z</time>
      </trkpt>
      <trkpt lat="42.80946" lon="-0.25153">
        <ele>2368</ele>
        <time>2016-03-27T11:28:29Z</time>
      </trkpt>
      <trkpt lat="42.80945" lon="-0.25152">
        <ele>2368</ele>
        <time>2016-03-27T11:29:11Z</time>
      </trkpt>
      <trkpt lat="42.80944" lon="-0.25148">
        <ele>2369</ele>
        <time>2016-03-27T11:29:48Z</time>
      </trkpt>
      <trkpt lat="42.80945" lon="-0.25152">
        <ele>2368</ele>
        <time>2016-03-27T11:30:18Z</time>
      </trkpt>
      <trkpt lat="42.80943" lon="-0.25154">
        <ele>2368</ele>
        <time>2016-03-27T11:30:54Z</time>
      </trkpt>
      <trkpt lat="42.80942" lon="-0.25152">
        <ele>2369</ele>
        <time>2016-03-27T11:31:23Z</time>
      </trkpt>
      <trkpt lat="42.80938" lon="-0.25148">
        <ele>2370</ele>
        <time>2016-03-27T11:31:59Z</time>
      </trkpt>
      <trkpt lat="42.80938" lon="-0.25147">
        <ele>2370</ele>
        <time>2016-03-27T11:32:34Z</time>
      </trkpt>
      <trkpt lat="42.8094" lon="-0.2515">
        <ele>2369</ele>
        <time>2016-03-27T11:32:50Z</time>
      </trkpt>
      <trkpt lat="42.80938" lon="-0.25149">
        <ele>2369</ele>
        <time>2016-03-27T11:33:05Z</time>
      </trkpt>
      <trkpt lat="42.80934" lon="-0.25146">
        <ele>2371</ele>
        <time>2016-03-27T11:33:25Z</time>
      </trkpt>
      <trkpt lat="42.80934" lon="-0.25153">
        <ele>2370</ele>
        <time>2016-03-27T11:33:43Z</time>
      </trkpt>
      <trkpt lat="42.8093" lon="-0.25166">
        <ele>2368</ele>
        <time>2016-03-27T11:33:59Z</time>
      </trkpt>
      <trkpt lat="42.80925" lon="-0.25171">
        <ele>2369</ele>
        <time>2016-03-27T11:34:15Z</time>
      </trkpt>
      <trkpt lat="42.80922" lon="-0.25178">
        <ele>2370</ele>
        <time>2016-03-27T11:34:32Z</time>
      </trkpt>
      <trkpt lat="42.80918" lon="-0.2519">
        <ele>2371</ele>
        <time>2016-03-27T11:34:47Z</time>
      </trkpt>
      <trkpt lat="42.80915" lon="-0.25197">
        <ele>2372</ele>
        <time>2016-03-27T11:35:02Z</time>
      </trkpt>
      <trkpt lat="42.80911" lon="-0.2521">
        <ele>2375</ele>
        <time>2016-03-27T11:35:21Z</time>
      </trkpt>
      <trkpt lat="42.80908" lon="-0.25223">
        <ele>2376</ele>
        <time>2016-03-27T11:35:37Z</time>
      </trkpt>
      <trkpt lat="42.80905" lon="-0.25231">
        <ele>2378</ele>
        <time>2016-03-27T11:35:51Z</time>
      </trkpt>
      <trkpt lat="42.80905" lon="-0.25241">
        <ele>2378</ele>
        <time>2016-03-27T11:36:07Z</time>
      </trkpt>
      <trkpt lat="42.80905" lon="-0.2525">
        <ele>2379</ele>
        <time>2016-03-27T11:36:21Z</time>
      </trkpt>
      <trkpt lat="42.80909" lon="-0.25262">
        <ele>2378</ele>
        <time>2016-03-27T11:36:39Z</time>
      </trkpt>
      <trkpt lat="42.80914" lon="-0.25269">
        <ele>2376</ele>
        <time>2016-03-27T11:36:54Z</time>
      </trkpt>
      <trkpt lat="42.80908" lon="-0.2527">
        <ele>2378</ele>
        <time>2016-03-27T11:37:05Z</time>
      </trkpt>
      <trkpt lat="42.80898" lon="-0.25276">
        <ele>2382</ele>
        <time>2016-03-27T11:37:21Z</time>
      </trkpt>
      <trkpt lat="42.80892" lon="-0.25284">
        <ele>2385</ele>
        <time>2016-03-27T11:37:37Z</time>
      </trkpt>
      <trkpt lat="42.80896" lon="-0.25291">
        <ele>2383</ele>
        <time>2016-03-27T11:37:50Z</time>
      </trkpt>
      <trkpt lat="42.80904" lon="-0.25297">
        <ele>2380</ele>
        <time>2016-03-27T11:38:04Z</time>
      </trkpt>
      <trkpt lat="42.80907" lon="-0.25301">
        <ele>2379</ele>
        <time>2016-03-27T11:38:18Z</time>
      </trkpt>
      <trkpt lat="42.809" lon="-0.25306">
        <ele>2382</ele>
        <time>2016-03-27T11:38:33Z</time>
      </trkpt>
      <trkpt lat="42.80895" lon="-0.25312">
        <ele>2384</ele>
        <time>2016-03-27T11:38:40Z</time>
      </trkpt>
      <trkpt lat="42.80887" lon="-0.25317">
        <ele>2388</ele>
        <time>2016-03-27T11:38:55Z</time>
      </trkpt>
      <trkpt lat="42.80885" lon="-0.25321">
        <ele>2389</ele>
        <time>2016-03-27T11:39:08Z</time>
      </trkpt>
      <trkpt lat="42.80889" lon="-0.25331">
        <ele>2388</ele>
        <time>2016-03-27T11:39:24Z</time>
      </trkpt>
      <trkpt lat="42.80881" lon="-0.25334">
        <ele>2392</ele>
        <time>2016-03-27T11:39:40Z</time>
      </trkpt>
      <trkpt lat="42.80872" lon="-0.25335">
        <ele>2396</ele>
        <time>2016-03-27T11:39:55Z</time>
      </trkpt>
      <trkpt lat="42.80863" lon="-0.25336">
        <ele>2400</ele>
        <time>2016-03-27T11:40:11Z</time>
      </trkpt>
      <trkpt lat="42.80862" lon="-0.25346">
        <ele>2402</ele>
        <time>2016-03-27T11:40:28Z</time>
      </trkpt>
      <trkpt lat="42.80864" lon="-0.2535">
        <ele>2400</ele>
        <time>2016-03-27T11:40:43Z</time>
      </trkpt>
      <trkpt lat="42.80865" lon="-0.25354">
        <ele>2400</ele>
        <time>2016-03-27T11:41:03Z</time>
      </trkpt>
      <trkpt lat="42.80867" lon="-0.25367">
        <ele>2399</ele>
        <time>2016-03-27T11:41:21Z</time>
      </trkpt>
      <trkpt lat="42.80861" lon="-0.25369">
        <ele>2403</ele>
        <time>2016-03-27T11:41:32Z</time>
      </trkpt>
      <trkpt lat="42.80859" lon="-0.25371">
        <ele>2405</ele>
        <time>2016-03-27T11:41:50Z</time>
      </trkpt>
      <trkpt lat="42.80852" lon="-0.25373">
        <ele>2409</ele>
        <time>2016-03-27T11:42:08Z</time>
      </trkpt>
      <trkpt lat="42.80845" lon="-0.25377">
        <ele>2414</ele>
        <time>2016-03-27T11:42:24Z</time>
      </trkpt>
      <trkpt lat="42.80849" lon="-0.25388">
        <ele>2412</ele>
        <time>2016-03-27T11:42:37Z</time>
      </trkpt>
      <trkpt lat="42.80854" lon="-0.254">
        <ele>2410</ele>
        <time>2016-03-27T11:42:54Z</time>
      </trkpt>
      <trkpt lat="42.80849" lon="-0.25404">
        <ele>2414</ele>
        <time>2016-03-27T11:43:09Z</time>
      </trkpt>
      <trkpt lat="42.8084" lon="-0.25405">
        <ele>2421</ele>
        <time>2016-03-27T11:43:25Z</time>
      </trkpt>
      <trkpt lat="42.80844" lon="-0.25416">
        <ele>2419</ele>
        <time>2016-03-27T11:43:39Z</time>
      </trkpt>
      <trkpt lat="42.80846" lon="-0.25427">
        <ele>2417</ele>
        <time>2016-03-27T11:43:58Z</time>
      </trkpt>
      <trkpt lat="42.80843" lon="-0.25434">
        <ele>2419</ele>
        <time>2016-03-27T11:44:13Z</time>
      </trkpt>
      <trkpt lat="42.80844" lon="-0.25434">
        <ele>2418</ele>
        <time>2016-03-27T11:44:34Z</time>
      </trkpt>
      <trkpt lat="42.80844" lon="-0.2544">
        <ele>2418</ele>
        <time>2016-03-27T11:44:50Z</time>
      </trkpt>
      <trkpt lat="42.8084" lon="-0.25446">
        <ele>2420</ele>
        <time>2016-03-27T11:44:52Z</time>
      </trkpt>
      <trkpt lat="42.80828" lon="-0.25457">
        <ele>2426</ele>
        <time>2016-03-27T11:45:04Z</time>
      </trkpt>
      <trkpt lat="42.8082" lon="-0.25465">
        <ele>2427</ele>
        <time>2016-03-27T11:45:19Z</time>
      </trkpt>
      <trkpt lat="42.80817" lon="-0.25468">
        <ele>2428</ele>
        <time>2016-03-27T11:45:23Z</time>
      </trkpt>
      <trkpt lat="42.8081" lon="-0.25477">
        <ele>2429</ele>
        <time>2016-03-27T11:45:38Z</time>
      </trkpt>
      <trkpt lat="42.80799" lon="-0.25485">
        <ele>2432</ele>
        <time>2016-03-27T11:45:58Z</time>
      </trkpt>
      <trkpt lat="42.8079" lon="-0.25492">
        <ele>2434</ele>
        <time>2016-03-27T11:46:12Z</time>
      </trkpt>
      <trkpt lat="42.80797" lon="-0.25501">
        <ele>2433</ele>
        <time>2016-03-27T11:46:26Z</time>
      </trkpt>
      <trkpt lat="42.80802" lon="-0.2551">
        <ele>2432</ele>
        <time>2016-03-27T11:46:41Z</time>
      </trkpt>
      <trkpt lat="42.80802" lon="-0.25516">
        <ele>2433</ele>
        <time>2016-03-27T11:46:57Z</time>
      </trkpt>
      <trkpt lat="42.80792" lon="-0.25517">
        <ele>2436</ele>
        <time>2016-03-27T11:47:11Z</time>
      </trkpt>
      <trkpt lat="42.8079" lon="-0.25518">
        <ele>2437</ele>
        <time>2016-03-27T11:47:23Z</time>
      </trkpt>
      <trkpt lat="42.80784" lon="-0.25525">
        <ele>2440</ele>
        <time>2016-03-27T11:47:39Z</time>
      </trkpt>
      <trkpt lat="42.80777" lon="-0.25531">
        <ele>2443</ele>
        <time>2016-03-27T11:47:54Z</time>
      </trkpt>
      <trkpt lat="42.80767" lon="-0.25537">
        <ele>2447</ele>
        <time>2016-03-27T11:48:11Z</time>
      </trkpt>
      <trkpt lat="42.8076" lon="-0.25546">
        <ele>2451</ele>
        <time>2016-03-27T11:48:29Z</time>
      </trkpt>
      <trkpt lat="42.8075" lon="-0.25549">
        <ele>2455</ele>
        <time>2016-03-27T11:48:45Z</time>
      </trkpt>
      <trkpt lat="42.80752" lon="-0.25557">
        <ele>2456</ele>
        <time>2016-03-27T11:49:01Z</time>
      </trkpt>
      <trkpt lat="42.80754" lon="-0.25562">
        <ele>2457</ele>
        <time>2016-03-27T11:49:23Z</time>
      </trkpt>
      <trkpt lat="42.80755" lon="-0.25569">
        <ele>2457</ele>
        <time>2016-03-27T11:49:39Z</time>
      </trkpt>
      <trkpt lat="42.80756" lon="-0.25576">
        <ele>2458</ele>
        <time>2016-03-27T11:49:57Z</time>
      </trkpt>
      <trkpt lat="42.80745" lon="-0.2558">
        <ele>2462</ele>
        <time>2016-03-27T11:50:13Z</time>
      </trkpt>
      <trkpt lat="42.80736" lon="-0.2558">
        <ele>2462</ele>
        <time>2016-03-27T11:50:26Z</time>
      </trkpt>
      <trkpt lat="42.80728" lon="-0.25584">
        <ele>2464</ele>
        <time>2016-03-27T11:50:41Z</time>
      </trkpt>
      <trkpt lat="42.8072" lon="-0.25585">
        <ele>2464</ele>
        <time>2016-03-27T11:50:55Z</time>
      </trkpt>
      <trkpt lat="42.80709" lon="-0.25586">
        <ele>2465</ele>
        <time>2016-03-27T11:51:11Z</time>
      </trkpt>
      <trkpt lat="42.80701" lon="-0.25587">
        <ele>2466</ele>
        <time>2016-03-27T11:51:23Z</time>
      </trkpt>
      <trkpt lat="42.80693" lon="-0.25587">
        <ele>2466</ele>
        <time>2016-03-27T11:51:39Z</time>
      </trkpt>
      <trkpt lat="42.80689" lon="-0.25583">
        <ele>2466</ele>
        <time>2016-03-27T11:51:59Z</time>
      </trkpt>
      <trkpt lat="42.80678" lon="-0.25577">
        <ele>2465</ele>
        <time>2016-03-27T11:52:16Z</time>
      </trkpt>
      <trkpt lat="42.80667" lon="-0.25569">
        <ele>2464</ele>
        <time>2016-03-27T11:52:31Z</time>
      </trkpt>
      <trkpt lat="42.80657" lon="-0.25561">
        <ele>2464</ele>
        <time>2016-03-27T11:52:47Z</time>
      </trkpt>
      <trkpt lat="42.80647" lon="-0.25553">
        <ele>2464</ele>
        <time>2016-03-27T11:53:03Z</time>
      </trkpt>
      <trkpt lat="42.80636" lon="-0.2556">
        <ele>2467</ele>
        <time>2016-03-27T11:53:19Z</time>
      </trkpt>
      <trkpt lat="42.80627" lon="-0.2557">
        <ele>2470</ele>
        <time>2016-03-27T11:53:34Z</time>
      </trkpt>
      <trkpt lat="42.80618" lon="-0.25581">
        <ele>2473</ele>
        <time>2016-03-27T11:53:51Z</time>
      </trkpt>
      <trkpt lat="42.80609" lon="-0.25591">
        <ele>2475</ele>
        <time>2016-03-27T11:54:09Z</time>
      </trkpt>
      <trkpt lat="42.80602" lon="-0.25597">
        <ele>2477</ele>
        <time>2016-03-27T11:54:26Z</time>
      </trkpt>
      <trkpt lat="42.80593" lon="-0.25594">
        <ele>2477</ele>
        <time>2016-03-27T11:54:43Z</time>
      </trkpt>
      <trkpt lat="42.80585" lon="-0.25593">
        <ele>2478</ele>
        <time>2016-03-27T11:54:59Z</time>
      </trkpt>
      <trkpt lat="42.80583" lon="-0.25595">
        <ele>2479</ele>
        <time>2016-03-27T11:55:21Z</time>
      </trkpt>
      <trkpt lat="42.80584" lon="-0.256">
        <ele>2479</ele>
        <time>2016-03-27T11:55:40Z</time>
      </trkpt>
      <trkpt lat="42.80585" lon="-0.25619">
        <ele>2482</ele>
        <time>2016-03-27T11:55:56Z</time>
      </trkpt>
      <trkpt lat="42.80584" lon="-0.2564">
        <ele>2484</ele>
        <time>2016-03-27T11:56:13Z</time>
      </trkpt>
      <trkpt lat="42.80583" lon="-0.25649">
        <ele>2486</ele>
        <time>2016-03-27T11:56:28Z</time>
      </trkpt>
      <trkpt lat="42.8058" lon="-0.25657">
        <ele>2487</ele>
        <time>2016-03-27T11:56:41Z</time>
      </trkpt>
      <trkpt lat="42.80577" lon="-0.25668">
        <ele>2490</ele>
        <time>2016-03-27T11:56:56Z</time>
      </trkpt>
      <trkpt lat="42.80569" lon="-0.25681">
        <ele>2495</ele>
        <time>2016-03-27T11:57:12Z</time>
      </trkpt>
      <trkpt lat="42.8056" lon="-0.25674">
        <ele>2494</ele>
        <time>2016-03-27T11:57:26Z</time>
      </trkpt>
      <trkpt lat="42.80554" lon="-0.25667">
        <ele>2493</ele>
        <time>2016-03-27T11:57:40Z</time>
      </trkpt>
      <trkpt lat="42.8055" lon="-0.2566">
        <ele>2493</ele>
        <time>2016-03-27T11:57:52Z</time>
      </trkpt>
      <trkpt lat="42.80549" lon="-0.25669">
        <ele>2494</ele>
        <time>2016-03-27T11:58:05Z</time>
      </trkpt>
      <trkpt lat="42.80546" lon="-0.25668">
        <ele>2495</ele>
        <time>2016-03-27T11:58:20Z</time>
      </trkpt>
      <trkpt lat="42.80544" lon="-0.25662">
        <ele>2494</ele>
        <time>2016-03-27T11:58:37Z</time>
      </trkpt>
      <trkpt lat="42.80544" lon="-0.2566">
        <ele>2494</ele>
        <time>2016-03-27T11:58:44Z</time>
      </trkpt>
      <trkpt lat="42.8054" lon="-0.25664">
        <ele>2495</ele>
        <time>2016-03-27T11:58:56Z</time>
      </trkpt>
      <trkpt lat="42.80535" lon="-0.25665">
        <ele>2496</ele>
        <time>2016-03-27T11:59:12Z</time>
      </trkpt>
      <trkpt lat="42.80536" lon="-0.25658">
        <ele>2495</ele>
        <time>2016-03-27T11:59:26Z</time>
      </trkpt>
      <trkpt lat="42.80532" lon="-0.25657">
        <ele>2495</ele>
        <time>2016-03-27T11:59:40Z</time>
      </trkpt>
      <trkpt lat="42.8053" lon="-0.25658">
        <ele>2496</ele>
        <time>2016-03-27T11:59:44Z</time>
      </trkpt>
      <trkpt lat="42.80525" lon="-0.2566">
        <ele>2497</ele>
        <time>2016-03-27T12:00:00Z</time>
      </trkpt>
      <trkpt lat="42.80519" lon="-0.25665">
        <ele>2499</ele>
        <time>2016-03-27T12:00:15Z</time>
      </trkpt>
      <trkpt lat="42.80515" lon="-0.25667">
        <ele>2500</ele>
        <time>2016-03-27T12:00:25Z</time>
      </trkpt>
      <trkpt lat="42.8051" lon="-0.25669">
        <ele>2501</ele>
        <time>2016-03-27T12:00:38Z</time>
      </trkpt>
      <trkpt lat="42.80504" lon="-0.2567">
        <ele>2502</ele>
        <time>2016-03-27T12:00:55Z</time>
      </trkpt>
      <trkpt lat="42.80499" lon="-0.25673">
        <ele>2504</ele>
        <time>2016-03-27T12:01:10Z</time>
      </trkpt>
      <trkpt lat="42.80496" lon="-0.25676">
        <ele>2506</ele>
        <time>2016-03-27T12:01:24Z</time>
      </trkpt>
      <trkpt lat="42.80492" lon="-0.25687">
        <ele>2510</ele>
        <time>2016-03-27T12:01:41Z</time>
      </trkpt>
      <trkpt lat="42.80498" lon="-0.25692">
        <ele>2510</ele>
        <time>2016-03-27T12:01:56Z</time>
      </trkpt>
      <trkpt lat="42.80495" lon="-0.25699">
        <ele>2513</ele>
        <time>2016-03-27T12:02:11Z</time>
      </trkpt>
      <trkpt lat="42.80497" lon="-0.25703">
        <ele>2514</ele>
        <time>2016-03-27T12:02:25Z</time>
      </trkpt>
      <trkpt lat="42.80502" lon="-0.25705">
        <ele>2513</ele>
        <time>2016-03-27T12:02:38Z</time>
      </trkpt>
      <trkpt lat="42.80501" lon="-0.25706">
        <ele>2514</ele>
        <time>2016-03-27T12:03:01Z</time>
      </trkpt>
      <trkpt lat="42.80496" lon="-0.25711">
        <ele>2516</ele>
        <time>2016-03-27T12:03:21Z</time>
      </trkpt>
      <trkpt lat="42.80495" lon="-0.25723">
        <ele>2520</ele>
        <time>2016-03-27T12:03:35Z</time>
      </trkpt>
      <trkpt lat="42.80492" lon="-0.25735">
        <ele>2524</ele>
        <time>2016-03-27T12:03:52Z</time>
      </trkpt>
      <trkpt lat="42.80489" lon="-0.25748">
        <ele>2529</ele>
        <time>2016-03-27T12:04:11Z</time>
      </trkpt>
      <trkpt lat="42.80487" lon="-0.25757">
        <ele>2532</ele>
        <time>2016-03-27T12:04:26Z</time>
      </trkpt>
      <trkpt lat="42.8048" lon="-0.25767">
        <ele>2537</ele>
        <time>2016-03-27T12:04:39Z</time>
      </trkpt>
      <trkpt lat="42.80472" lon="-0.25777">
        <ele>2542</ele>
        <time>2016-03-27T12:04:55Z</time>
      </trkpt>
      <trkpt lat="42.80471" lon="-0.2578">
        <ele>2543</ele>
        <time>2016-03-27T12:05:13Z</time>
      </trkpt>
      <trkpt lat="42.80472" lon="-0.25774">
        <ele>2540</ele>
        <time>2016-03-27T12:05:34Z</time>
      </trkpt>
      <trkpt lat="42.80473" lon="-0.25769">
        <ele>2539</ele>
        <time>2016-03-27T12:05:59Z</time>
      </trkpt>
      <trkpt lat="42.80474" lon="-0.25768">
        <ele>2538</ele>
        <time>2016-03-27T12:06:24Z</time>
      </trkpt>
      <trkpt lat="42.80473" lon="-0.25768">
        <ele>2538</ele>
        <time>2016-03-27T12:06:27Z</time>
      </trkpt>
      <trkpt lat="42.80471" lon="-0.25774">
        <ele>2541</ele>
        <time>2016-03-27T12:06:48Z</time>
      </trkpt>
      <trkpt lat="42.80467" lon="-0.25781">
        <ele>2544</ele>
        <time>2016-03-27T12:07:19Z</time>
      </trkpt>
      <trkpt lat="42.80468" lon="-0.25782">
        <ele>2544</ele>
        <time>2016-03-27T12:07:46Z</time>
      </trkpt>
      <trkpt lat="42.80469" lon="-0.25781">
        <ele>2543</ele>
        <time>2016-03-27T12:08:02Z</time>
      </trkpt>
      <trkpt lat="42.80468" lon="-0.25778">
        <ele>2543</ele>
        <time>2016-03-27T12:08:25Z</time>
      </trkpt>
      <trkpt lat="42.80468" lon="-0.25776">
        <ele>2542</ele>
        <time>2016-03-27T12:08:58Z</time>
      </trkpt>
      <trkpt lat="42.80467" lon="-0.25778">
        <ele>2543</ele>
        <time>2016-03-27T12:09:27Z</time>
      </trkpt>
      <trkpt lat="42.80466" lon="-0.25777">
        <ele>2543</ele>
        <time>2016-03-27T12:09:48Z</time>
      </trkpt>
      <trkpt lat="42.80467" lon="-0.25778">
        <ele>2543</ele>
        <time>2016-03-27T12:10:08Z</time>
      </trkpt>
      <trkpt lat="42.80469" lon="-0.25776">
        <ele>2542</ele>
        <time>2016-03-27T12:10:32Z</time>
      </trkpt>
      <trkpt lat="42.8047" lon="-0.25777">
        <ele>2542</ele>
        <time>2016-03-27T12:10:59Z</time>
      </trkpt>
      <trkpt lat="42.80469" lon="-0.25778">
        <ele>2542</ele>
        <time>2016-03-27T12:11:19Z</time>
      </trkpt>
      <trkpt lat="42.8047" lon="-0.25774">
        <ele>2541</ele>
        <time>2016-03-27T12:11:41Z</time>
      </trkpt>
      <trkpt lat="42.80471" lon="-0.25775">
        <ele>2541</ele>
        <time>2016-03-27T12:11:59Z</time>
      </trkpt>
      <trkpt lat="42.80469" lon="-0.25774">
        <ele>2541</ele>
        <time>2016-03-27T12:12:23Z</time>
      </trkpt>
      <trkpt lat="42.80467" lon="-0.25781">
        <ele>2544</ele>
        <time>2016-03-27T12:12:41Z</time>
      </trkpt>
      <trkpt lat="42.80468" lon="-0.25784">
        <ele>2544</ele>
        <time>2016-03-27T12:13:03Z</time>
      </trkpt>
      <trkpt lat="42.80466" lon="-0.25786">
        <ele>2545</ele>
        <time>2016-03-27T12:13:19Z</time>
      </trkpt>
      <trkpt lat="42.80461" lon="-0.25793">
        <ele>2548</ele>
        <time>2016-03-27T12:13:33Z</time>
      </trkpt>
      <trkpt lat="42.80459" lon="-0.258">
        <ele>2551</ele>
        <time>2016-03-27T12:13:43Z</time>
      </trkpt>
      <trkpt lat="42.80451" lon="-0.25819">
        <ele>2558</ele>
        <time>2016-03-27T12:14:02Z</time>
      </trkpt>
      <trkpt lat="42.8045" lon="-0.25822">
        <ele>2559</ele>
        <time>2016-03-27T12:14:05Z</time>
      </trkpt>
      <trkpt lat="42.80448" lon="-0.25834">
        <ele>2563</ele>
        <time>2016-03-27T12:14:18Z</time>
      </trkpt>
      <trkpt lat="42.80443" lon="-0.25847">
        <ele>2566</ele>
        <time>2016-03-27T12:14:33Z</time>
      </trkpt>
      <trkpt lat="42.80438" lon="-0.25859">
        <ele>2568</ele>
        <time>2016-03-27T12:14:48Z</time>
      </trkpt>
      <trkpt lat="42.80432" lon="-0.25872">
        <ele>2571</ele>
        <time>2016-03-27T12:15:04Z</time>
      </trkpt>
      <trkpt lat="42.80424" lon="-0.25887">
        <ele>2575</ele>
        <time>2016-03-27T12:15:23Z</time>
      </trkpt>
      <trkpt lat="42.80418" lon="-0.25899">
        <ele>2578</ele>
        <time>2016-03-27T12:15:41Z</time>
      </trkpt>
      <trkpt lat="42.80413" lon="-0.2591">
        <ele>2580</ele>
        <time>2016-03-27T12:15:56Z</time>
      </trkpt>
      <trkpt lat="42.80409" lon="-0.2592">
        <ele>2581</ele>
        <time>2016-03-27T12:16:10Z</time>
      </trkpt>
      <trkpt lat="42.80408" lon="-0.25932">
        <ele>2583</ele>
        <time>2016-03-27T12:16:25Z</time>
      </trkpt>
      <trkpt lat="42.80407" lon="-0.25937">
        <ele>2583</ele>
        <time>2016-03-27T12:16:36Z</time>
      </trkpt>
      <trkpt lat="42.80408" lon="-0.25949">
        <ele>2585</ele>
        <time>2016-03-27T12:16:50Z</time>
      </trkpt>
      <trkpt lat="42.80405" lon="-0.25959">
        <ele>2586</ele>
        <time>2016-03-27T12:17:05Z</time>
      </trkpt>
      <trkpt lat="42.80405" lon="-0.2597">
        <ele>2588</ele>
        <time>2016-03-27T12:17:22Z</time>
      </trkpt>
      <trkpt lat="42.80411" lon="-0.25981">
        <ele>2591</ele>
        <time>2016-03-27T12:17:37Z</time>
      </trkpt>
      <trkpt lat="42.80419" lon="-0.25989">
        <ele>2593</ele>
        <time>2016-03-27T12:17:52Z</time>
      </trkpt>
      <trkpt lat="42.80422" lon="-0.25996">
        <ele>2593</ele>
        <time>2016-03-27T12:18:07Z</time>
      </trkpt>
      <trkpt lat="42.80419" lon="-0.26007">
        <ele>2596</ele>
        <time>2016-03-27T12:18:18Z</time>
      </trkpt>
      <trkpt lat="42.80414" lon="-0.26017">
        <ele>2597</ele>
        <time>2016-03-27T12:18:29Z</time>
      </trkpt>
      <trkpt lat="42.80412" lon="-0.26025">
        <ele>2598</ele>
        <time>2016-03-27T12:18:41Z</time>
      </trkpt>
      <trkpt lat="42.8041" lon="-0.26035">
        <ele>2599</ele>
        <time>2016-03-27T12:18:53Z</time>
      </trkpt>
      <trkpt lat="42.8041" lon="-0.26048">
        <ele>2601</ele>
        <time>2016-03-27T12:19:09Z</time>
      </trkpt>
      <trkpt lat="42.80407" lon="-0.26062">
        <ele>2603</ele>
        <time>2016-03-27T12:19:25Z</time>
      </trkpt>
      <trkpt lat="42.80405" lon="-0.26071">
        <ele>2604</ele>
        <time>2016-03-27T12:19:38Z</time>
      </trkpt>
      <trkpt lat="42.80404" lon="-0.26077">
        <ele>2604</ele>
        <time>2016-03-27T12:19:44Z</time>
      </trkpt>
      <trkpt lat="42.80402" lon="-0.26088">
        <ele>2606</ele>
        <time>2016-03-27T12:19:54Z</time>
      </trkpt>
      <trkpt lat="42.80399" lon="-0.26103">
        <ele>2609</ele>
        <time>2016-03-27T12:20:09Z</time>
      </trkpt>
      <trkpt lat="42.80398" lon="-0.26106">
        <ele>2609</ele>
        <time>2016-03-27T12:20:12Z</time>
      </trkpt>
      <trkpt lat="42.80393" lon="-0.2613">
        <ele>2614</ele>
        <time>2016-03-27T12:20:25Z</time>
      </trkpt>
      <trkpt lat="42.80389" lon="-0.26149">
        <ele>2616</ele>
        <time>2016-03-27T12:20:33Z</time>
      </trkpt>
      <trkpt lat="42.80381" lon="-0.2618">
        <ele>2619</ele>
        <time>2016-03-27T12:20:44Z</time>
      </trkpt>
      <trkpt lat="42.80376" lon="-0.26198">
        <ele>2621</ele>
        <time>2016-03-27T12:20:57Z</time>
      </trkpt>
      <trkpt lat="42.80375" lon="-0.26204">
        <ele>2621</ele>
        <time>2016-03-27T12:21:00Z</time>
      </trkpt>
      <trkpt lat="42.80369" lon="-0.26228">
        <ele>2623</ele>
        <time>2016-03-27T12:21:15Z</time>
      </trkpt>
      <trkpt lat="42.80368" lon="-0.26235">
        <ele>2623</ele>
        <time>2016-03-27T12:21:19Z</time>
      </trkpt>
      <trkpt lat="42.80364" lon="-0.26256">
        <ele>2624</ele>
        <time>2016-03-27T12:21:34Z</time>
      </trkpt>
      <trkpt lat="42.80358" lon="-0.26278">
        <ele>2621</ele>
        <time>2016-03-27T12:21:50Z</time>
      </trkpt>
      <trkpt lat="42.80352" lon="-0.263">
        <ele>2618</ele>
        <time>2016-03-27T12:22:06Z</time>
      </trkpt>
      <trkpt lat="42.80347" lon="-0.26318">
        <ele>2615</ele>
        <time>2016-03-27T12:22:21Z</time>
      </trkpt>
      <trkpt lat="42.80344" lon="-0.26329">
        <ele>2614</ele>
        <time>2016-03-27T12:22:32Z</time>
      </trkpt>
      <trkpt lat="42.80343" lon="-0.26337">
        <ele>2612</ele>
        <time>2016-03-27T12:22:42Z</time>
      </trkpt>
      <trkpt lat="42.80337" lon="-0.26358">
        <ele>2603</ele>
        <time>2016-03-27T12:22:58Z</time>
      </trkpt>
      <trkpt lat="42.80337" lon="-0.26359">
        <ele>2602</ele>
        <time>2016-03-27T12:22:59Z</time>
      </trkpt>
      <trkpt lat="42.80326" lon="-0.26378">
        <ele>2593</ele>
        <time>2016-03-27T12:23:15Z</time>
      </trkpt>
      <trkpt lat="42.80318" lon="-0.26393">
        <ele>2587</ele>
        <time>2016-03-27T12:23:30Z</time>
      </trkpt>
      <trkpt lat="42.80315" lon="-0.26398">
        <ele>2585</ele>
        <time>2016-03-27T12:23:36Z</time>
      </trkpt>
      <trkpt lat="42.80309" lon="-0.26405">
        <ele>2582</ele>
        <time>2016-03-27T12:23:44Z</time>
      </trkpt>
      <trkpt lat="42.80301" lon="-0.26418">
        <ele>2577</ele>
        <time>2016-03-27T12:23:58Z</time>
      </trkpt>
      <trkpt lat="42.80294" lon="-0.26432">
        <ele>2572</ele>
        <time>2016-03-27T12:24:12Z</time>
      </trkpt>
      <trkpt lat="42.80287" lon="-0.26457">
        <ele>2565</ele>
        <time>2016-03-27T12:24:28Z</time>
      </trkpt>
      <trkpt lat="42.80282" lon="-0.26468">
        <ele>2562</ele>
        <time>2016-03-27T12:24:41Z</time>
      </trkpt>
      <trkpt lat="42.80278" lon="-0.26483">
        <ele>2558</ele>
        <time>2016-03-27T12:24:56Z</time>
      </trkpt>
      <trkpt lat="42.80268" lon="-0.26502">
        <ele>2553</ele>
        <time>2016-03-27T12:25:11Z</time>
      </trkpt>
      <trkpt lat="42.80267" lon="-0.26503">
        <ele>2552</ele>
        <time>2016-03-27T12:25:34Z</time>
      </trkpt>
      <trkpt lat="42.80262" lon="-0.26501">
        <ele>2552</ele>
        <time>2016-03-27T12:25:51Z</time>
      </trkpt>
      <trkpt lat="42.80259" lon="-0.26497">
        <ele>2553</ele>
        <time>2016-03-27T12:26:04Z</time>
      </trkpt>
      <trkpt lat="42.80261" lon="-0.26488">
        <ele>2555</ele>
        <time>2016-03-27T12:26:21Z</time>
      </trkpt>
      <trkpt lat="42.80263" lon="-0.2648">
        <ele>2557</ele>
        <time>2016-03-27T12:26:37Z</time>
      </trkpt>
      <trkpt lat="42.8026" lon="-0.26476">
        <ele>2557</ele>
        <time>2016-03-27T12:26:51Z</time>
      </trkpt>
      <trkpt lat="42.80253" lon="-0.26481">
        <ele>2555</ele>
        <time>2016-03-27T12:27:06Z</time>
      </trkpt>
      <trkpt lat="42.80248" lon="-0.26484">
        <ele>2555</ele>
        <time>2016-03-27T12:27:23Z</time>
      </trkpt>
      <trkpt lat="42.8024" lon="-0.2649">
        <ele>2556</ele>
        <time>2016-03-27T12:27:41Z</time>
      </trkpt>
      <trkpt lat="42.80237" lon="-0.26495">
        <ele>2556</ele>
        <time>2016-03-27T12:27:55Z</time>
      </trkpt>
      <trkpt lat="42.80237" lon="-0.26503">
        <ele>2554</ele>
        <time>2016-03-27T12:28:12Z</time>
      </trkpt>
      <trkpt lat="42.80231" lon="-0.26508">
        <ele>2555</ele>
        <time>2016-03-27T12:28:29Z</time>
      </trkpt>
      <trkpt lat="42.80229" lon="-0.2651">
        <ele>2555</ele>
        <time>2016-03-27T12:28:34Z</time>
      </trkpt>
      <trkpt lat="42.80229" lon="-0.26512">
        <ele>2555</ele>
        <time>2016-03-27T12:28:36Z</time>
      </trkpt>
      <trkpt lat="42.80226" lon="-0.26515">
        <ele>2555</ele>
        <time>2016-03-27T12:28:45Z</time>
      </trkpt>
      <trkpt lat="42.80223" lon="-0.26515">
        <ele>2556</ele>
        <time>2016-03-27T12:28:51Z</time>
      </trkpt>
      <trkpt lat="42.80216" lon="-0.26518">
        <ele>2557</ele>
        <time>2016-03-27T12:29:07Z</time>
      </trkpt>
      <trkpt lat="42.80215" lon="-0.26517">
        <ele>2558</ele>
        <time>2016-03-27T12:29:34Z</time>
      </trkpt>
      <trkpt lat="42.80214" lon="-0.26516">
        <ele>2558</ele>
        <time>2016-03-27T12:29:57Z</time>
      </trkpt>
      <trkpt lat="42.80215" lon="-0.26517">
        <ele>2558</ele>
        <time>2016-03-27T12:30:19Z</time>
      </trkpt>
      <trkpt lat="42.80215" lon="-0.26519">
        <ele>2557</ele>
        <time>2016-03-27T12:30:39Z</time>
      </trkpt>
      <trkpt lat="42.80214" lon="-0.26518">
        <ele>2558</ele>
        <time>2016-03-27T12:31:10Z</time>
      </trkpt>
      <trkpt lat="42.80213" lon="-0.26515">
        <ele>2558</ele>
        <time>2016-03-27T12:31:31Z</time>
      </trkpt>
      <trkpt lat="42.80213" lon="-0.26511">
        <ele>2559</ele>
        <time>2016-03-27T12:31:53Z</time>
      </trkpt>
      <trkpt lat="42.80214" lon="-0.26514">
        <ele>2559</ele>
        <time>2016-03-27T12:32:18Z</time>
      </trkpt>
      <trkpt lat="42.80213" lon="-0.26518">
        <ele>2558</ele>
        <time>2016-03-27T12:32:43Z</time>
      </trkpt>
      <trkpt lat="42.80214" lon="-0.2652">
        <ele>2557</ele>
        <time>2016-03-27T12:33:15Z</time>
      </trkpt>
      <trkpt lat="42.80213" lon="-0.26519">
        <ele>2558</ele>
        <time>2016-03-27T12:33:43Z</time>
      </trkpt>
      <trkpt lat="42.80199" lon="-0.26516">
        <ele>2562</ele>
        <time>2016-03-27T12:34:02Z</time>
      </trkpt>
      <trkpt lat="42.8019" lon="-0.26514">
        <ele>2565</ele>
        <time>2016-03-27T12:34:17Z</time>
      </trkpt>
      <trkpt lat="42.8018" lon="-0.26512">
        <ele>2568</ele>
        <time>2016-03-27T12:34:33Z</time>
      </trkpt>
      <trkpt lat="42.80171" lon="-0.26515">
        <ele>2570</ele>
        <time>2016-03-27T12:34:49Z</time>
      </trkpt>
      <trkpt lat="42.80162" lon="-0.26518">
        <ele>2571</ele>
        <time>2016-03-27T12:35:07Z</time>
      </trkpt>
      <trkpt lat="42.80156" lon="-0.26522">
        <ele>2572</ele>
        <time>2016-03-27T12:35:23Z</time>
      </trkpt>
      <trkpt lat="42.80149" lon="-0.26526">
        <ele>2573</ele>
        <time>2016-03-27T12:35:39Z</time>
      </trkpt>
      <trkpt lat="42.80143" lon="-0.2653">
        <ele>2573</ele>
        <time>2016-03-27T12:35:57Z</time>
      </trkpt>
      <trkpt lat="42.80136" lon="-0.26534">
        <ele>2574</ele>
        <time>2016-03-27T12:36:14Z</time>
      </trkpt>
      <trkpt lat="42.80128" lon="-0.26536">
        <ele>2575</ele>
        <time>2016-03-27T12:36:32Z</time>
      </trkpt>
      <trkpt lat="42.80119" lon="-0.26538">
        <ele>2577</ele>
        <time>2016-03-27T12:36:50Z</time>
      </trkpt>
      <trkpt lat="42.80111" lon="-0.2654">
        <ele>2578</ele>
        <time>2016-03-27T12:37:06Z</time>
      </trkpt>
      <trkpt lat="42.80104" lon="-0.26544">
        <ele>2579</ele>
        <time>2016-03-27T12:37:23Z</time>
      </trkpt>
      <trkpt lat="42.80095" lon="-0.26546">
        <ele>2581</ele>
        <time>2016-03-27T12:37:42Z</time>
      </trkpt>
      <trkpt lat="42.80087" lon="-0.26549">
        <ele>2582</ele>
        <time>2016-03-27T12:37:58Z</time>
      </trkpt>
      <trkpt lat="42.8008" lon="-0.26555">
        <ele>2581</ele>
        <time>2016-03-27T12:38:16Z</time>
      </trkpt>
      <trkpt lat="42.80076" lon="-0.26551">
        <ele>2584</ele>
        <time>2016-03-27T12:38:32Z</time>
      </trkpt>
      <trkpt lat="42.80073" lon="-0.26546">
        <ele>2587</ele>
        <time>2016-03-27T12:38:45Z</time>
      </trkpt>
      <trkpt lat="42.80067" lon="-0.26543">
        <ele>2590</ele>
        <time>2016-03-27T12:39:01Z</time>
      </trkpt>
      <trkpt lat="42.80062" lon="-0.2655">
        <ele>2589</ele>
        <time>2016-03-27T12:39:20Z</time>
      </trkpt>
      <trkpt lat="42.80057" lon="-0.26556">
        <ele>2588</ele>
        <time>2016-03-27T12:39:35Z</time>
      </trkpt>
      <trkpt lat="42.80052" lon="-0.26567">
        <ele>2586</ele>
        <time>2016-03-27T12:39:53Z</time>
      </trkpt>
      <trkpt lat="42.80046" lon="-0.26573">
        <ele>2586</ele>
        <time>2016-03-27T12:40:10Z</time>
      </trkpt>
      <trkpt lat="42.8004" lon="-0.26578">
        <ele>2586</ele>
        <time>2016-03-27T12:40:28Z</time>
      </trkpt>
      <trkpt lat="42.80036" lon="-0.2658">
        <ele>2586</ele>
        <time>2016-03-27T12:40:41Z</time>
      </trkpt>
      <trkpt lat="42.8003" lon="-0.26585">
        <ele>2586</ele>
        <time>2016-03-27T12:40:57Z</time>
      </trkpt>
      <trkpt lat="42.8003" lon="-0.26585">
        <ele>2586</ele>
        <time>2016-03-27T12:41:11Z</time>
      </trkpt>
      <trkpt lat="42.80029" lon="-0.26584">
        <ele>2587</ele>
        <time>2016-03-27T12:41:36Z</time>
      </trkpt>
      <trkpt lat="42.80019" lon="-0.26588">
        <ele>2589</ele>
        <time>2016-03-27T12:41:52Z</time>
      </trkpt>
      <trkpt lat="42.80016" lon="-0.26589">
        <ele>2590</ele>
        <time>2016-03-27T12:41:56Z</time>
      </trkpt>
      <trkpt lat="42.80004" lon="-0.26591">
        <ele>2593</ele>
        <time>2016-03-27T12:42:12Z</time>
      </trkpt>
      <trkpt lat="42.7999" lon="-0.26593">
        <ele>2597</ele>
        <time>2016-03-27T12:42:31Z</time>
      </trkpt>
      <trkpt lat="42.79978" lon="-0.26595">
        <ele>2599</ele>
        <time>2016-03-27T12:42:49Z</time>
      </trkpt>
      <trkpt lat="42.79972" lon="-0.26593">
        <ele>2602</ele>
        <time>2016-03-27T12:43:13Z</time>
      </trkpt>
      <trkpt lat="42.79952" lon="-0.26596">
        <ele>2607</ele>
        <time>2016-03-27T12:43:28Z</time>
      </trkpt>
      <trkpt lat="42.79933" lon="-0.26603">
        <ele>2610</ele>
        <time>2016-03-27T12:43:42Z</time>
      </trkpt>
      <trkpt lat="42.79927" lon="-0.26602">
        <ele>2612</ele>
        <time>2016-03-27T12:43:56Z</time>
      </trkpt>
      <trkpt lat="42.79927" lon="-0.26602">
        <ele>2612</ele>
        <time>2016-03-27T12:44:18Z</time>
      </trkpt>
      <trkpt lat="42.79926" lon="-0.26604">
        <ele>2612</ele>
        <time>2016-03-27T12:44:44Z</time>
      </trkpt>
      <trkpt lat="42.79926" lon="-0.26603">
        <ele>2612</ele>
        <time>2016-03-27T12:45:12Z</time>
      </trkpt>
      <trkpt lat="42.79925" lon="-0.26604">
        <ele>2612</ele>
        <time>2016-03-27T12:45:37Z</time>
      </trkpt>
      <trkpt lat="42.79925" lon="-0.26606">
        <ele>2612</ele>
        <time>2016-03-27T12:45:53Z</time>
      </trkpt>
      <trkpt lat="42.79925" lon="-0.26608">
        <ele>2611</ele>
        <time>2016-03-27T12:46:12Z</time>
      </trkpt>
      <trkpt lat="42.79925" lon="-0.2661">
        <ele>2611</ele>
        <time>2016-03-27T12:46:35Z</time>
      </trkpt>
      <trkpt lat="42.79926" lon="-0.26609">
        <ele>2610</ele>
        <time>2016-03-27T12:47:04Z</time>
      </trkpt>
      <trkpt lat="42.79925" lon="-0.26606">
        <ele>2612</ele>
        <time>2016-03-27T12:47:14Z</time>
      </trkpt>
      <trkpt lat="42.79925" lon="-0.26609">
        <ele>2611</ele>
        <time>2016-03-27T12:47:49Z</time>
      </trkpt>
      <trkpt lat="42.79924" lon="-0.26609">
        <ele>2611</ele>
        <time>2016-03-27T12:48:28Z</time>
      </trkpt>
      <trkpt lat="42.79925" lon="-0.26606">
        <ele>2612</ele>
        <time>2016-03-27T12:49:09Z</time>
      </trkpt>
      <trkpt lat="42.79925" lon="-0.26609">
        <ele>2611</ele>
        <time>2016-03-27T12:49:34Z</time>
      </trkpt>
      <trkpt lat="42.79925" lon="-0.26609">
        <ele>2611</ele>
        <time>2016-03-27T12:50:05Z</time>
      </trkpt>
      <trkpt lat="42.79925" lon="-0.2661">
        <ele>2610</ele>
        <time>2016-03-27T12:50:24Z</time>
      </trkpt>
      <trkpt lat="42.79927" lon="-0.26607">
        <ele>2611</ele>
        <time>2016-03-27T12:50:57Z</time>
      </trkpt>
      <trkpt lat="42.79926" lon="-0.26611">
        <ele>2610</ele>
        <time>2016-03-27T12:51:37Z</time>
      </trkpt>
      <trkpt lat="42.79925" lon="-0.26607">
        <ele>2611</ele>
        <time>2016-03-27T12:52:18Z</time>
      </trkpt>
      <trkpt lat="42.79925" lon="-0.26607">
        <ele>2611</ele>
        <time>2016-03-27T12:52:32Z</time>
      </trkpt>
      <trkpt lat="42.79927" lon="-0.26607">
        <ele>2611</ele>
        <time>2016-03-27T12:53:19Z</time>
      </trkpt>
      <trkpt lat="42.79927" lon="-0.26608">
        <ele>2611</ele>
        <time>2016-03-27T12:53:38Z</time>
      </trkpt>
      <trkpt lat="42.79927" lon="-0.26606">
        <ele>2611</ele>
        <time>2016-03-27T12:53:40Z</time>
      </trkpt>
      <trkpt lat="42.79927" lon="-0.26605">
        <ele>2612</ele>
        <time>2016-03-27T12:53:43Z</time>
      </trkpt>
      <trkpt lat="42.79926" lon="-0.26605">
        <ele>2612</ele>
        <time>2016-03-27T12:53:46Z</time>
      </trkpt>
      <trkpt lat="42.79925" lon="-0.26605">
        <ele>2612</ele>
        <time>2016-03-27T12:53:56Z</time>
      </trkpt>
      <trkpt lat="42.79915" lon="-0.26607">
        <ele>2614</ele>
        <time>2016-03-27T12:54:00Z</time>
      </trkpt>
      <trkpt lat="42.79884" lon="-0.26613">
        <ele>2617</ele>
        <time>2016-03-27T12:54:05Z</time>
      </trkpt>
      <trkpt lat="42.79879" lon="-0.26613">
        <ele>2617</ele>
        <time>2016-03-27T12:54:06Z</time>
      </trkpt>
      <trkpt lat="42.79866" lon="-0.26616">
        <ele>2618</ele>
        <time>2016-03-27T12:54:10Z</time>
      </trkpt>
      <trkpt lat="42.79863" lon="-0.26616">
        <ele>2618</ele>
        <time>2016-03-27T12:54:22Z</time>
      </trkpt>
      <trkpt lat="42.79851" lon="-0.26613">
        <ele>2621</ele>
        <time>2016-03-27T12:54:34Z</time>
      </trkpt>
      <trkpt lat="42.79842" lon="-0.26609">
        <ele>2623</ele>
        <time>2016-03-27T12:54:36Z</time>
      </trkpt>
      <trkpt lat="42.79823" lon="-0.26603">
        <ele>2625</ele>
        <time>2016-03-27T12:54:40Z</time>
      </trkpt>
      <trkpt lat="42.79818" lon="-0.26611">
        <ele>2621</ele>
        <time>2016-03-27T12:54:42Z</time>
      </trkpt>
      <trkpt lat="42.79811" lon="-0.26635">
        <ele>2613</ele>
        <time>2016-03-27T12:54:45Z</time>
      </trkpt>
      <trkpt lat="42.79808" lon="-0.26644">
        <ele>2610</ele>
        <time>2016-03-27T12:54:46Z</time>
      </trkpt>
      <trkpt lat="42.79803" lon="-0.26651">
        <ele>2606</ele>
        <time>2016-03-27T12:54:47Z</time>
      </trkpt>
      <trkpt lat="42.79795" lon="-0.26657">
        <ele>2603</ele>
        <time>2016-03-27T12:54:48Z</time>
      </trkpt>
      <trkpt lat="42.79787" lon="-0.26661">
        <ele>2600</ele>
        <time>2016-03-27T12:54:49Z</time>
      </trkpt>
      <trkpt lat="42.79769" lon="-0.26669">
        <ele>2594</ele>
        <time>2016-03-27T12:54:51Z</time>
      </trkpt>
      <trkpt lat="42.79753" lon="-0.26682">
        <ele>2587</ele>
        <time>2016-03-27T12:54:54Z</time>
      </trkpt>
      <trkpt lat="42.79748" lon="-0.26686">
        <ele>2586</ele>
        <time>2016-03-27T12:54:55Z</time>
      </trkpt>
      <trkpt lat="42.7971" lon="-0.26699">
        <ele>2579</ele>
        <time>2016-03-27T12:55:04Z</time>
      </trkpt>
      <trkpt lat="42.79699" lon="-0.26705">
        <ele>2577</ele>
        <time>2016-03-27T12:55:06Z</time>
      </trkpt>
      <trkpt lat="42.79684" lon="-0.26714">
        <ele>2573</ele>
        <time>2016-03-27T12:55:08Z</time>
      </trkpt>
      <trkpt lat="42.79668" lon="-0.2673">
        <ele>2568</ele>
        <time>2016-03-27T12:55:10Z</time>
      </trkpt>
      <trkpt lat="42.7965" lon="-0.26758">
        <ele>2560</ele>
        <time>2016-03-27T12:55:13Z</time>
      </trkpt>
      <trkpt lat="42.79647" lon="-0.26765">
        <ele>2557</ele>
        <time>2016-03-27T12:55:14Z</time>
      </trkpt>
      <trkpt lat="42.7964" lon="-0.26772">
        <ele>2555</ele>
        <time>2016-03-27T12:55:16Z</time>
      </trkpt>
      <trkpt lat="42.7962" lon="-0.26783">
        <ele>2554</ele>
        <time>2016-03-27T12:55:23Z</time>
      </trkpt>
      <trkpt lat="42.79603" lon="-0.26803">
        <ele>2551</ele>
        <time>2016-03-27T12:55:27Z</time>
      </trkpt>
      <trkpt lat="42.79599" lon="-0.26827">
        <ele>2547</ele>
        <time>2016-03-27T12:55:29Z</time>
      </trkpt>
      <trkpt lat="42.79594" lon="-0.26855">
        <ele>2540</ele>
        <time>2016-03-27T12:55:31Z</time>
      </trkpt>
      <trkpt lat="42.7958" lon="-0.26874">
        <ele>2537</ele>
        <time>2016-03-27T12:55:33Z</time>
      </trkpt>
      <trkpt lat="42.79566" lon="-0.26888">
        <ele>2536</ele>
        <time>2016-03-27T12:55:35Z</time>
      </trkpt>
      <trkpt lat="42.79557" lon="-0.26902">
        <ele>2535</ele>
        <time>2016-03-27T12:55:38Z</time>
      </trkpt>
      <trkpt lat="42.79558" lon="-0.26904">
        <ele>2534</ele>
        <time>2016-03-27T12:55:39Z</time>
      </trkpt>
      <trkpt lat="42.79565" lon="-0.26899">
        <ele>2534</ele>
        <time>2016-03-27T12:55:43Z</time>
      </trkpt>
      <trkpt lat="42.79569" lon="-0.2689">
        <ele>2535</ele>
        <time>2016-03-27T12:55:58Z</time>
      </trkpt>
      <trkpt lat="42.7957" lon="-0.26893">
        <ele>2534</ele>
        <time>2016-03-27T12:56:11Z</time>
      </trkpt>
      <trkpt lat="42.7957" lon="-0.26895">
        <ele>2533</ele>
        <time>2016-03-27T12:56:42Z</time>
      </trkpt>
      <trkpt lat="42.79573" lon="-0.26891">
        <ele>2534</ele>
        <time>2016-03-27T12:57:10Z</time>
      </trkpt>
      <trkpt lat="42.79576" lon="-0.2689">
        <ele>2533</ele>
        <time>2016-03-27T12:57:43Z</time>
      </trkpt>
      <trkpt lat="42.79576" lon="-0.26891">
        <ele>2533</ele>
        <time>2016-03-27T12:58:05Z</time>
      </trkpt>
      <trkpt lat="42.79573" lon="-0.2689">
        <ele>2534</ele>
        <time>2016-03-27T12:58:44Z</time>
      </trkpt>
      <trkpt lat="42.79578" lon="-0.26889">
        <ele>2533</ele>
        <time>2016-03-27T12:59:21Z</time>
      </trkpt>
      <trkpt lat="42.79578" lon="-0.2689">
        <ele>2533</ele>
        <time>2016-03-27T12:59:51Z</time>
      </trkpt>
      <trkpt lat="42.79575" lon="-0.26893">
        <ele>2532</ele>
        <time>2016-03-27T13:00:29Z</time>
      </trkpt>
      <trkpt lat="42.7957" lon="-0.26895">
        <ele>2533</ele>
        <time>2016-03-27T13:01:02Z</time>
      </trkpt>
      <trkpt lat="42.79571" lon="-0.26896">
        <ele>2533</ele>
        <time>2016-03-27T13:01:32Z</time>
      </trkpt>
      <trkpt lat="42.79572" lon="-0.26892">
        <ele>2534</ele>
        <time>2016-03-27T13:01:59Z</time>
      </trkpt>
      <trkpt lat="42.79571" lon="-0.2689">
        <ele>2534</ele>
        <time>2016-03-27T13:02:29Z</time>
      </trkpt>
      <trkpt lat="42.7957" lon="-0.2689">
        <ele>2535</ele>
        <time>2016-03-27T13:02:40Z</time>
      </trkpt>
      <trkpt lat="42.7957" lon="-0.26889">
        <ele>2535</ele>
        <time>2016-03-27T13:03:00Z</time>
      </trkpt>
      <trkpt lat="42.79567" lon="-0.26889">
        <ele>2536</ele>
        <time>2016-03-27T13:03:36Z</time>
      </trkpt>
      <trkpt lat="42.79567" lon="-0.26891">
        <ele>2535</ele>
        <time>2016-03-27T13:04:01Z</time>
      </trkpt>
      <trkpt lat="42.79571" lon="-0.26891">
        <ele>2534</ele>
        <time>2016-03-27T13:04:33Z</time>
      </trkpt>
      <trkpt lat="42.79574" lon="-0.26889">
        <ele>2534</ele>
        <time>2016-03-27T13:05:01Z</time>
      </trkpt>
      <trkpt lat="42.79573" lon="-0.26888">
        <ele>2535</ele>
        <time>2016-03-27T13:05:23Z</time>
      </trkpt>
      <trkpt lat="42.79576" lon="-0.26889">
        <ele>2534</ele>
        <time>2016-03-27T13:05:52Z</time>
      </trkpt>
      <trkpt lat="42.79575" lon="-0.26888">
        <ele>2534</ele>
        <time>2016-03-27T13:06:29Z</time>
      </trkpt>
      <trkpt lat="42.79573" lon="-0.26891">
        <ele>2534</ele>
        <time>2016-03-27T13:07:01Z</time>
      </trkpt>
      <trkpt lat="42.79569" lon="-0.26891">
        <ele>2535</ele>
        <time>2016-03-27T13:07:17Z</time>
      </trkpt>
      <trkpt lat="42.79574" lon="-0.26887">
        <ele>2535</ele>
        <time>2016-03-27T13:07:35Z</time>
      </trkpt>
      <trkpt lat="42.79573" lon="-0.26888">
        <ele>2535</ele>
        <time>2016-03-27T13:08:02Z</time>
      </trkpt>
      <trkpt lat="42.79574" lon="-0.26886">
        <ele>2535</ele>
        <time>2016-03-27T13:08:33Z</time>
      </trkpt>
      <trkpt lat="42.79575" lon="-0.26885">
        <ele>2535</ele>
        <time>2016-03-27T13:08:54Z</time>
      </trkpt>
      <trkpt lat="42.79574" lon="-0.26886">
        <ele>2535</ele>
        <time>2016-03-27T13:09:15Z</time>
      </trkpt>
      <trkpt lat="42.79569" lon="-0.26887">
        <ele>2536</ele>
        <time>2016-03-27T13:09:36Z</time>
      </trkpt>
      <trkpt lat="42.79565" lon="-0.26885">
        <ele>2537</ele>
        <time>2016-03-27T13:09:51Z</time>
      </trkpt>
      <trkpt lat="42.79559" lon="-0.2688">
        <ele>2540</ele>
        <time>2016-03-27T13:10:07Z</time>
      </trkpt>
      <trkpt lat="42.79554" lon="-0.26873">
        <ele>2542</ele>
        <time>2016-03-27T13:10:22Z</time>
      </trkpt>
      <trkpt lat="42.79547" lon="-0.26864">
        <ele>2545</ele>
        <time>2016-03-27T13:10:40Z</time>
      </trkpt>
      <trkpt lat="42.79544" lon="-0.26855">
        <ele>2547</ele>
        <time>2016-03-27T13:10:53Z</time>
      </trkpt>
      <trkpt lat="42.7954" lon="-0.26844">
        <ele>2549</ele>
        <time>2016-03-27T13:11:10Z</time>
      </trkpt>
      <trkpt lat="42.79537" lon="-0.26836">
        <ele>2550</ele>
        <time>2016-03-27T13:11:23Z</time>
      </trkpt>
      <trkpt lat="42.79533" lon="-0.26824">
        <ele>2552</ele>
        <time>2016-03-27T13:11:40Z</time>
      </trkpt>
      <trkpt lat="42.79529" lon="-0.26816">
        <ele>2553</ele>
        <time>2016-03-27T13:11:55Z</time>
      </trkpt>
      <trkpt lat="42.79525" lon="-0.26805">
        <ele>2554</ele>
        <time>2016-03-27T13:12:13Z</time>
      </trkpt>
      <trkpt lat="42.7952" lon="-0.26796">
        <ele>2555</ele>
        <time>2016-03-27T13:12:30Z</time>
      </trkpt>
      <trkpt lat="42.79516" lon="-0.26788">
        <ele>2556</ele>
        <time>2016-03-27T13:12:45Z</time>
      </trkpt>
      <trkpt lat="42.79512" lon="-0.26781">
        <ele>2557</ele>
        <time>2016-03-27T13:12:58Z</time>
      </trkpt>
      <trkpt lat="42.79508" lon="-0.26774">
        <ele>2558</ele>
        <time>2016-03-27T13:13:12Z</time>
      </trkpt>
      <trkpt lat="42.79505" lon="-0.26764">
        <ele>2559</ele>
        <time>2016-03-27T13:13:27Z</time>
      </trkpt>
      <trkpt lat="42.79502" lon="-0.26756">
        <ele>2559</ele>
        <time>2016-03-27T13:13:42Z</time>
      </trkpt>
      <trkpt lat="42.79498" lon="-0.26747">
        <ele>2561</ele>
        <time>2016-03-27T13:13:58Z</time>
      </trkpt>
      <trkpt lat="42.79494" lon="-0.26741">
        <ele>2562</ele>
        <time>2016-03-27T13:14:10Z</time>
      </trkpt>
      <trkpt lat="42.79489" lon="-0.26734">
        <ele>2563</ele>
        <time>2016-03-27T13:14:26Z</time>
      </trkpt>
      <trkpt lat="42.79485" lon="-0.26728">
        <ele>2565</ele>
        <time>2016-03-27T13:14:39Z</time>
      </trkpt>
      <trkpt lat="42.79479" lon="-0.26721">
        <ele>2566</ele>
        <time>2016-03-27T13:14:54Z</time>
      </trkpt>
      <trkpt lat="42.79474" lon="-0.26713">
        <ele>2568</ele>
        <time>2016-03-27T13:15:08Z</time>
      </trkpt>
      <trkpt lat="42.79468" lon="-0.26704">
        <ele>2569</ele>
        <time>2016-03-27T13:15:25Z</time>
      </trkpt>
      <trkpt lat="42.7946" lon="-0.26696">
        <ele>2571</ele>
        <time>2016-03-27T13:15:41Z</time>
      </trkpt>
      <trkpt lat="42.79454" lon="-0.26688">
        <ele>2572</ele>
        <time>2016-03-27T13:15:58Z</time>
      </trkpt>
      <trkpt lat="42.7945" lon="-0.26677">
        <ele>2573</ele>
        <time>2016-03-27T13:16:14Z</time>
      </trkpt>
      <trkpt lat="42.79449" lon="-0.26666">
        <ele>2574</ele>
        <time>2016-03-27T13:16:28Z</time>
      </trkpt>
      <trkpt lat="42.79449" lon="-0.26656">
        <ele>2577</ele>
        <time>2016-03-27T13:16:43Z</time>
      </trkpt>
      <trkpt lat="42.79447" lon="-0.26642">
        <ele>2581</ele>
        <time>2016-03-27T13:17:02Z</time>
      </trkpt>
      <trkpt lat="42.79447" lon="-0.26629">
        <ele>2584</ele>
        <time>2016-03-27T13:17:21Z</time>
      </trkpt>
      <trkpt lat="42.79444" lon="-0.26628">
        <ele>2584</ele>
        <time>2016-03-27T13:17:37Z</time>
      </trkpt>
      <trkpt lat="42.79436" lon="-0.26637">
        <ele>2583</ele>
        <time>2016-03-27T13:17:52Z</time>
      </trkpt>
      <trkpt lat="42.79431" lon="-0.26644">
        <ele>2581</ele>
        <time>2016-03-27T13:18:05Z</time>
      </trkpt>
      <trkpt lat="42.79427" lon="-0.26652">
        <ele>2580</ele>
        <time>2016-03-27T13:18:21Z</time>
      </trkpt>
      <trkpt lat="42.79423" lon="-0.26659">
        <ele>2578</ele>
        <time>2016-03-27T13:18:38Z</time>
      </trkpt>
      <trkpt lat="42.79418" lon="-0.26666">
        <ele>2577</ele>
        <time>2016-03-27T13:18:51Z</time>
      </trkpt>
      <trkpt lat="42.79415" lon="-0.26676">
        <ele>2578</ele>
        <time>2016-03-27T13:19:07Z</time>
      </trkpt>
      <trkpt lat="42.79415" lon="-0.26674">
        <ele>2577</ele>
        <time>2016-03-27T13:19:20Z</time>
      </trkpt>
      <trkpt lat="42.79415" lon="-0.26664">
        <ele>2578</ele>
        <time>2016-03-27T13:19:35Z</time>
      </trkpt>
      <trkpt lat="42.79414" lon="-0.26652">
        <ele>2582</ele>
        <time>2016-03-27T13:19:51Z</time>
      </trkpt>
      <trkpt lat="42.79412" lon="-0.26642">
        <ele>2585</ele>
        <time>2016-03-27T13:20:07Z</time>
      </trkpt>
      <trkpt lat="42.79411" lon="-0.26635">
        <ele>2587</ele>
        <time>2016-03-27T13:20:21Z</time>
      </trkpt>
      <trkpt lat="42.79411" lon="-0.26626">
        <ele>2589</ele>
        <time>2016-03-27T13:20:38Z</time>
      </trkpt>
      <trkpt lat="42.7941" lon="-0.26622">
        <ele>2590</ele>
        <time>2016-03-27T13:20:53Z</time>
      </trkpt>
      <trkpt lat="42.79403" lon="-0.26627">
        <ele>2593</ele>
        <time>2016-03-27T13:21:07Z</time>
      </trkpt>
      <trkpt lat="42.79397" lon="-0.26635">
        <ele>2594</ele>
        <time>2016-03-27T13:21:23Z</time>
      </trkpt>
      <trkpt lat="42.79392" lon="-0.26643">
        <ele>2595</ele>
        <time>2016-03-27T13:21:39Z</time>
      </trkpt>
      <trkpt lat="42.7939" lon="-0.26649">
        <ele>2594</ele>
        <time>2016-03-27T13:21:53Z</time>
      </trkpt>
      <trkpt lat="42.79388" lon="-0.2666">
        <ele>2593</ele>
        <time>2016-03-27T13:22:09Z</time>
      </trkpt>
      <trkpt lat="42.79387" lon="-0.26665">
        <ele>2592</ele>
        <time>2016-03-27T13:22:23Z</time>
      </trkpt>
      <trkpt lat="42.79388" lon="-0.26657">
        <ele>2593</ele>
        <time>2016-03-27T13:22:37Z</time>
      </trkpt>
      <trkpt lat="42.79387" lon="-0.26648">
        <ele>2596</ele>
        <time>2016-03-27T13:22:52Z</time>
      </trkpt>
      <trkpt lat="42.79388" lon="-0.26635">
        <ele>2599</ele>
        <time>2016-03-27T13:23:08Z</time>
      </trkpt>
      <trkpt lat="42.7939" lon="-0.26626">
        <ele>2600</ele>
        <time>2016-03-27T13:23:23Z</time>
      </trkpt>
      <trkpt lat="42.79392" lon="-0.26616">
        <ele>2601</ele>
        <time>2016-03-27T13:23:39Z</time>
      </trkpt>
      <trkpt lat="42.7939" lon="-0.26613">
        <ele>2603</ele>
        <time>2016-03-27T13:23:52Z</time>
      </trkpt>
      <trkpt lat="42.79383" lon="-0.26618">
        <ele>2605</ele>
        <time>2016-03-27T13:24:06Z</time>
      </trkpt>
      <trkpt lat="42.79376" lon="-0.26625">
        <ele>2607</ele>
        <time>2016-03-27T13:24:21Z</time>
      </trkpt>
      <trkpt lat="42.7937" lon="-0.26632">
        <ele>2608</ele>
        <time>2016-03-27T13:24:36Z</time>
      </trkpt>
      <trkpt lat="42.79363" lon="-0.2664">
        <ele>2610</ele>
        <time>2016-03-27T13:24:54Z</time>
      </trkpt>
      <trkpt lat="42.7936" lon="-0.26649">
        <ele>2610</ele>
        <time>2016-03-27T13:25:10Z</time>
      </trkpt>
      <trkpt lat="42.79359" lon="-0.26657">
        <ele>2608</ele>
        <time>2016-03-27T13:25:24Z</time>
      </trkpt>
      <trkpt lat="42.79357" lon="-0.26667">
        <ele>2606</ele>
        <time>2016-03-27T13:25:38Z</time>
      </trkpt>
      <trkpt lat="42.79357" lon="-0.26677">
        <ele>2607</ele>
        <time>2016-03-27T13:25:55Z</time>
      </trkpt>
      <trkpt lat="42.79358" lon="-0.26687">
        <ele>2607</ele>
        <time>2016-03-27T13:26:10Z</time>
      </trkpt>
      <trkpt lat="42.79356" lon="-0.26683">
        <ele>2608</ele>
        <time>2016-03-27T13:26:23Z</time>
      </trkpt>
      <trkpt lat="42.79354" lon="-0.26676">
        <ele>2608</ele>
        <time>2016-03-27T13:26:36Z</time>
      </trkpt>
      <trkpt lat="42.79351" lon="-0.26667">
        <ele>2609</ele>
        <time>2016-03-27T13:26:50Z</time>
      </trkpt>
      <trkpt lat="42.79348" lon="-0.26659">
        <ele>2613</ele>
        <time>2016-03-27T13:27:05Z</time>
      </trkpt>
      <trkpt lat="42.79345" lon="-0.26648">
        <ele>2617</ele>
        <time>2016-03-27T13:27:22Z</time>
      </trkpt>
      <trkpt lat="42.79343" lon="-0.26641">
        <ele>2620</ele>
        <time>2016-03-27T13:27:35Z</time>
      </trkpt>
      <trkpt lat="42.7934" lon="-0.26633">
        <ele>2623</ele>
        <time>2016-03-27T13:27:49Z</time>
      </trkpt>
      <trkpt lat="42.79337" lon="-0.26627">
        <ele>2626</ele>
        <time>2016-03-27T13:28:02Z</time>
      </trkpt>
      <trkpt lat="42.79334" lon="-0.26618">
        <ele>2630</ele>
        <time>2016-03-27T13:28:17Z</time>
      </trkpt>
      <trkpt lat="42.79331" lon="-0.26609">
        <ele>2633</ele>
        <time>2016-03-27T13:28:33Z</time>
      </trkpt>
      <trkpt lat="42.79329" lon="-0.26599">
        <ele>2637</ele>
        <time>2016-03-27T13:28:49Z</time>
      </trkpt>
      <trkpt lat="42.79329" lon="-0.2659">
        <ele>2639</ele>
        <time>2016-03-27T13:29:04Z</time>
      </trkpt>
      <trkpt lat="42.7933" lon="-0.26579">
        <ele>2641</ele>
        <time>2016-03-27T13:29:19Z</time>
      </trkpt>
      <trkpt lat="42.79331" lon="-0.26577">
        <ele>2641</ele>
        <time>2016-03-27T13:29:37Z</time>
      </trkpt>
      <trkpt lat="42.79331" lon="-0.26578">
        <ele>2641</ele>
        <time>2016-03-27T13:30:02Z</time>
      </trkpt>
      <trkpt lat="42.79333" lon="-0.26568">
        <ele>2643</ele>
        <time>2016-03-27T13:30:17Z</time>
      </trkpt>
      <trkpt lat="42.79337" lon="-0.26559">
        <ele>2643</ele>
        <time>2016-03-27T13:30:34Z</time>
      </trkpt>
      <trkpt lat="42.7934" lon="-0.2655">
        <ele>2643</ele>
        <time>2016-03-27T13:30:51Z</time>
      </trkpt>
      <trkpt lat="42.79343" lon="-0.26543">
        <ele>2644</ele>
        <time>2016-03-27T13:31:06Z</time>
      </trkpt>
      <trkpt lat="42.79339" lon="-0.26542">
        <ele>2646</ele>
        <time>2016-03-27T13:31:17Z</time>
      </trkpt>
      <trkpt lat="42.79335" lon="-0.26543">
        <ele>2648</ele>
        <time>2016-03-27T13:31:35Z</time>
      </trkpt>
      <trkpt lat="42.79328" lon="-0.26543">
        <ele>2650</ele>
        <time>2016-03-27T13:31:58Z</time>
      </trkpt>
      <trkpt lat="42.7932" lon="-0.26542">
        <ele>2653</ele>
        <time>2016-03-27T13:32:16Z</time>
      </trkpt>
      <trkpt lat="42.79313" lon="-0.26544">
        <ele>2656</ele>
        <time>2016-03-27T13:32:32Z</time>
      </trkpt>
      <trkpt lat="42.79305" lon="-0.26547">
        <ele>2658</ele>
        <time>2016-03-27T13:32:49Z</time>
      </trkpt>
      <trkpt lat="42.79297" lon="-0.26552">
        <ele>2660</ele>
        <time>2016-03-27T13:33:07Z</time>
      </trkpt>
      <trkpt lat="42.79291" lon="-0.26556">
        <ele>2661</ele>
        <time>2016-03-27T13:33:21Z</time>
      </trkpt>
      <trkpt lat="42.79285" lon="-0.26563">
        <ele>2662</ele>
        <time>2016-03-27T13:33:37Z</time>
      </trkpt>
      <trkpt lat="42.79279" lon="-0.26571">
        <ele>2662</ele>
        <time>2016-03-27T13:33:53Z</time>
      </trkpt>
      <trkpt lat="42.79274" lon="-0.26574">
        <ele>2663</ele>
        <time>2016-03-27T13:34:10Z</time>
      </trkpt>
      <trkpt lat="42.79274" lon="-0.26573">
        <ele>2664</ele>
        <time>2016-03-27T13:34:14Z</time>
      </trkpt>
      <trkpt lat="42.79274" lon="-0.26572">
        <ele>2664</ele>
        <time>2016-03-27T13:34:24Z</time>
      </trkpt>
      <trkpt lat="42.79273" lon="-0.26572">
        <ele>2664</ele>
        <time>2016-03-27T13:34:44Z</time>
      </trkpt>
      <trkpt lat="42.79272" lon="-0.2657">
        <ele>2665</ele>
        <time>2016-03-27T13:35:11Z</time>
      </trkpt>
      <trkpt lat="42.79272" lon="-0.26571">
        <ele>2665</ele>
        <time>2016-03-27T13:35:36Z</time>
      </trkpt>
      <trkpt lat="42.79274" lon="-0.2657">
        <ele>2664</ele>
        <time>2016-03-27T13:35:49Z</time>
      </trkpt>
      <trkpt lat="42.79269" lon="-0.26579">
        <ele>2664</ele>
        <time>2016-03-27T13:36:04Z</time>
      </trkpt>
      <trkpt lat="42.79266" lon="-0.26587">
        <ele>2664</ele>
        <time>2016-03-27T13:36:16Z</time>
      </trkpt>
      <trkpt lat="42.79264" lon="-0.26598">
        <ele>2664</ele>
        <time>2016-03-27T13:36:32Z</time>
      </trkpt>
      <trkpt lat="42.79262" lon="-0.2661">
        <ele>2664</ele>
        <time>2016-03-27T13:36:48Z</time>
      </trkpt>
      <trkpt lat="42.79262" lon="-0.26622">
        <ele>2663</ele>
        <time>2016-03-27T13:37:07Z</time>
      </trkpt>
      <trkpt lat="42.79261" lon="-0.26629">
        <ele>2663</ele>
        <time>2016-03-27T13:37:23Z</time>
      </trkpt>
      <trkpt lat="42.7926" lon="-0.26617">
        <ele>2664</ele>
        <time>2016-03-27T13:37:37Z</time>
      </trkpt>
      <trkpt lat="42.79258" lon="-0.26605">
        <ele>2666</ele>
        <time>2016-03-27T13:37:54Z</time>
      </trkpt>
      <trkpt lat="42.79257" lon="-0.266">
        <ele>2667</ele>
        <time>2016-03-27T13:38:06Z</time>
      </trkpt>
      <trkpt lat="42.79253" lon="-0.26612">
        <ele>2668</ele>
        <time>2016-03-27T13:38:22Z</time>
      </trkpt>
      <trkpt lat="42.79251" lon="-0.26623">
        <ele>2668</ele>
        <time>2016-03-27T13:38:37Z</time>
      </trkpt>
      <trkpt lat="42.7925" lon="-0.26635">
        <ele>2668</ele>
        <time>2016-03-27T13:38:53Z</time>
      </trkpt>
      <trkpt lat="42.79249" lon="-0.26628">
        <ele>2669</ele>
        <time>2016-03-27T13:39:05Z</time>
      </trkpt>
      <trkpt lat="42.79246" lon="-0.26619">
        <ele>2671</ele>
        <time>2016-03-27T13:39:19Z</time>
      </trkpt>
      <trkpt lat="42.79245" lon="-0.2661">
        <ele>2672</ele>
        <time>2016-03-27T13:39:32Z</time>
      </trkpt>
      <trkpt lat="42.79243" lon="-0.26618">
        <ele>2674</ele>
        <time>2016-03-27T13:39:46Z</time>
      </trkpt>
      <trkpt lat="42.79241" lon="-0.26614">
        <ele>2675</ele>
        <time>2016-03-27T13:40:00Z</time>
      </trkpt>
      <trkpt lat="42.79238" lon="-0.26606">
        <ele>2677</ele>
        <time>2016-03-27T13:40:13Z</time>
      </trkpt>
      <trkpt lat="42.79235" lon="-0.26592">
        <ele>2679</ele>
        <time>2016-03-27T13:40:30Z</time>
      </trkpt>
      <trkpt lat="42.79232" lon="-0.26582">
        <ele>2681</ele>
        <time>2016-03-27T13:40:44Z</time>
      </trkpt>
      <trkpt lat="42.79229" lon="-0.26572">
        <ele>2685</ele>
        <time>2016-03-27T13:41:00Z</time>
      </trkpt>
      <trkpt lat="42.79227" lon="-0.26565">
        <ele>2688</ele>
        <time>2016-03-27T13:41:15Z</time>
      </trkpt>
      <trkpt lat="42.79222" lon="-0.26574">
        <ele>2689</ele>
        <time>2016-03-27T13:41:29Z</time>
      </trkpt>
      <trkpt lat="42.79217" lon="-0.26593">
        <ele>2690</ele>
        <time>2016-03-27T13:41:47Z</time>
      </trkpt>
      <trkpt lat="42.79214" lon="-0.26604">
        <ele>2692</ele>
        <time>2016-03-27T13:42:01Z</time>
      </trkpt>
      <trkpt lat="42.79213" lon="-0.26617">
        <ele>2694</ele>
        <time>2016-03-27T13:42:18Z</time>
      </trkpt>
      <trkpt lat="42.79213" lon="-0.2661">
        <ele>2694</ele>
        <time>2016-03-27T13:42:33Z</time>
      </trkpt>
      <trkpt lat="42.79213" lon="-0.26609">
        <ele>2694</ele>
        <time>2016-03-27T13:42:48Z</time>
      </trkpt>
      <trkpt lat="42.79213" lon="-0.26607">
        <ele>2694</ele>
        <time>2016-03-27T13:43:08Z</time>
      </trkpt>
      <trkpt lat="42.79215" lon="-0.26601">
        <ele>2692</ele>
        <time>2016-03-27T13:43:40Z</time>
      </trkpt>
      <trkpt lat="42.79218" lon="-0.26601">
        <ele>2690</ele>
        <time>2016-03-27T13:44:14Z</time>
      </trkpt>
      <trkpt lat="42.79218" lon="-0.26604">
        <ele>2690</ele>
        <time>2016-03-27T13:44:42Z</time>
      </trkpt>
      <trkpt lat="42.79219" lon="-0.26605">
        <ele>2690</ele>
        <time>2016-03-27T13:44:58Z</time>
      </trkpt>
      <trkpt lat="42.7922" lon="-0.26603">
        <ele>2689</ele>
        <time>2016-03-27T13:45:30Z</time>
      </trkpt>
      <trkpt lat="42.79219" lon="-0.26605">
        <ele>2689</ele>
        <time>2016-03-27T13:45:57Z</time>
      </trkpt>
      <trkpt lat="42.79218" lon="-0.26605">
        <ele>2690</ele>
        <time>2016-03-27T13:46:24Z</time>
      </trkpt>
      <trkpt lat="42.79219" lon="-0.26605">
        <ele>2690</ele>
        <time>2016-03-27T13:46:50Z</time>
      </trkpt>
      <trkpt lat="42.7922" lon="-0.26605">
        <ele>2689</ele>
        <time>2016-03-27T13:47:15Z</time>
      </trkpt>
      <trkpt lat="42.79214" lon="-0.26604">
        <ele>2692</ele>
        <time>2016-03-27T13:47:39Z</time>
      </trkpt>
      <trkpt lat="42.79217" lon="-0.26597">
        <ele>2690</ele>
        <time>2016-03-27T13:48:01Z</time>
      </trkpt>
      <trkpt lat="42.79219" lon="-0.26599">
        <ele>2689</ele>
        <time>2016-03-27T13:48:33Z</time>
      </trkpt>
      <trkpt lat="42.7922" lon="-0.26602">
        <ele>2689</ele>
        <time>2016-03-27T13:48:47Z</time>
      </trkpt>
      <trkpt lat="42.79217" lon="-0.26604">
        <ele>2691</ele>
        <time>2016-03-27T13:49:04Z</time>
      </trkpt>
      <trkpt lat="42.79215" lon="-0.26606">
        <ele>2692</ele>
        <time>2016-03-27T13:49:31Z</time>
      </trkpt>
      <trkpt lat="42.79214" lon="-0.26612">
        <ele>2693</ele>
        <time>2016-03-27T13:49:55Z</time>
      </trkpt>
      <trkpt lat="42.79214" lon="-0.26614">
        <ele>2693</ele>
        <time>2016-03-27T13:50:24Z</time>
      </trkpt>
      <trkpt lat="42.79212" lon="-0.26614">
        <ele>2695</ele>
        <time>2016-03-27T13:50:53Z</time>
      </trkpt>
      <trkpt lat="42.79212" lon="-0.26618">
        <ele>2695</ele>
        <time>2016-03-27T13:51:26Z</time>
      </trkpt>
      <trkpt lat="42.7921" lon="-0.26614">
        <ele>2696</ele>
        <time>2016-03-27T13:51:52Z</time>
      </trkpt>
      <trkpt lat="42.79211" lon="-0.26611">
        <ele>2695</ele>
        <time>2016-03-27T13:52:23Z</time>
      </trkpt>
      <trkpt lat="42.79211" lon="-0.26608">
        <ele>2695</ele>
        <time>2016-03-27T13:52:32Z</time>
      </trkpt>
      <trkpt lat="42.79211" lon="-0.2661">
        <ele>2695</ele>
        <time>2016-03-27T13:52:49Z</time>
      </trkpt>
      <trkpt lat="42.79212" lon="-0.26613">
        <ele>2695</ele>
        <time>2016-03-27T13:53:12Z</time>
      </trkpt>
      <trkpt lat="42.79209" lon="-0.26622">
        <ele>2697</ele>
        <time>2016-03-27T13:53:28Z</time>
      </trkpt>
      <trkpt lat="42.79206" lon="-0.26628">
        <ele>2699</ele>
        <time>2016-03-27T13:53:45Z</time>
      </trkpt>
      <trkpt lat="42.79205" lon="-0.26632">
        <ele>2701</ele>
        <time>2016-03-27T13:53:59Z</time>
      </trkpt>
      <trkpt lat="42.79204" lon="-0.26639">
        <ele>2702</ele>
        <time>2016-03-27T13:54:18Z</time>
      </trkpt>
      <trkpt lat="42.79204" lon="-0.26648">
        <ele>2703</ele>
        <time>2016-03-27T13:54:35Z</time>
      </trkpt>
      <trkpt lat="42.79206" lon="-0.26649">
        <ele>2701</ele>
        <time>2016-03-27T13:54:50Z</time>
      </trkpt>
      <trkpt lat="42.79207" lon="-0.26648">
        <ele>2701</ele>
        <time>2016-03-27T13:55:09Z</time>
      </trkpt>
      <trkpt lat="42.79205" lon="-0.26658">
        <ele>2702</ele>
        <time>2016-03-27T13:55:26Z</time>
      </trkpt>
      <trkpt lat="42.79211" lon="-0.26666">
        <ele>2698</ele>
        <time>2016-03-27T13:55:42Z</time>
      </trkpt>
      <trkpt lat="42.79211" lon="-0.26671">
        <ele>2699</ele>
        <time>2016-03-27T13:56:00Z</time>
      </trkpt>
      <trkpt lat="42.79211" lon="-0.26672">
        <ele>2700</ele>
        <time>2016-03-27T13:56:16Z</time>
      </trkpt>
      <trkpt lat="42.7921" lon="-0.26674">
        <ele>2701</ele>
        <time>2016-03-27T13:56:34Z</time>
      </trkpt>
      <trkpt lat="42.79211" lon="-0.26677">
        <ele>2701</ele>
        <time>2016-03-27T13:56:48Z</time>
      </trkpt>
      <trkpt lat="42.7921" lon="-0.2668">
        <ele>2703</ele>
        <time>2016-03-27T13:57:02Z</time>
      </trkpt>
      <trkpt lat="42.79208" lon="-0.26678">
        <ele>2704</ele>
        <time>2016-03-27T13:57:17Z</time>
      </trkpt>
      <trkpt lat="42.79209" lon="-0.26675">
        <ele>2702</ele>
        <time>2016-03-27T13:57:32Z</time>
      </trkpt>
      <trkpt lat="42.79212" lon="-0.26675">
        <ele>2700</ele>
        <time>2016-03-27T13:57:46Z</time>
      </trkpt>
      <trkpt lat="42.79211" lon="-0.26673">
        <ele>2700</ele>
        <time>2016-03-27T13:58:04Z</time>
      </trkpt>
      <trkpt lat="42.79209" lon="-0.26674">
        <ele>2702</ele>
        <time>2016-03-27T13:58:22Z</time>
      </trkpt>
      <trkpt lat="42.79209" lon="-0.26672">
        <ele>2702</ele>
        <time>2016-03-27T13:58:41Z</time>
      </trkpt>
      <trkpt lat="42.79209" lon="-0.26672">
        <ele>2702</ele>
        <time>2016-03-27T13:59:03Z</time>
      </trkpt>
      <trkpt lat="42.79208" lon="-0.26676">
        <ele>2703</ele>
        <time>2016-03-27T13:59:20Z</time>
      </trkpt>
      <trkpt lat="42.79208" lon="-0.26678">
        <ele>2704</ele>
        <time>2016-03-27T13:59:32Z</time>
      </trkpt>
      <trkpt lat="42.7921" lon="-0.2668">
        <ele>2703</ele>
        <time>2016-03-27T13:59:43Z</time>
      </trkpt>
      <trkpt lat="42.7921" lon="-0.26675">
        <ele>2701</ele>
        <time>2016-03-27T14:00:08Z</time>
      </trkpt>
      <trkpt lat="42.7921" lon="-0.26674">
        <ele>2701</ele>
        <time>2016-03-27T14:00:09Z</time>
      </trkpt>
      <trkpt lat="42.79207" lon="-0.26673">
        <ele>2703</ele>
        <time>2016-03-27T14:00:31Z</time>
      </trkpt>
      <trkpt lat="42.79204" lon="-0.26676">
        <ele>2706</ele>
        <time>2016-03-27T14:00:42Z</time>
      </trkpt>
      <trkpt lat="42.79201" lon="-0.26681">
        <ele>2710</ele>
        <time>2016-03-27T14:00:56Z</time>
      </trkpt>
      <trkpt lat="42.79201" lon="-0.26682">
        <ele>2711</ele>
        <time>2016-03-27T14:00:59Z</time>
      </trkpt>
      <trkpt lat="42.792" lon="-0.26683">
        <ele>2712</ele>
        <time>2016-03-27T14:01:10Z</time>
      </trkpt>
      <trkpt lat="42.79199" lon="-0.26681">
        <ele>2712</ele>
        <time>2016-03-27T14:01:31Z</time>
      </trkpt>
      <trkpt lat="42.79203" lon="-0.26684">
        <ele>2710</ele>
        <time>2016-03-27T14:01:56Z</time>
      </trkpt>
      <trkpt lat="42.79201" lon="-0.26681">
        <ele>2711</ele>
        <time>2016-03-27T14:02:20Z</time>
      </trkpt>
      <trkpt lat="42.792" lon="-0.2668">
        <ele>2711</ele>
        <time>2016-03-27T14:02:45Z</time>
      </trkpt>
      <trkpt lat="42.79202" lon="-0.26684">
        <ele>2711</ele>
        <time>2016-03-27T14:03:16Z</time>
      </trkpt>
      <trkpt lat="42.79202" lon="-0.26681">
        <ele>2710</ele>
        <time>2016-03-27T14:03:32Z</time>
      </trkpt>
      <trkpt lat="42.79207" lon="-0.26683">
        <ele>2706</ele>
        <time>2016-03-27T14:04:04Z</time>
      </trkpt>
      <trkpt lat="42.79203" lon="-0.26685">
        <ele>2710</ele>
        <time>2016-03-27T14:04:41Z</time>
      </trkpt>
      <trkpt lat="42.79205" lon="-0.26691">
        <ele>2710</ele>
        <time>2016-03-27T14:05:10Z</time>
      </trkpt>
      <trkpt lat="42.79206" lon="-0.2669">
        <ele>2709</ele>
        <time>2016-03-27T14:05:33Z</time>
      </trkpt>
      <trkpt lat="42.79205" lon="-0.2669">
        <ele>2709</ele>
        <time>2016-03-27T14:06:01Z</time>
      </trkpt>
      <trkpt lat="42.79203" lon="-0.26686">
        <ele>2710</ele>
        <time>2016-03-27T14:06:35Z</time>
      </trkpt>
      <trkpt lat="42.79202" lon="-0.26687">
        <ele>2711</ele>
        <time>2016-03-27T14:07:04Z</time>
      </trkpt>
      <trkpt lat="42.79204" lon="-0.26686">
        <ele>2709</ele>
        <time>2016-03-27T14:07:38Z</time>
      </trkpt>
      <trkpt lat="42.79206" lon="-0.26687">
        <ele>2708</ele>
        <time>2016-03-27T14:08:14Z</time>
      </trkpt>
      <trkpt lat="42.79203" lon="-0.26687">
        <ele>2710</ele>
        <time>2016-03-27T14:08:41Z</time>
      </trkpt>
      <trkpt lat="42.79201" lon="-0.26686">
        <ele>2712</ele>
        <time>2016-03-27T14:09:05Z</time>
      </trkpt>
      <trkpt lat="42.79202" lon="-0.26688">
        <ele>2712</ele>
        <time>2016-03-27T14:09:18Z</time>
      </trkpt>
      <trkpt lat="42.79203" lon="-0.26694">
        <ele>2713</ele>
        <time>2016-03-27T14:09:57Z</time>
      </trkpt>
      <trkpt lat="42.79198" lon="-0.26685">
        <ele>2713</ele>
        <time>2016-03-27T14:10:13Z</time>
      </trkpt>
      <trkpt lat="42.79198" lon="-0.26683">
        <ele>2713</ele>
        <time>2016-03-27T14:10:31Z</time>
      </trkpt>
      <trkpt lat="42.79198" lon="-0.26684">
        <ele>2714</ele>
        <time>2016-03-27T14:10:32Z</time>
      </trkpt>
      <trkpt lat="42.79196" lon="-0.26684">
        <ele>2715</ele>
        <time>2016-03-27T14:10:33Z</time>
      </trkpt>
      <trkpt lat="42.79196" lon="-0.26684">
        <ele>2716</ele>
        <time>2016-03-27T14:10:34Z</time>
      </trkpt>
      <trkpt lat="42.79195" lon="-0.26684">
        <ele>2716</ele>
        <time>2016-03-27T14:10:35Z</time>
      </trkpt>
      <trkpt lat="42.79195" lon="-0.26684">
        <ele>2716</ele>
        <time>2016-03-27T14:10:36Z</time>
      </trkpt>
      <trkpt lat="42.79195" lon="-0.26684">
        <ele>2716</ele>
        <time>2016-03-27T14:10:37Z</time>
      </trkpt>
      <trkpt lat="42.79194" lon="-0.26684">
        <ele>2717</ele>
        <time>2016-03-27T14:10:38Z</time>
      </trkpt>
      <trkpt lat="42.79195" lon="-0.26685">
        <ele>2717</ele>
        <time>2016-03-27T14:10:39Z</time>
      </trkpt>
      <trkpt lat="42.79195" lon="-0.26685">
        <ele>2716</ele>
        <time>2016-03-27T14:10:40Z</time>
      </trkpt>
      <trkpt lat="42.79195" lon="-0.26685">
        <ele>2716</ele>
        <time>2016-03-27T14:10:41Z</time>
      </trkpt>
      <trkpt lat="42.79195" lon="-0.26684">
        <ele>2716</ele>
        <time>2016-03-27T14:10:42Z</time>
      </trkpt>
      <trkpt lat="42.79195" lon="-0.26684">
        <ele>2716</ele>
        <time>2016-03-27T14:10:43Z</time>
      </trkpt>
      <trkpt lat="42.79195" lon="-0.26684">
        <ele>2716</ele>
        <time>2016-03-27T14:10:44Z</time>
      </trkpt>
      <trkpt lat="42.79195" lon="-0.26684">
        <ele>2716</ele>
        <time>2016-03-27T14:10:45Z</time>
      </trkpt>
      <trkpt lat="42.79195" lon="-0.26684">
        <ele>2716</ele>
        <time>2016-03-27T14:10:46Z</time>
      </trkpt>
      <trkpt lat="42.79195" lon="-0.26684">
        <ele>2716</ele>
        <time>2016-03-27T14:10:47Z</time>
      </trkpt>
      <trkpt lat="42.79195" lon="-0.26684">
        <ele>2716</ele>
        <time>2016-03-27T14:10:48Z</time>
      </trkpt>
      <trkpt lat="42.79195" lon="-0.26683">
        <ele>2716</ele>
        <time>2016-03-27T14:10:49Z</time>
      </trkpt>
      <trkpt lat="42.79195" lon="-0.26683">
        <ele>2716</ele>
        <time>2016-03-27T14:10:50Z</time>
      </trkpt>
      <trkpt lat="42.79195" lon="-0.26683">
        <ele>2716</ele>
        <time>2016-03-27T14:10:52Z</time>
      </trkpt>
      <trkpt lat="42.79195" lon="-0.26683">
        <ele>2716</ele>
        <time>2016-03-27T14:10:53Z</time>
      </trkpt>
      <trkpt lat="42.79194" lon="-0.26683">
        <ele>2716</ele>
        <time>2016-03-27T14:10:55Z</time>
      </trkpt>
      <trkpt lat="42.79194" lon="-0.26683">
        <ele>2716</ele>
        <time>2016-03-27T14:10:56Z</time>
      </trkpt>
      <trkpt lat="42.79194" lon="-0.26683">
        <ele>2716</ele>
        <time>2016-03-27T14:10:57Z</time>
      </trkpt>
      <trkpt lat="42.79194" lon="-0.26682">
        <ele>2716</ele>
        <time>2016-03-27T14:11:01Z</time>
      </trkpt>
      <trkpt lat="42.79194" lon="-0.26682">
        <ele>2716</ele>
        <time>2016-03-27T14:11:02Z</time>
      </trkpt>
      <trkpt lat="42.79195" lon="-0.26682">
        <ele>2716</ele>
        <time>2016-03-27T14:11:08Z</time>
      </trkpt>
      <trkpt lat="42.79195" lon="-0.26682">
        <ele>2716</ele>
        <time>2016-03-27T14:11:09Z</time>
      </trkpt>
      <trkpt lat="42.79195" lon="-0.26683">
        <ele>2716</ele>
        <time>2016-03-27T14:11:11Z</time>
      </trkpt>
      <trkpt lat="42.79196" lon="-0.26683">
        <ele>2715</ele>
        <time>2016-03-27T14:11:13Z</time>
      </trkpt>
      <trkpt lat="42.79197" lon="-0.26683">
        <ele>2714</ele>
        <time>2016-03-27T14:11:16Z</time>
      </trkpt>
      <trkpt lat="42.79197" lon="-0.26683">
        <ele>2714</ele>
        <time>2016-03-27T14:11:18Z</time>
      </trkpt>
      <trkpt lat="42.79197" lon="-0.26683">
        <ele>2714</ele>
        <time>2016-03-27T14:11:21Z</time>
      </trkpt>
      <trkpt lat="42.79197" lon="-0.26682">
        <ele>2714</ele>
        <time>2016-03-27T14:11:23Z</time>
      </trkpt>
      <trkpt lat="42.79197" lon="-0.26681">
        <ele>2713</ele>
        <time>2016-03-27T14:11:27Z</time>
      </trkpt>
      <trkpt lat="42.79198" lon="-0.26682">
        <ele>2713</ele>
        <time>2016-03-27T14:11:32Z</time>
      </trkpt>
      <trkpt lat="42.79198" lon="-0.26682">
        <ele>2713</ele>
        <time>2016-03-27T14:11:33Z</time>
      </trkpt>
      <trkpt lat="42.79198" lon="-0.26683">
        <ele>2713</ele>
        <time>2016-03-27T14:11:36Z</time>
      </trkpt>
      <trkpt lat="42.79198" lon="-0.26684">
        <ele>2713</ele>
        <time>2016-03-27T14:11:44Z</time>
      </trkpt>
      <trkpt lat="42.79198" lon="-0.26684">
        <ele>2714</ele>
        <time>2016-03-27T14:11:52Z</time>
      </trkpt>
      <trkpt lat="42.79199" lon="-0.26684">
        <ele>2713</ele>
        <time>2016-03-27T14:12:05Z</time>
      </trkpt>
      <trkpt lat="42.792" lon="-0.26682">
        <ele>2711</ele>
        <time>2016-03-27T14:12:29Z</time>
      </trkpt>
      <trkpt lat="42.79201" lon="-0.26683">
        <ele>2711</ele>
        <time>2016-03-27T14:12:42Z</time>
      </trkpt>
      <trkpt lat="42.79201" lon="-0.26682">
        <ele>2710</ele>
        <time>2016-03-27T14:12:50Z</time>
      </trkpt>
      <trkpt lat="42.79201" lon="-0.26681">
        <ele>2710</ele>
        <time>2016-03-27T14:13:06Z</time>
      </trkpt>
      <trkpt lat="42.79201" lon="-0.2668">
        <ele>2710</ele>
        <time>2016-03-27T14:13:31Z</time>
      </trkpt>
      <trkpt lat="42.79201" lon="-0.26679">
        <ele>2710</ele>
        <time>2016-03-27T14:13:50Z</time>
      </trkpt>
      <trkpt lat="42.79199" lon="-0.2668">
        <ele>2712</ele>
        <time>2016-03-27T14:14:07Z</time>
      </trkpt>
      <trkpt lat="42.792" lon="-0.26681">
        <ele>2711</ele>
        <time>2016-03-27T14:14:29Z</time>
      </trkpt>
      <trkpt lat="42.79199" lon="-0.2668">
        <ele>2711</ele>
        <time>2016-03-27T14:14:33Z</time>
      </trkpt>
      <trkpt lat="42.7919" lon="-0.26661">
        <ele>2715</ele>
        <time>2016-03-27T14:14:39Z</time>
      </trkpt>
      <trkpt lat="42.79184" lon="-0.26647">
        <ele>2718</ele>
        <time>2016-03-27T14:14:41Z</time>
      </trkpt>
      <trkpt lat="42.79168" lon="-0.26625">
        <ele>2726</ele>
        <time>2016-03-27T14:14:44Z</time>
      </trkpt>
      <trkpt lat="42.79164" lon="-0.26617">
        <ele>2726</ele>
        <time>2016-03-27T14:14:45Z</time>
      </trkpt>
      <trkpt lat="42.79149" lon="-0.26589">
        <ele>2727</ele>
        <time>2016-03-27T14:14:49Z</time>
      </trkpt>
      <trkpt lat="42.79146" lon="-0.26583">
        <ele>2727</ele>
        <time>2016-03-27T14:14:50Z</time>
      </trkpt>
      <trkpt lat="42.79137" lon="-0.26568">
        <ele>2733</ele>
        <time>2016-03-27T14:14:58Z</time>
      </trkpt>
      <trkpt lat="42.79118" lon="-0.2654">
        <ele>2747</ele>
        <time>2016-03-27T14:15:11Z</time>
      </trkpt>
      <trkpt lat="42.791" lon="-0.2652">
        <ele>2761</ele>
        <time>2016-03-27T14:15:18Z</time>
      </trkpt>
      <trkpt lat="42.79078" lon="-0.265">
        <ele>2773</ele>
        <time>2016-03-27T14:15:29Z</time>
      </trkpt>
      <trkpt lat="42.7905" lon="-0.26489">
        <ele>2767</ele>
        <time>2016-03-27T14:15:41Z</time>
      </trkpt>
      <trkpt lat="42.79019" lon="-0.26475">
        <ele>2764</ele>
        <time>2016-03-27T14:15:53Z</time>
      </trkpt>
      <trkpt lat="42.78982" lon="-0.26468">
        <ele>2755</ele>
        <time>2016-03-27T14:16:05Z</time>
      </trkpt>
      <trkpt lat="42.78952" lon="-0.26457">
        <ele>2751</ele>
        <time>2016-03-27T14:16:18Z</time>
      </trkpt>
      <trkpt lat="42.78928" lon="-0.2645">
        <ele>2746</ele>
        <time>2016-03-27T14:16:30Z</time>
      </trkpt>
      <trkpt lat="42.78925" lon="-0.26445">
        <ele>2748</ele>
        <time>2016-03-27T14:16:44Z</time>
      </trkpt>
      <trkpt lat="42.78923" lon="-0.26449">
        <ele>2745</ele>
        <time>2016-03-27T14:16:57Z</time>
      </trkpt>
      <trkpt lat="42.78921" lon="-0.26449">
        <ele>2745</ele>
        <time>2016-03-27T14:17:16Z</time>
      </trkpt>
      <trkpt lat="42.78921" lon="-0.26449">
        <ele>2745</ele>
        <time>2016-03-27T14:17:18Z</time>
      </trkpt>
      <trkpt lat="42.78921" lon="-0.26451">
        <ele>2743</ele>
        <time>2016-03-27T14:17:22Z</time>
      </trkpt>
      <trkpt lat="42.78926" lon="-0.26455">
        <ele>2743</ele>
        <time>2016-03-27T14:17:36Z</time>
      </trkpt>
      <trkpt lat="42.78927" lon="-0.26456">
        <ele>2743</ele>
        <time>2016-03-27T14:17:59Z</time>
      </trkpt>
      <trkpt lat="42.78926" lon="-0.26456">
        <ele>2743</ele>
        <time>2016-03-27T14:18:20Z</time>
      </trkpt>
      <trkpt lat="42.78924" lon="-0.26459">
        <ele>2740</ele>
        <time>2016-03-27T14:18:46Z</time>
      </trkpt>
      <trkpt lat="42.78925" lon="-0.26461">
        <ele>2739</ele>
        <time>2016-03-27T14:19:24Z</time>
      </trkpt>
      <trkpt lat="42.78928" lon="-0.26465">
        <ele>2738</ele>
        <time>2016-03-27T14:19:53Z</time>
      </trkpt>
      <trkpt lat="42.78926" lon="-0.26463">
        <ele>2738</ele>
        <time>2016-03-27T14:20:23Z</time>
      </trkpt>
      <trkpt lat="42.78927" lon="-0.26461">
        <ele>2740</ele>
        <time>2016-03-27T14:20:45Z</time>
      </trkpt>
      <trkpt lat="42.78926" lon="-0.2646">
        <ele>2740</ele>
        <time>2016-03-27T14:21:01Z</time>
      </trkpt>
      <trkpt lat="42.78925" lon="-0.26462">
        <ele>2739</ele>
        <time>2016-03-27T14:21:27Z</time>
      </trkpt>
      <trkpt lat="42.78925" lon="-0.26468">
        <ele>2736</ele>
        <time>2016-03-27T14:21:51Z</time>
      </trkpt>
      <trkpt lat="42.78926" lon="-0.26467">
        <ele>2736</ele>
        <time>2016-03-27T14:22:20Z</time>
      </trkpt>
      <trkpt lat="42.78926" lon="-0.26464">
        <ele>2738</ele>
        <time>2016-03-27T14:22:45Z</time>
      </trkpt>
      <trkpt lat="42.78926" lon="-0.26459">
        <ele>2741</ele>
        <time>2016-03-27T14:23:10Z</time>
      </trkpt>
      <trkpt lat="42.78927" lon="-0.26455">
        <ele>2743</ele>
        <time>2016-03-27T14:23:35Z</time>
      </trkpt>
      <trkpt lat="42.78927" lon="-0.26453">
        <ele>2744</ele>
        <time>2016-03-27T14:24:05Z</time>
      </trkpt>
      <trkpt lat="42.78926" lon="-0.26453">
        <ele>2744</ele>
        <time>2016-03-27T14:24:34Z</time>
      </trkpt>
      <trkpt lat="42.78926" lon="-0.26451">
        <ele>2745</ele>
        <time>2016-03-27T14:24:38Z</time>
      </trkpt>
      <trkpt lat="42.78925" lon="-0.26451">
        <ele>2745</ele>
        <time>2016-03-27T14:24:51Z</time>
      </trkpt>
      <trkpt lat="42.78924" lon="-0.26449">
        <ele>2746</ele>
        <time>2016-03-27T14:25:03Z</time>
      </trkpt>
      <trkpt lat="42.78925" lon="-0.26449">
        <ele>2746</ele>
        <time>2016-03-27T14:25:05Z</time>
      </trkpt>
      <trkpt lat="42.78925" lon="-0.26438">
        <ele>2752</ele>
        <time>2016-03-27T14:25:15Z</time>
      </trkpt>
      <trkpt lat="42.78924" lon="-0.26423">
        <ele>2760</ele>
        <time>2016-03-27T14:25:21Z</time>
      </trkpt>
      <trkpt lat="42.78927" lon="-0.26394">
        <ele>2773</ele>
        <time>2016-03-27T14:25:29Z</time>
      </trkpt>
      <trkpt lat="42.78917" lon="-0.26383">
        <ele>2773</ele>
        <time>2016-03-27T14:25:33Z</time>
      </trkpt>
      <trkpt lat="42.78912" lon="-0.26357">
        <ele>2779</ele>
        <time>2016-03-27T14:25:38Z</time>
      </trkpt>
      <trkpt lat="42.78914" lon="-0.26354">
        <ele>2781</ele>
        <time>2016-03-27T14:25:39Z</time>
      </trkpt>
      <trkpt lat="42.78916" lon="-0.26352">
        <ele>2783</ele>
        <time>2016-03-27T14:25:41Z</time>
      </trkpt>
      <trkpt lat="42.78916" lon="-0.2634">
        <ele>2787</ele>
        <time>2016-03-27T14:25:46Z</time>
      </trkpt>
      <trkpt lat="42.78917" lon="-0.2634">
        <ele>2788</ele>
        <time>2016-03-27T14:26:04Z</time>
      </trkpt>
      <trkpt lat="42.78918" lon="-0.26338">
        <ele>2789</ele>
        <time>2016-03-27T14:26:09Z</time>
      </trkpt>
      <trkpt lat="42.78893" lon="-0.26329">
        <ele>2772</ele>
        <time>2016-03-27T14:26:17Z</time>
      </trkpt>
      <trkpt lat="42.78889" lon="-0.26323">
        <ele>2768</ele>
        <time>2016-03-27T14:26:20Z</time>
      </trkpt>
      <trkpt lat="42.7889" lon="-0.2632">
        <ele>2768</ele>
        <time>2016-03-27T14:26:24Z</time>
      </trkpt>
      <trkpt lat="42.78891" lon="-0.26321">
        <ele>2769</ele>
        <time>2016-03-27T14:26:37Z</time>
      </trkpt>
      <trkpt lat="42.7889" lon="-0.26323">
        <ele>2769</ele>
        <time>2016-03-27T14:26:49Z</time>
      </trkpt>
      <trkpt lat="42.7889" lon="-0.26324">
        <ele>2769</ele>
        <time>2016-03-27T14:26:50Z</time>
      </trkpt>
      <trkpt lat="42.78889" lon="-0.26325">
        <ele>2769</ele>
        <time>2016-03-27T14:26:51Z</time>
      </trkpt>
      <trkpt lat="42.7889" lon="-0.26326">
        <ele>2769</ele>
        <time>2016-03-27T14:27:10Z</time>
      </trkpt>
      <trkpt lat="42.78892" lon="-0.26324">
        <ele>2771</ele>
        <time>2016-03-27T14:27:20Z</time>
      </trkpt>
      <trkpt lat="42.78892" lon="-0.26324">
        <ele>2770</ele>
        <time>2016-03-27T14:27:21Z</time>
      </trkpt>
      <trkpt lat="42.78892" lon="-0.26306">
        <ele>2768</ele>
        <time>2016-03-27T14:27:25Z</time>
      </trkpt>
      <trkpt lat="42.78892" lon="-0.26292">
        <ele>2766</ele>
        <time>2016-03-27T14:27:27Z</time>
      </trkpt>
      <trkpt lat="42.78891" lon="-0.26279">
        <ele>2763</ele>
        <time>2016-03-27T14:27:29Z</time>
      </trkpt>
      <trkpt lat="42.78888" lon="-0.2627">
        <ele>2759</ele>
        <time>2016-03-27T14:27:31Z</time>
      </trkpt>
      <trkpt lat="42.78885" lon="-0.2626">
        <ele>2755</ele>
        <time>2016-03-27T14:27:33Z</time>
      </trkpt>
      <trkpt lat="42.78881" lon="-0.26252">
        <ele>2751</ele>
        <time>2016-03-27T14:27:35Z</time>
      </trkpt>
      <trkpt lat="42.78876" lon="-0.26249">
        <ele>2746</ele>
        <time>2016-03-27T14:27:36Z</time>
      </trkpt>
      <trkpt lat="42.78867" lon="-0.26241">
        <ele>2733</ele>
        <time>2016-03-27T14:27:38Z</time>
      </trkpt>
      <trkpt lat="42.78873" lon="-0.26233">
        <ele>2736</ele>
        <time>2016-03-27T14:27:40Z</time>
      </trkpt>
      <trkpt lat="42.78874" lon="-0.26218">
        <ele>2731</ele>
        <time>2016-03-27T14:27:43Z</time>
      </trkpt>
      <trkpt lat="42.78875" lon="-0.26203">
        <ele>2726</ele>
        <time>2016-03-27T14:27:45Z</time>
      </trkpt>
      <trkpt lat="42.78867" lon="-0.26183">
        <ele>2712</ele>
        <time>2016-03-27T14:27:48Z</time>
      </trkpt>
      <trkpt lat="42.78867" lon="-0.26169">
        <ele>2707</ele>
        <time>2016-03-27T14:27:50Z</time>
      </trkpt>
      <trkpt lat="42.78865" lon="-0.26164">
        <ele>2703</ele>
        <time>2016-03-27T14:27:51Z</time>
      </trkpt>
      <trkpt lat="42.7887" lon="-0.26153">
        <ele>2700</ele>
        <time>2016-03-27T14:27:56Z</time>
      </trkpt>
      <trkpt lat="42.78891" lon="-0.2614">
        <ele>2705</ele>
        <time>2016-03-27T14:28:04Z</time>
      </trkpt>
      <trkpt lat="42.78898" lon="-0.26138">
        <ele>2709</ele>
        <time>2016-03-27T14:28:19Z</time>
      </trkpt>
      <trkpt lat="42.78899" lon="-0.26121">
        <ele>2698</ele>
        <time>2016-03-27T14:28:23Z</time>
      </trkpt>
      <trkpt lat="42.78891" lon="-0.26116">
        <ele>2690</ele>
        <time>2016-03-27T14:28:25Z</time>
      </trkpt>
      <trkpt lat="42.78886" lon="-0.26107">
        <ele>2682</ele>
        <time>2016-03-27T14:28:27Z</time>
      </trkpt>
      <trkpt lat="42.78884" lon="-0.26095">
        <ele>2673</ele>
        <time>2016-03-27T14:28:29Z</time>
      </trkpt>
      <trkpt lat="42.78885" lon="-0.26083">
        <ele>2666</ele>
        <time>2016-03-27T14:28:31Z</time>
      </trkpt>
      <trkpt lat="42.78887" lon="-0.26071">
        <ele>2662</ele>
        <time>2016-03-27T14:28:33Z</time>
      </trkpt>
      <trkpt lat="42.78894" lon="-0.26066">
        <ele>2663</ele>
        <time>2016-03-27T14:28:38Z</time>
      </trkpt>
      <trkpt lat="42.78894" lon="-0.26063">
        <ele>2662</ele>
        <time>2016-03-27T14:28:54Z</time>
      </trkpt>
      <trkpt lat="42.78891" lon="-0.26054">
        <ele>2657</ele>
        <time>2016-03-27T14:28:57Z</time>
      </trkpt>
      <trkpt lat="42.78891" lon="-0.26035">
        <ele>2651</ele>
        <time>2016-03-27T14:29:00Z</time>
      </trkpt>
      <trkpt lat="42.78894" lon="-0.26021">
        <ele>2647</ele>
        <time>2016-03-27T14:29:02Z</time>
      </trkpt>
      <trkpt lat="42.78897" lon="-0.26007">
        <ele>2643</ele>
        <time>2016-03-27T14:29:04Z</time>
      </trkpt>
      <trkpt lat="42.78899" lon="-0.25992">
        <ele>2639</ele>
        <time>2016-03-27T14:29:06Z</time>
      </trkpt>
      <trkpt lat="42.78901" lon="-0.25985">
        <ele>2637</ele>
        <time>2016-03-27T14:29:07Z</time>
      </trkpt>
      <trkpt lat="42.78911" lon="-0.25956">
        <ele>2632</ele>
        <time>2016-03-27T14:29:11Z</time>
      </trkpt>
      <trkpt lat="42.78913" lon="-0.25945">
        <ele>2628</ele>
        <time>2016-03-27T14:29:13Z</time>
      </trkpt>
      <trkpt lat="42.7892" lon="-0.2593">
        <ele>2628</ele>
        <time>2016-03-27T14:29:16Z</time>
      </trkpt>
      <trkpt lat="42.78925" lon="-0.25925">
        <ele>2631</ele>
        <time>2016-03-27T14:29:17Z</time>
      </trkpt>
      <trkpt lat="42.7893" lon="-0.25913">
        <ele>2634</ele>
        <time>2016-03-27T14:29:19Z</time>
      </trkpt>
      <trkpt lat="42.78938" lon="-0.25907">
        <ele>2641</ele>
        <time>2016-03-27T14:29:21Z</time>
      </trkpt>
      <trkpt lat="42.78949" lon="-0.25891">
        <ele>2648</ele>
        <time>2016-03-27T14:29:25Z</time>
      </trkpt>
      <trkpt lat="42.7897" lon="-0.25849">
        <ele>2651</ele>
        <time>2016-03-27T14:29:41Z</time>
      </trkpt>
      <trkpt lat="42.78971" lon="-0.25851">
        <ele>2653</ele>
        <time>2016-03-27T14:29:57Z</time>
      </trkpt>
      <trkpt lat="42.78974" lon="-0.25849">
        <ele>2655</ele>
        <time>2016-03-27T14:30:19Z</time>
      </trkpt>
      <trkpt lat="42.78974" lon="-0.25847">
        <ele>2654</ele>
        <time>2016-03-27T14:30:32Z</time>
      </trkpt>
      <trkpt lat="42.7897" lon="-0.2584">
        <ele>2647</ele>
        <time>2016-03-27T14:30:36Z</time>
      </trkpt>
      <trkpt lat="42.78967" lon="-0.25821">
        <ele>2644</ele>
        <time>2016-03-27T14:30:39Z</time>
      </trkpt>
      <trkpt lat="42.78966" lon="-0.25785">
        <ele>2646</ele>
        <time>2016-03-27T14:30:43Z</time>
      </trkpt>
      <trkpt lat="42.78957" lon="-0.25738">
        <ele>2638</ele>
        <time>2016-03-27T14:30:48Z</time>
      </trkpt>
      <trkpt lat="42.78954" lon="-0.25721">
        <ele>2632</ele>
        <time>2016-03-27T14:30:50Z</time>
      </trkpt>
      <trkpt lat="42.78953" lon="-0.25704">
        <ele>2628</ele>
        <time>2016-03-27T14:30:52Z</time>
      </trkpt>
      <trkpt lat="42.78957" lon="-0.25696">
        <ele>2630</ele>
        <time>2016-03-27T14:30:53Z</time>
      </trkpt>
      <trkpt lat="42.78968" lon="-0.25673">
        <ele>2640</ele>
        <time>2016-03-27T14:30:56Z</time>
      </trkpt>
      <trkpt lat="42.78974" lon="-0.25636">
        <ele>2637</ele>
        <time>2016-03-27T14:31:00Z</time>
      </trkpt>
      <trkpt lat="42.78964" lon="-0.25607">
        <ele>2618</ele>
        <time>2016-03-27T14:31:03Z</time>
      </trkpt>
      <trkpt lat="42.78957" lon="-0.25591">
        <ele>2607</ele>
        <time>2016-03-27T14:31:05Z</time>
      </trkpt>
      <trkpt lat="42.78952" lon="-0.25574">
        <ele>2599</ele>
        <time>2016-03-27T14:31:07Z</time>
      </trkpt>
      <trkpt lat="42.78955" lon="-0.25567">
        <ele>2599</ele>
        <time>2016-03-27T14:31:08Z</time>
      </trkpt>
      <trkpt lat="42.78975" lon="-0.25513">
        <ele>2603</ele>
        <time>2016-03-27T14:31:14Z</time>
      </trkpt>
      <trkpt lat="42.78977" lon="-0.25504">
        <ele>2602</ele>
        <time>2016-03-27T14:31:15Z</time>
      </trkpt>
      <trkpt lat="42.78985" lon="-0.25467">
        <ele>2589</ele>
        <time>2016-03-27T14:31:19Z</time>
      </trkpt>
      <trkpt lat="42.78982" lon="-0.25441">
        <ele>2574</ele>
        <time>2016-03-27T14:31:22Z</time>
      </trkpt>
      <trkpt lat="42.78978" lon="-0.25433">
        <ele>2567</ele>
        <time>2016-03-27T14:31:23Z</time>
      </trkpt>
      <trkpt lat="42.78969" lon="-0.25417">
        <ele>2556</ele>
        <time>2016-03-27T14:31:25Z</time>
      </trkpt>
      <trkpt lat="42.78965" lon="-0.25399">
        <ele>2545</ele>
        <time>2016-03-27T14:31:27Z</time>
      </trkpt>
      <trkpt lat="42.7897" lon="-0.25362">
        <ele>2526</ele>
        <time>2016-03-27T14:31:34Z</time>
      </trkpt>
      <trkpt lat="42.78974" lon="-0.25342">
        <ele>2515</ele>
        <time>2016-03-27T14:31:39Z</time>
      </trkpt>
      <trkpt lat="42.78982" lon="-0.25329">
        <ele>2508</ele>
        <time>2016-03-27T14:31:42Z</time>
      </trkpt>
      <trkpt lat="42.78985" lon="-0.25312">
        <ele>2499</ele>
        <time>2016-03-27T14:31:46Z</time>
      </trkpt>
      <trkpt lat="42.78988" lon="-0.25309">
        <ele>2497</ele>
        <time>2016-03-27T14:31:58Z</time>
      </trkpt>
      <trkpt lat="42.78989" lon="-0.2531">
        <ele>2498</ele>
        <time>2016-03-27T14:32:18Z</time>
      </trkpt>
      <trkpt lat="42.78992" lon="-0.25312">
        <ele>2499</ele>
        <time>2016-03-27T14:32:37Z</time>
      </trkpt>
      <trkpt lat="42.78991" lon="-0.25313">
        <ele>2499</ele>
        <time>2016-03-27T14:32:42Z</time>
      </trkpt>
      <trkpt lat="42.7899" lon="-0.25319">
        <ele>2502</ele>
        <time>2016-03-27T14:32:53Z</time>
      </trkpt>
      <trkpt lat="42.78991" lon="-0.25317">
        <ele>2501</ele>
        <time>2016-03-27T14:33:08Z</time>
      </trkpt>
      <trkpt lat="42.78992" lon="-0.25314">
        <ele>2500</ele>
        <time>2016-03-27T14:33:12Z</time>
      </trkpt>
      <trkpt lat="42.78991" lon="-0.25297">
        <ele>2490</ele>
        <time>2016-03-27T14:33:16Z</time>
      </trkpt>
      <trkpt lat="42.78984" lon="-0.25246">
        <ele>2467</ele>
        <time>2016-03-27T14:33:25Z</time>
      </trkpt>
      <trkpt lat="42.7898" lon="-0.25216">
        <ele>2463</ele>
        <time>2016-03-27T14:33:31Z</time>
      </trkpt>
      <trkpt lat="42.7898" lon="-0.2521">
        <ele>2462</ele>
        <time>2016-03-27T14:33:33Z</time>
      </trkpt>
      <trkpt lat="42.78985" lon="-0.25209">
        <ele>2460</ele>
        <time>2016-03-27T14:33:36Z</time>
      </trkpt>
      <trkpt lat="42.78988" lon="-0.25205">
        <ele>2458</ele>
        <time>2016-03-27T14:33:39Z</time>
      </trkpt>
      <trkpt lat="42.7899" lon="-0.25203">
        <ele>2457</ele>
        <time>2016-03-27T14:33:40Z</time>
      </trkpt>
      <trkpt lat="42.79" lon="-0.25197">
        <ele>2453</ele>
        <time>2016-03-27T14:33:43Z</time>
      </trkpt>
      <trkpt lat="42.79004" lon="-0.25194">
        <ele>2454</ele>
        <time>2016-03-27T14:33:45Z</time>
      </trkpt>
      <trkpt lat="42.79011" lon="-0.25188">
        <ele>2455</ele>
        <time>2016-03-27T14:33:47Z</time>
      </trkpt>
      <trkpt lat="42.7902" lon="-0.25194">
        <ele>2458</ele>
        <time>2016-03-27T14:33:49Z</time>
      </trkpt>
      <trkpt lat="42.79025" lon="-0.25202">
        <ele>2461</ele>
        <time>2016-03-27T14:33:50Z</time>
      </trkpt>
      <trkpt lat="42.79034" lon="-0.25215">
        <ele>2464</ele>
        <time>2016-03-27T14:33:52Z</time>
      </trkpt>
      <trkpt lat="42.79046" lon="-0.25227">
        <ele>2468</ele>
        <time>2016-03-27T14:37:27Z</time>
      </trkpt>
      <trkpt lat="42.79045" lon="-0.25224">
        <ele>2467</ele>
        <time>2016-03-27T14:37:50Z</time>
      </trkpt>
      <trkpt lat="42.79039" lon="-0.25219">
        <ele>2466</ele>
        <time>2016-03-27T14:38:11Z</time>
      </trkpt>
      <trkpt lat="42.79035" lon="-0.25212">
        <ele>2464</ele>
        <time>2016-03-27T14:38:26Z</time>
      </trkpt>
      <trkpt lat="42.79038" lon="-0.2521">
        <ele>2465</ele>
        <time>2016-03-27T14:38:51Z</time>
      </trkpt>
      <trkpt lat="42.79038" lon="-0.2521">
        <ele>2465</ele>
        <time>2016-03-27T14:38:52Z</time>
      </trkpt>
      <trkpt lat="42.79037" lon="-0.25211">
        <ele>2465</ele>
        <time>2016-03-27T14:39:21Z</time>
      </trkpt>
      <trkpt lat="42.79038" lon="-0.25211">
        <ele>2465</ele>
        <time>2016-03-27T14:39:24Z</time>
      </trkpt>
      <trkpt lat="42.7904" lon="-0.2521">
        <ele>2465</ele>
        <time>2016-03-27T14:39:43Z</time>
      </trkpt>
      <trkpt lat="42.79036" lon="-0.2521">
        <ele>2464</ele>
        <time>2016-03-27T14:40:09Z</time>
      </trkpt>
      <trkpt lat="42.79034" lon="-0.2521">
        <ele>2464</ele>
        <time>2016-03-27T14:40:35Z</time>
      </trkpt>
      <trkpt lat="42.79031" lon="-0.25211">
        <ele>2463</ele>
        <time>2016-03-27T14:40:57Z</time>
      </trkpt>
      <trkpt lat="42.7903" lon="-0.25211">
        <ele>2463</ele>
        <time>2016-03-27T14:41:23Z</time>
      </trkpt>
      <trkpt lat="42.79031" lon="-0.25211">
        <ele>2463</ele>
        <time>2016-03-27T14:41:47Z</time>
      </trkpt>
      <trkpt lat="42.79031" lon="-0.25212">
        <ele>2463</ele>
        <time>2016-03-27T14:42:03Z</time>
      </trkpt>
      <trkpt lat="42.79032" lon="-0.2521">
        <ele>2463</ele>
        <time>2016-03-27T14:42:31Z</time>
      </trkpt>
      <trkpt lat="42.7903" lon="-0.25185">
        <ele>2460</ele>
        <time>2016-03-27T14:42:36Z</time>
      </trkpt>
      <trkpt lat="42.79029" lon="-0.25156">
        <ele>2456</ele>
        <time>2016-03-27T14:42:39Z</time>
      </trkpt>
      <trkpt lat="42.79029" lon="-0.25125">
        <ele>2450</ele>
        <time>2016-03-27T14:42:42Z</time>
      </trkpt>
      <trkpt lat="42.79029" lon="-0.25064">
        <ele>2439</ele>
        <time>2016-03-27T14:42:52Z</time>
      </trkpt>
      <trkpt lat="42.79032" lon="-0.25061">
        <ele>2439</ele>
        <time>2016-03-27T14:43:02Z</time>
      </trkpt>
      <trkpt lat="42.79033" lon="-0.2506">
        <ele>2439</ele>
        <time>2016-03-27T14:43:24Z</time>
      </trkpt>
      <trkpt lat="42.79035" lon="-0.25051">
        <ele>2438</ele>
        <time>2016-03-27T14:43:27Z</time>
      </trkpt>
      <trkpt lat="42.79038" lon="-0.25017">
        <ele>2434</ele>
        <time>2016-03-27T14:43:32Z</time>
      </trkpt>
      <trkpt lat="42.79046" lon="-0.24994">
        <ele>2431</ele>
        <time>2016-03-27T14:43:35Z</time>
      </trkpt>
      <trkpt lat="42.79051" lon="-0.24983">
        <ele>2431</ele>
        <time>2016-03-27T14:43:36Z</time>
      </trkpt>
      <trkpt lat="42.79056" lon="-0.24959">
        <ele>2429</ele>
        <time>2016-03-27T14:43:38Z</time>
      </trkpt>
      <trkpt lat="42.79048" lon="-0.24911">
        <ele>2425</ele>
        <time>2016-03-27T14:43:43Z</time>
      </trkpt>
      <trkpt lat="42.79059" lon="-0.24858">
        <ele>2425</ele>
        <time>2016-03-27T14:43:48Z</time>
      </trkpt>
      <trkpt lat="42.79063" lon="-0.24835">
        <ele>2426</ele>
        <time>2016-03-27T14:43:50Z</time>
      </trkpt>
      <trkpt lat="42.79081" lon="-0.24805">
        <ele>2431</ele>
        <time>2016-03-27T14:43:54Z</time>
      </trkpt>
      <trkpt lat="42.79086" lon="-0.24798">
        <ele>2434</ele>
        <time>2016-03-27T14:43:55Z</time>
      </trkpt>
      <trkpt lat="42.79103" lon="-0.24751">
        <ele>2450</ele>
        <time>2016-03-27T14:44:00Z</time>
      </trkpt>
      <trkpt lat="42.79105" lon="-0.24739">
        <ele>2453</ele>
        <time>2016-03-27T14:44:01Z</time>
      </trkpt>
      <trkpt lat="42.79114" lon="-0.24707">
        <ele>2464</ele>
        <time>2016-03-27T14:44:05Z</time>
      </trkpt>
      <trkpt lat="42.79116" lon="-0.2467">
        <ele>2471</ele>
        <time>2016-03-27T14:44:15Z</time>
      </trkpt>
      <trkpt lat="42.79119" lon="-0.2467">
        <ele>2473</ele>
        <time>2016-03-27T14:44:27Z</time>
      </trkpt>
      <trkpt lat="42.7912" lon="-0.24673">
        <ele>2474</ele>
        <time>2016-03-27T14:44:45Z</time>
      </trkpt>
      <trkpt lat="42.79117" lon="-0.24665">
        <ele>2473</ele>
        <time>2016-03-27T14:44:55Z</time>
      </trkpt>
      <trkpt lat="42.79117" lon="-0.24656">
        <ele>2473</ele>
        <time>2016-03-27T14:45:06Z</time>
      </trkpt>
      <trkpt lat="42.79117" lon="-0.24656">
        <ele>2473</ele>
        <time>2016-03-27T14:45:24Z</time>
      </trkpt>
      <trkpt lat="42.79117" lon="-0.24659">
        <ele>2473</ele>
        <time>2016-03-27T14:45:33Z</time>
      </trkpt>
      <trkpt lat="42.79115" lon="-0.24659">
        <ele>2471</ele>
        <time>2016-03-27T14:45:44Z</time>
      </trkpt>
      <trkpt lat="42.79115" lon="-0.24657">
        <ele>2471</ele>
        <time>2016-03-27T14:46:00Z</time>
      </trkpt>
      <trkpt lat="42.79115" lon="-0.24658">
        <ele>2471</ele>
        <time>2016-03-27T14:46:20Z</time>
      </trkpt>
      <trkpt lat="42.79115" lon="-0.24658">
        <ele>2471</ele>
        <time>2016-03-27T14:46:21Z</time>
      </trkpt>
      <trkpt lat="42.79115" lon="-0.24657">
        <ele>2471</ele>
        <time>2016-03-27T14:46:29Z</time>
      </trkpt>
      <trkpt lat="42.79114" lon="-0.24645">
        <ele>2471</ele>
        <time>2016-03-27T14:46:35Z</time>
      </trkpt>
      <trkpt lat="42.79114" lon="-0.24639">
        <ele>2471</ele>
        <time>2016-03-27T14:46:38Z</time>
      </trkpt>
      <trkpt lat="42.79111" lon="-0.24613">
        <ele>2470</ele>
        <time>2016-03-27T14:46:48Z</time>
      </trkpt>
      <trkpt lat="42.79101" lon="-0.24578">
        <ele>2462</ele>
        <time>2016-03-27T14:46:57Z</time>
      </trkpt>
      <trkpt lat="42.79087" lon="-0.24561">
        <ele>2449</ele>
        <time>2016-03-27T14:47:02Z</time>
      </trkpt>
      <trkpt lat="42.79073" lon="-0.24534">
        <ele>2442</ele>
        <time>2016-03-27T14:47:13Z</time>
      </trkpt>
      <trkpt lat="42.79058" lon="-0.24482">
        <ele>2435</ele>
        <time>2016-03-27T14:47:30Z</time>
      </trkpt>
      <trkpt lat="42.79053" lon="-0.24469">
        <ele>2433</ele>
        <time>2016-03-27T14:47:37Z</time>
      </trkpt>
      <trkpt lat="42.79051" lon="-0.24455">
        <ele>2433</ele>
        <time>2016-03-27T14:47:51Z</time>
      </trkpt>
      <trkpt lat="42.79051" lon="-0.24445">
        <ele>2432</ele>
        <time>2016-03-27T14:48:03Z</time>
      </trkpt>
      <trkpt lat="42.7905" lon="-0.24438">
        <ele>2432</ele>
        <time>2016-03-27T14:48:15Z</time>
      </trkpt>
      <trkpt lat="42.79049" lon="-0.24438">
        <ele>2431</ele>
        <time>2016-03-27T14:48:34Z</time>
      </trkpt>
      <trkpt lat="42.7905" lon="-0.24441">
        <ele>2432</ele>
        <time>2016-03-27T14:48:52Z</time>
      </trkpt>
      <trkpt lat="42.7905" lon="-0.2444">
        <ele>2432</ele>
        <time>2016-03-27T14:48:56Z</time>
      </trkpt>
      <trkpt lat="42.7905" lon="-0.24438">
        <ele>2432</ele>
        <time>2016-03-27T14:48:58Z</time>
      </trkpt>
      <trkpt lat="42.7905" lon="-0.24431">
        <ele>2431</ele>
        <time>2016-03-27T14:49:03Z</time>
      </trkpt>
      <trkpt lat="42.79048" lon="-0.24394">
        <ele>2428</ele>
        <time>2016-03-27T14:49:17Z</time>
      </trkpt>
      <trkpt lat="42.7905" lon="-0.24362">
        <ele>2425</ele>
        <time>2016-03-27T14:49:22Z</time>
      </trkpt>
      <trkpt lat="42.79051" lon="-0.24307">
        <ele>2417</ele>
        <time>2016-03-27T14:49:29Z</time>
      </trkpt>
      <trkpt lat="42.79053" lon="-0.24266">
        <ele>2410</ele>
        <time>2016-03-27T14:49:34Z</time>
      </trkpt>
      <trkpt lat="42.79053" lon="-0.24258">
        <ele>2408</ele>
        <time>2016-03-27T14:49:35Z</time>
      </trkpt>
      <trkpt lat="42.79053" lon="-0.24244">
        <ele>2405</ele>
        <time>2016-03-27T14:49:37Z</time>
      </trkpt>
      <trkpt lat="42.79055" lon="-0.24206">
        <ele>2399</ele>
        <time>2016-03-27T14:49:42Z</time>
      </trkpt>
      <trkpt lat="42.79053" lon="-0.24171">
        <ele>2392</ele>
        <time>2016-03-27T14:49:46Z</time>
      </trkpt>
      <trkpt lat="42.79063" lon="-0.24131">
        <ele>2385</ele>
        <time>2016-03-27T14:49:50Z</time>
      </trkpt>
      <trkpt lat="42.7906" lon="-0.2412">
        <ele>2383</ele>
        <time>2016-03-27T14:49:51Z</time>
      </trkpt>
      <trkpt lat="42.79061" lon="-0.24107">
        <ele>2381</ele>
        <time>2016-03-27T14:49:53Z</time>
      </trkpt>
      <trkpt lat="42.79065" lon="-0.24103">
        <ele>2380</ele>
        <time>2016-03-27T14:49:54Z</time>
      </trkpt>
      <trkpt lat="42.79069" lon="-0.2409">
        <ele>2377</ele>
        <time>2016-03-27T14:49:56Z</time>
      </trkpt>
      <trkpt lat="42.79071" lon="-0.24065">
        <ele>2371</ele>
        <time>2016-03-27T14:50:00Z</time>
      </trkpt>
      <trkpt lat="42.7907" lon="-0.24056">
        <ele>2368</ele>
        <time>2016-03-27T14:50:02Z</time>
      </trkpt>
      <trkpt lat="42.79071" lon="-0.24048">
        <ele>2366</ele>
        <time>2016-03-27T14:50:05Z</time>
      </trkpt>
      <trkpt lat="42.79076" lon="-0.24046">
        <ele>2365</ele>
        <time>2016-03-27T14:50:08Z</time>
      </trkpt>
      <trkpt lat="42.79084" lon="-0.24053">
        <ele>2366</ele>
        <time>2016-03-27T14:50:10Z</time>
      </trkpt>
      <trkpt lat="42.79088" lon="-0.24056">
        <ele>2368</ele>
        <time>2016-03-27T14:50:12Z</time>
      </trkpt>
      <trkpt lat="42.79088" lon="-0.24057">
        <ele>2369</ele>
        <time>2016-03-27T14:50:14Z</time>
      </trkpt>
      <trkpt lat="42.79086" lon="-0.24051">
        <ele>2366</ele>
        <time>2016-03-27T14:50:16Z</time>
      </trkpt>
      <trkpt lat="42.79081" lon="-0.24035">
        <ele>2361</ele>
        <time>2016-03-27T14:50:18Z</time>
      </trkpt>
      <trkpt lat="42.79085" lon="-0.24025">
        <ele>2358</ele>
        <time>2016-03-27T14:50:22Z</time>
      </trkpt>
      <trkpt lat="42.79089" lon="-0.24017">
        <ele>2356</ele>
        <time>2016-03-27T14:50:24Z</time>
      </trkpt>
      <trkpt lat="42.79088" lon="-0.24003">
        <ele>2352</ele>
        <time>2016-03-27T14:50:28Z</time>
      </trkpt>
      <trkpt lat="42.79096" lon="-0.23995">
        <ele>2352</ele>
        <time>2016-03-27T14:50:31Z</time>
      </trkpt>
      <trkpt lat="42.79104" lon="-0.23963">
        <ele>2348</ele>
        <time>2016-03-27T14:50:37Z</time>
      </trkpt>
      <trkpt lat="42.7911" lon="-0.23954">
        <ele>2348</ele>
        <time>2016-03-27T14:50:40Z</time>
      </trkpt>
      <trkpt lat="42.79113" lon="-0.23947">
        <ele>2348</ele>
        <time>2016-03-27T14:50:41Z</time>
      </trkpt>
      <trkpt lat="42.79121" lon="-0.23912">
        <ele>2344</ele>
        <time>2016-03-27T14:50:45Z</time>
      </trkpt>
      <trkpt lat="42.79125" lon="-0.23894">
        <ele>2343</ele>
        <time>2016-03-27T14:50:48Z</time>
      </trkpt>
      <trkpt lat="42.79128" lon="-0.23881">
        <ele>2342</ele>
        <time>2016-03-27T14:50:51Z</time>
      </trkpt>
      <trkpt lat="42.79126" lon="-0.23876">
        <ele>2341</ele>
        <time>2016-03-27T14:51:06Z</time>
      </trkpt>
      <trkpt lat="42.7913" lon="-0.23875">
        <ele>2342</ele>
        <time>2016-03-27T14:51:30Z</time>
      </trkpt>
      <trkpt lat="42.79128" lon="-0.23875">
        <ele>2341</ele>
        <time>2016-03-27T14:51:51Z</time>
      </trkpt>
      <trkpt lat="42.79127" lon="-0.23875">
        <ele>2341</ele>
        <time>2016-03-27T14:52:11Z</time>
      </trkpt>
      <trkpt lat="42.79126" lon="-0.23874">
        <ele>2340</ele>
        <time>2016-03-27T14:52:25Z</time>
      </trkpt>
      <trkpt lat="42.79127" lon="-0.23871">
        <ele>2340</ele>
        <time>2016-03-27T14:52:29Z</time>
      </trkpt>
      <trkpt lat="42.79125" lon="-0.23857">
        <ele>2338</ele>
        <time>2016-03-27T14:52:35Z</time>
      </trkpt>
      <trkpt lat="42.79121" lon="-0.23824">
        <ele>2332</ele>
        <time>2016-03-27T14:52:43Z</time>
      </trkpt>
      <trkpt lat="42.79121" lon="-0.23818">
        <ele>2331</ele>
        <time>2016-03-27T14:52:44Z</time>
      </trkpt>
      <trkpt lat="42.79119" lon="-0.23805">
        <ele>2328</ele>
        <time>2016-03-27T14:52:46Z</time>
      </trkpt>
      <trkpt lat="42.7912" lon="-0.23794">
        <ele>2326</ele>
        <time>2016-03-27T14:52:48Z</time>
      </trkpt>
      <trkpt lat="42.7912" lon="-0.23761">
        <ele>2321</ele>
        <time>2016-03-27T14:52:53Z</time>
      </trkpt>
      <trkpt lat="42.7912" lon="-0.23754">
        <ele>2320</ele>
        <time>2016-03-27T14:52:54Z</time>
      </trkpt>
      <trkpt lat="42.79122" lon="-0.23724">
        <ele>2318</ele>
        <time>2016-03-27T14:53:01Z</time>
      </trkpt>
      <trkpt lat="42.79121" lon="-0.23712">
        <ele>2317</ele>
        <time>2016-03-27T14:53:03Z</time>
      </trkpt>
      <trkpt lat="42.7912" lon="-0.23684">
        <ele>2314</ele>
        <time>2016-03-27T14:53:08Z</time>
      </trkpt>
      <trkpt lat="42.79109" lon="-0.23629">
        <ele>2309</ele>
        <time>2016-03-27T14:53:19Z</time>
      </trkpt>
      <trkpt lat="42.79108" lon="-0.23613">
        <ele>2309</ele>
        <time>2016-03-27T14:53:22Z</time>
      </trkpt>
      <trkpt lat="42.79093" lon="-0.23549">
        <ele>2301</ele>
        <time>2016-03-27T14:53:33Z</time>
      </trkpt>
      <trkpt lat="42.7909" lon="-0.23537">
        <ele>2300</ele>
        <time>2016-03-27T14:53:35Z</time>
      </trkpt>
      <trkpt lat="42.79083" lon="-0.23505">
        <ele>2296</ele>
        <time>2016-03-27T14:53:42Z</time>
      </trkpt>
      <trkpt lat="42.79076" lon="-0.23493">
        <ele>2294</ele>
        <time>2016-03-27T14:53:46Z</time>
      </trkpt>
      <trkpt lat="42.79065" lon="-0.23467">
        <ele>2291</ele>
        <time>2016-03-27T14:53:52Z</time>
      </trkpt>
      <trkpt lat="42.79052" lon="-0.23426">
        <ele>2284</ele>
        <time>2016-03-27T14:54:01Z</time>
      </trkpt>
      <trkpt lat="42.79044" lon="-0.23409">
        <ele>2281</ele>
        <time>2016-03-27T14:54:10Z</time>
      </trkpt>
      <trkpt lat="42.79053" lon="-0.23403">
        <ele>2285</ele>
        <time>2016-03-27T14:54:14Z</time>
      </trkpt>
      <trkpt lat="42.79064" lon="-0.23405">
        <ele>2290</ele>
        <time>2016-03-27T14:54:16Z</time>
      </trkpt>
      <trkpt lat="42.79072" lon="-0.23414">
        <ele>2292</ele>
        <time>2016-03-27T14:54:19Z</time>
      </trkpt>
      <trkpt lat="42.79072" lon="-0.23415">
        <ele>2292</ele>
        <time>2016-03-27T14:54:21Z</time>
      </trkpt>
      <trkpt lat="42.79074" lon="-0.23413">
        <ele>2293</ele>
        <time>2016-03-27T14:54:27Z</time>
      </trkpt>
      <trkpt lat="42.79076" lon="-0.23404">
        <ele>2295</ele>
        <time>2016-03-27T14:54:32Z</time>
      </trkpt>
      <trkpt lat="42.79078" lon="-0.23409">
        <ele>2295</ele>
        <time>2016-03-27T14:54:42Z</time>
      </trkpt>
      <trkpt lat="42.7908" lon="-0.23415">
        <ele>2295</ele>
        <time>2016-03-27T14:55:03Z</time>
      </trkpt>
      <trkpt lat="42.79087" lon="-0.2342">
        <ele>2298</ele>
        <time>2016-03-27T14:55:18Z</time>
      </trkpt>
      <trkpt lat="42.79079" lon="-0.23414">
        <ele>2295</ele>
        <time>2016-03-27T14:55:28Z</time>
      </trkpt>
      <trkpt lat="42.79084" lon="-0.23414">
        <ele>2297</ele>
        <time>2016-03-27T14:55:40Z</time>
      </trkpt>
      <trkpt lat="42.79086" lon="-0.23415">
        <ele>2298</ele>
        <time>2016-03-27T14:55:56Z</time>
      </trkpt>
      <trkpt lat="42.79079" lon="-0.2341">
        <ele>2295</ele>
        <time>2016-03-27T14:56:23Z</time>
      </trkpt>
      <trkpt lat="42.79075" lon="-0.23406">
        <ele>2294</ele>
        <time>2016-03-27T14:56:53Z</time>
      </trkpt>
      <trkpt lat="42.79076" lon="-0.23408">
        <ele>2294</ele>
        <time>2016-03-27T14:57:17Z</time>
      </trkpt>
      <trkpt lat="42.79076" lon="-0.23408">
        <ele>2295</ele>
        <time>2016-03-27T14:57:30Z</time>
      </trkpt>
      <trkpt lat="42.79078" lon="-0.23409">
        <ele>2295</ele>
        <time>2016-03-27T14:58:04Z</time>
      </trkpt>
      <trkpt lat="42.79077" lon="-0.23409">
        <ele>2295</ele>
        <time>2016-03-27T14:58:24Z</time>
      </trkpt>
      <trkpt lat="42.79076" lon="-0.23408">
        <ele>2295</ele>
        <time>2016-03-27T14:58:38Z</time>
      </trkpt>
      <trkpt lat="42.79078" lon="-0.2341">
        <ele>2295</ele>
        <time>2016-03-27T14:58:50Z</time>
      </trkpt>
      <trkpt lat="42.79078" lon="-0.2341">
        <ele>2295</ele>
        <time>2016-03-27T14:59:20Z</time>
      </trkpt>
      <trkpt lat="42.79077" lon="-0.23408">
        <ele>2295</ele>
        <time>2016-03-27T14:59:34Z</time>
      </trkpt>
      <trkpt lat="42.79078" lon="-0.2341">
        <ele>2295</ele>
        <time>2016-03-27T14:59:47Z</time>
      </trkpt>
      <trkpt lat="42.7908" lon="-0.2341">
        <ele>2296</ele>
        <time>2016-03-27T14:59:55Z</time>
      </trkpt>
      <trkpt lat="42.7908" lon="-0.23386">
        <ele>2300</ele>
        <time>2016-03-27T15:00:03Z</time>
      </trkpt>
      <trkpt lat="42.79079" lon="-0.23384">
        <ele>2300</ele>
        <time>2016-03-27T15:00:04Z</time>
      </trkpt>
      <trkpt lat="42.7907" lon="-0.23366">
        <ele>2298</ele>
        <time>2016-03-27T15:00:10Z</time>
      </trkpt>
      <trkpt lat="42.7906" lon="-0.23348">
        <ele>2295</ele>
        <time>2016-03-27T15:00:14Z</time>
      </trkpt>
      <trkpt lat="42.79048" lon="-0.23333">
        <ele>2290</ele>
        <time>2016-03-27T15:00:16Z</time>
      </trkpt>
      <trkpt lat="42.79038" lon="-0.23319">
        <ele>2286</ele>
        <time>2016-03-27T15:00:24Z</time>
      </trkpt>
      <trkpt lat="42.79036" lon="-0.23321">
        <ele>2285</ele>
        <time>2016-03-27T15:00:50Z</time>
      </trkpt>
      <trkpt lat="42.79036" lon="-0.23322">
        <ele>2284</ele>
        <time>2016-03-27T15:01:15Z</time>
      </trkpt>
      <trkpt lat="42.7903" lon="-0.23303">
        <ele>2283</ele>
        <time>2016-03-27T15:01:28Z</time>
      </trkpt>
      <trkpt lat="42.7902" lon="-0.23269">
        <ele>2281</ele>
        <time>2016-03-27T15:01:34Z</time>
      </trkpt>
      <trkpt lat="42.7901" lon="-0.23236">
        <ele>2279</ele>
        <time>2016-03-27T15:01:40Z</time>
      </trkpt>
      <trkpt lat="42.79009" lon="-0.2323">
        <ele>2279</ele>
        <time>2016-03-27T15:01:41Z</time>
      </trkpt>
      <trkpt lat="42.79004" lon="-0.23204">
        <ele>2280</ele>
        <time>2016-03-27T15:01:48Z</time>
      </trkpt>
      <trkpt lat="42.78997" lon="-0.23177">
        <ele>2280</ele>
        <time>2016-03-27T15:01:52Z</time>
      </trkpt>
      <trkpt lat="42.78993" lon="-0.23165">
        <ele>2280</ele>
        <time>2016-03-27T15:01:54Z</time>
      </trkpt>
      <trkpt lat="42.78973" lon="-0.23128">
        <ele>2274</ele>
        <time>2016-03-27T15:02:04Z</time>
      </trkpt>
      <trkpt lat="42.78959" lon="-0.23107">
        <ele>2268</ele>
        <time>2016-03-27T15:02:08Z</time>
      </trkpt>
      <trkpt lat="42.7895" lon="-0.23093">
        <ele>2264</ele>
        <time>2016-03-27T15:02:10Z</time>
      </trkpt>
      <trkpt lat="42.78942" lon="-0.23067">
        <ele>2263</ele>
        <time>2016-03-27T15:02:18Z</time>
      </trkpt>
      <trkpt lat="42.7894" lon="-0.23061">
        <ele>2263</ele>
        <time>2016-03-27T15:02:26Z</time>
      </trkpt>
      <trkpt lat="42.78937" lon="-0.23048">
        <ele>2262</ele>
        <time>2016-03-27T15:02:36Z</time>
      </trkpt>
      <trkpt lat="42.78927" lon="-0.2301">
        <ele>2261</ele>
        <time>2016-03-27T15:02:54Z</time>
      </trkpt>
      <trkpt lat="42.78914" lon="-0.22995">
        <ele>2254</ele>
        <time>2016-03-27T15:02:59Z</time>
      </trkpt>
      <trkpt lat="42.78909" lon="-0.2299">
        <ele>2252</ele>
        <time>2016-03-27T15:03:00Z</time>
      </trkpt>
      <trkpt lat="42.78895" lon="-0.22947">
        <ele>2242</ele>
        <time>2016-03-27T15:03:07Z</time>
      </trkpt>
      <trkpt lat="42.78893" lon="-0.22914">
        <ele>2238</ele>
        <time>2016-03-27T15:03:15Z</time>
      </trkpt>
      <trkpt lat="42.78894" lon="-0.22914">
        <ele>2238</ele>
        <time>2016-03-27T15:03:31Z</time>
      </trkpt>
      <trkpt lat="42.78895" lon="-0.22916">
        <ele>2239</ele>
        <time>2016-03-27T15:03:34Z</time>
      </trkpt>
      <trkpt lat="42.78894" lon="-0.22903">
        <ele>2236</ele>
        <time>2016-03-27T15:03:39Z</time>
      </trkpt>
      <trkpt lat="42.78891" lon="-0.22897">
        <ele>2234</ele>
        <time>2016-03-27T15:03:41Z</time>
      </trkpt>
      <trkpt lat="42.78889" lon="-0.22894">
        <ele>2233</ele>
        <time>2016-03-27T15:03:42Z</time>
      </trkpt>
      <trkpt lat="42.7888" lon="-0.22886">
        <ele>2228</ele>
        <time>2016-03-27T15:03:45Z</time>
      </trkpt>
      <trkpt lat="42.78877" lon="-0.22881">
        <ele>2226</ele>
        <time>2016-03-27T15:03:47Z</time>
      </trkpt>
      <trkpt lat="42.78871" lon="-0.22869">
        <ele>2222</ele>
        <time>2016-03-27T15:03:50Z</time>
      </trkpt>
      <trkpt lat="42.78861" lon="-0.22834">
        <ele>2213</ele>
        <time>2016-03-27T15:03:55Z</time>
      </trkpt>
      <trkpt lat="42.78858" lon="-0.22816">
        <ele>2210</ele>
        <time>2016-03-27T15:03:57Z</time>
      </trkpt>
      <trkpt lat="42.78857" lon="-0.22788">
        <ele>2206</ele>
        <time>2016-03-27T15:04:01Z</time>
      </trkpt>
      <trkpt lat="42.78854" lon="-0.22767">
        <ele>2202</ele>
        <time>2016-03-27T15:04:05Z</time>
      </trkpt>
      <trkpt lat="42.78843" lon="-0.22718">
        <ele>2195</ele>
        <time>2016-03-27T15:04:17Z</time>
      </trkpt>
      <trkpt lat="42.78845" lon="-0.22715">
        <ele>2195</ele>
        <time>2016-03-27T15:04:26Z</time>
      </trkpt>
      <trkpt lat="42.78848" lon="-0.2272">
        <ele>2197</ele>
        <time>2016-03-27T15:04:31Z</time>
      </trkpt>
      <trkpt lat="42.78854" lon="-0.22727">
        <ele>2200</ele>
        <time>2016-03-27T15:04:34Z</time>
      </trkpt>
      <trkpt lat="42.78856" lon="-0.2273">
        <ele>2200</ele>
        <time>2016-03-27T15:04:35Z</time>
      </trkpt>
      <trkpt lat="42.78858" lon="-0.22733">
        <ele>2201</ele>
        <time>2016-03-27T15:04:37Z</time>
      </trkpt>
      <trkpt lat="42.78859" lon="-0.2273">
        <ele>2201</ele>
        <time>2016-03-27T15:04:39Z</time>
      </trkpt>
      <trkpt lat="42.78858" lon="-0.22724">
        <ele>2201</ele>
        <time>2016-03-27T15:04:42Z</time>
      </trkpt>
      <trkpt lat="42.78859" lon="-0.22724">
        <ele>2201</ele>
        <time>2016-03-27T15:04:43Z</time>
      </trkpt>
      <trkpt lat="42.78859" lon="-0.22705">
        <ele>2201</ele>
        <time>2016-03-27T15:04:47Z</time>
      </trkpt>
      <trkpt lat="42.7886" lon="-0.22687">
        <ele>2200</ele>
        <time>2016-03-27T15:04:49Z</time>
      </trkpt>
      <trkpt lat="42.78859" lon="-0.22626">
        <ele>2194</ele>
        <time>2016-03-27T15:04:59Z</time>
      </trkpt>
      <trkpt lat="42.78854" lon="-0.22608">
        <ele>2190</ele>
        <time>2016-03-27T15:05:11Z</time>
      </trkpt>
      <trkpt lat="42.78849" lon="-0.22598">
        <ele>2187</ele>
        <time>2016-03-27T15:05:24Z</time>
      </trkpt>
      <trkpt lat="42.7884" lon="-0.22581">
        <ele>2183</ele>
        <time>2016-03-27T15:05:36Z</time>
      </trkpt>
      <trkpt lat="42.78844" lon="-0.2258">
        <ele>2184</ele>
        <time>2016-03-27T15:05:52Z</time>
      </trkpt>
      <trkpt lat="42.78843" lon="-0.22579">
        <ele>2184</ele>
        <time>2016-03-27T15:06:07Z</time>
      </trkpt>
      <trkpt lat="42.78841" lon="-0.22577">
        <ele>2183</ele>
        <time>2016-03-27T15:06:47Z</time>
      </trkpt>
      <trkpt lat="42.78841" lon="-0.22576">
        <ele>2183</ele>
        <time>2016-03-27T15:07:26Z</time>
      </trkpt>
      <trkpt lat="42.78839" lon="-0.22576">
        <ele>2183</ele>
        <time>2016-03-27T15:08:11Z</time>
      </trkpt>
      <trkpt lat="42.78839" lon="-0.22575">
        <ele>2183</ele>
        <time>2016-03-27T15:08:52Z</time>
      </trkpt>
      <trkpt lat="42.78839" lon="-0.22575">
        <ele>2183</ele>
        <time>2016-03-27T15:09:33Z</time>
      </trkpt>
      <trkpt lat="42.78839" lon="-0.22574">
        <ele>2183</ele>
        <time>2016-03-27T15:10:15Z</time>
      </trkpt>
      <trkpt lat="42.78842" lon="-0.22574">
        <ele>2183</ele>
        <time>2016-03-27T15:10:36Z</time>
      </trkpt>
      <trkpt lat="42.78839" lon="-0.22573">
        <ele>2183</ele>
        <time>2016-03-27T15:10:47Z</time>
      </trkpt>
      <trkpt lat="42.78829" lon="-0.22567">
        <ele>2181</ele>
        <time>2016-03-27T15:11:00Z</time>
      </trkpt>
      <trkpt lat="42.78812" lon="-0.2256">
        <ele>2180</ele>
        <time>2016-03-27T15:11:15Z</time>
      </trkpt>
      <trkpt lat="42.78806" lon="-0.22556">
        <ele>2180</ele>
        <time>2016-03-27T15:11:21Z</time>
      </trkpt>
      <trkpt lat="42.788" lon="-0.22554">
        <ele>2180</ele>
        <time>2016-03-27T15:11:27Z</time>
      </trkpt>
      <trkpt lat="42.78784" lon="-0.22548">
        <ele>2179</ele>
        <time>2016-03-27T15:11:42Z</time>
      </trkpt>
      <trkpt lat="42.78767" lon="-0.22538">
        <ele>2178</ele>
        <time>2016-03-27T15:11:56Z</time>
      </trkpt>
      <trkpt lat="42.78753" lon="-0.22527">
        <ele>2177</ele>
        <time>2016-03-27T15:12:10Z</time>
      </trkpt>
      <trkpt lat="42.7874" lon="-0.22519">
        <ele>2177</ele>
        <time>2016-03-27T15:12:23Z</time>
      </trkpt>
      <trkpt lat="42.78724" lon="-0.22512">
        <ele>2176</ele>
        <time>2016-03-27T15:12:37Z</time>
      </trkpt>
      <trkpt lat="42.78713" lon="-0.22503">
        <ele>2176</ele>
        <time>2016-03-27T15:12:47Z</time>
      </trkpt>
      <trkpt lat="42.78711" lon="-0.22502">
        <ele>2176</ele>
        <time>2016-03-27T15:12:49Z</time>
      </trkpt>
      <trkpt lat="42.78693" lon="-0.22489">
        <ele>2176</ele>
        <time>2016-03-27T15:13:06Z</time>
      </trkpt>
      <trkpt lat="42.78676" lon="-0.22477">
        <ele>2177</ele>
        <time>2016-03-27T15:13:22Z</time>
      </trkpt>
      <trkpt lat="42.78659" lon="-0.22463">
        <ele>2177</ele>
        <time>2016-03-27T15:13:39Z</time>
      </trkpt>
      <trkpt lat="42.78646" lon="-0.22448">
        <ele>2178</ele>
        <time>2016-03-27T15:13:55Z</time>
      </trkpt>
      <trkpt lat="42.78636" lon="-0.22437">
        <ele>2178</ele>
        <time>2016-03-27T15:14:08Z</time>
      </trkpt>
      <trkpt lat="42.78621" lon="-0.22423">
        <ele>2178</ele>
        <time>2016-03-27T15:14:25Z</time>
      </trkpt>
      <trkpt lat="42.78601" lon="-0.22411">
        <ele>2179</ele>
        <time>2016-03-27T15:14:41Z</time>
      </trkpt>
      <trkpt lat="42.78586" lon="-0.22394">
        <ele>2181</ele>
        <time>2016-03-27T15:14:57Z</time>
      </trkpt>
      <trkpt lat="42.78568" lon="-0.22378">
        <ele>2183</ele>
        <time>2016-03-27T15:15:14Z</time>
      </trkpt>
      <trkpt lat="42.78554" lon="-0.22364">
        <ele>2183</ele>
        <time>2016-03-27T15:15:29Z</time>
      </trkpt>
      <trkpt lat="42.78549" lon="-0.2236">
        <ele>2183</ele>
        <time>2016-03-27T15:15:33Z</time>
      </trkpt>
      <trkpt lat="42.78535" lon="-0.22344">
        <ele>2183</ele>
        <time>2016-03-27T15:15:50Z</time>
      </trkpt>
      <trkpt lat="42.78523" lon="-0.22327">
        <ele>2183</ele>
        <time>2016-03-27T15:16:05Z</time>
      </trkpt>
      <trkpt lat="42.78509" lon="-0.22307">
        <ele>2182</ele>
        <time>2016-03-27T15:16:21Z</time>
      </trkpt>
      <trkpt lat="42.78496" lon="-0.22288">
        <ele>2181</ele>
        <time>2016-03-27T15:16:37Z</time>
      </trkpt>
      <trkpt lat="42.78485" lon="-0.22273">
        <ele>2181</ele>
        <time>2016-03-27T15:16:53Z</time>
      </trkpt>
      <trkpt lat="42.78483" lon="-0.22271">
        <ele>2180</ele>
        <time>2016-03-27T15:16:55Z</time>
      </trkpt>
      <trkpt lat="42.78471" lon="-0.22256">
        <ele>2180</ele>
        <time>2016-03-27T15:17:09Z</time>
      </trkpt>
      <trkpt lat="42.78455" lon="-0.22237">
        <ele>2178</ele>
        <time>2016-03-27T15:17:26Z</time>
      </trkpt>
      <trkpt lat="42.78443" lon="-0.22221">
        <ele>2178</ele>
        <time>2016-03-27T15:17:41Z</time>
      </trkpt>
      <trkpt lat="42.78429" lon="-0.22203">
        <ele>2177</ele>
        <time>2016-03-27T15:17:58Z</time>
      </trkpt>
      <trkpt lat="42.78414" lon="-0.22185">
        <ele>2177</ele>
        <time>2016-03-27T15:18:16Z</time>
      </trkpt>
      <trkpt lat="42.78397" lon="-0.22172">
        <ele>2178</ele>
        <time>2016-03-27T15:18:33Z</time>
      </trkpt>
      <trkpt lat="42.78389" lon="-0.22167">
        <ele>2178</ele>
        <time>2016-03-27T15:18:40Z</time>
      </trkpt>
      <trkpt lat="42.78385" lon="-0.22164">
        <ele>2178</ele>
        <time>2016-03-27T15:18:44Z</time>
      </trkpt>
      <trkpt lat="42.78367" lon="-0.22159">
        <ele>2178</ele>
        <time>2016-03-27T15:19:00Z</time>
      </trkpt>
      <trkpt lat="42.7835" lon="-0.22161">
        <ele>2178</ele>
        <time>2016-03-27T15:19:14Z</time>
      </trkpt>
      <trkpt lat="42.78342" lon="-0.22161">
        <ele>2178</ele>
        <time>2016-03-27T15:19:20Z</time>
      </trkpt>
      <trkpt lat="42.78322" lon="-0.22163">
        <ele>2178</ele>
        <time>2016-03-27T15:19:36Z</time>
      </trkpt>
      <trkpt lat="42.78315" lon="-0.22163">
        <ele>2178</ele>
        <time>2016-03-27T15:19:42Z</time>
      </trkpt>
      <trkpt lat="42.78303" lon="-0.22165">
        <ele>2179</ele>
        <time>2016-03-27T15:19:52Z</time>
      </trkpt>
      <trkpt lat="42.78292" lon="-0.22168">
        <ele>2179</ele>
        <time>2016-03-27T15:20:01Z</time>
      </trkpt>
      <trkpt lat="42.78284" lon="-0.22169">
        <ele>2179</ele>
        <time>2016-03-27T15:20:08Z</time>
      </trkpt>
      <trkpt lat="42.78267" lon="-0.22173">
        <ele>2180</ele>
        <time>2016-03-27T15:20:23Z</time>
      </trkpt>
      <trkpt lat="42.7825" lon="-0.22178">
        <ele>2182</ele>
        <time>2016-03-27T15:20:38Z</time>
      </trkpt>
      <trkpt lat="42.78233" lon="-0.22183">
        <ele>2182</ele>
        <time>2016-03-27T15:20:53Z</time>
      </trkpt>
      <trkpt lat="42.78216" lon="-0.22189">
        <ele>2182</ele>
        <time>2016-03-27T15:21:08Z</time>
      </trkpt>
      <trkpt lat="42.78199" lon="-0.22195">
        <ele>2182</ele>
        <time>2016-03-27T15:21:23Z</time>
      </trkpt>
      <trkpt lat="42.7819" lon="-0.22206">
        <ele>2182</ele>
        <time>2016-03-27T15:21:37Z</time>
      </trkpt>
      <trkpt lat="42.78185" lon="-0.22219">
        <ele>2182</ele>
        <time>2016-03-27T15:21:52Z</time>
      </trkpt>
      <trkpt lat="42.78179" lon="-0.22236">
        <ele>2183</ele>
        <time>2016-03-27T15:22:11Z</time>
      </trkpt>
      <trkpt lat="42.78174" lon="-0.2225">
        <ele>2183</ele>
        <time>2016-03-27T15:22:27Z</time>
      </trkpt>
      <trkpt lat="42.78167" lon="-0.22263">
        <ele>2183</ele>
        <time>2016-03-27T15:22:43Z</time>
      </trkpt>
      <trkpt lat="42.78156" lon="-0.22266">
        <ele>2184</ele>
        <time>2016-03-27T15:22:58Z</time>
      </trkpt>
      <trkpt lat="42.78143" lon="-0.22272">
        <ele>2185</ele>
        <time>2016-03-27T15:23:14Z</time>
      </trkpt>
      <trkpt lat="42.78139" lon="-0.22275">
        <ele>2185</ele>
        <time>2016-03-27T15:23:21Z</time>
      </trkpt>
      <trkpt lat="42.78131" lon="-0.22283">
        <ele>2186</ele>
        <time>2016-03-27T15:23:37Z</time>
      </trkpt>
      <trkpt lat="42.78124" lon="-0.22289">
        <ele>2186</ele>
        <time>2016-03-27T15:23:52Z</time>
      </trkpt>
      <trkpt lat="42.78119" lon="-0.2229">
        <ele>2186</ele>
        <time>2016-03-27T15:24:08Z</time>
      </trkpt>
      <trkpt lat="42.78117" lon="-0.22291">
        <ele>2186</ele>
        <time>2016-03-27T15:24:22Z</time>
      </trkpt>
      <trkpt lat="42.78118" lon="-0.22292">
        <ele>2186</ele>
        <time>2016-03-27T15:24:36Z</time>
      </trkpt>
      <trkpt lat="42.78121" lon="-0.22294">
        <ele>2186</ele>
        <time>2016-03-27T15:24:55Z</time>
      </trkpt>
      <trkpt lat="42.78119" lon="-0.22296">
        <ele>2186</ele>
        <time>2016-03-27T15:25:11Z</time>
      </trkpt>
      <trkpt lat="42.78115" lon="-0.22296">
        <ele>2186</ele>
        <time>2016-03-27T15:25:27Z</time>
      </trkpt>
      <trkpt lat="42.78106" lon="-0.22311">
        <ele>2187</ele>
        <time>2016-03-27T15:25:40Z</time>
      </trkpt>
      <trkpt lat="42.78094" lon="-0.22336">
        <ele>2187</ele>
        <time>2016-03-27T15:25:53Z</time>
      </trkpt>
      <trkpt lat="42.78088" lon="-0.22358">
        <ele>2186</ele>
        <time>2016-03-27T15:26:06Z</time>
      </trkpt>
      <trkpt lat="42.78079" lon="-0.22384">
        <ele>2186</ele>
        <time>2016-03-27T15:26:18Z</time>
      </trkpt>
      <trkpt lat="42.78074" lon="-0.22397">
        <ele>2186</ele>
        <time>2016-03-27T15:26:21Z</time>
      </trkpt>
      <trkpt lat="42.78072" lon="-0.22407">
        <ele>2186</ele>
        <time>2016-03-27T15:26:23Z</time>
      </trkpt>
      <trkpt lat="42.78068" lon="-0.22419">
        <ele>2185</ele>
        <time>2016-03-27T15:26:30Z</time>
      </trkpt>
      <trkpt lat="42.78067" lon="-0.22425">
        <ele>2185</ele>
        <time>2016-03-27T15:26:33Z</time>
      </trkpt>
      <trkpt lat="42.78068" lon="-0.22457">
        <ele>2185</ele>
        <time>2016-03-27T15:26:39Z</time>
      </trkpt>
      <trkpt lat="42.78068" lon="-0.22462">
        <ele>2185</ele>
        <time>2016-03-27T15:26:40Z</time>
      </trkpt>
      <trkpt lat="42.78068" lon="-0.22485">
        <ele>2185</ele>
        <time>2016-03-27T15:26:47Z</time>
      </trkpt>
      <trkpt lat="42.78064" lon="-0.22515">
        <ele>2184</ele>
        <time>2016-03-27T15:26:59Z</time>
      </trkpt>
      <trkpt lat="42.78062" lon="-0.22525">
        <ele>2183</ele>
        <time>2016-03-27T15:27:03Z</time>
      </trkpt>
      <trkpt lat="42.78059" lon="-0.22542">
        <ele>2182</ele>
        <time>2016-03-27T15:27:08Z</time>
      </trkpt>
      <trkpt lat="42.78055" lon="-0.22567">
        <ele>2181</ele>
        <time>2016-03-27T15:27:21Z</time>
      </trkpt>
      <trkpt lat="42.78047" lon="-0.2259">
        <ele>2179</ele>
        <time>2016-03-27T15:27:36Z</time>
      </trkpt>
      <trkpt lat="42.78044" lon="-0.22607">
        <ele>2179</ele>
        <time>2016-03-27T15:27:47Z</time>
      </trkpt>
      <trkpt lat="42.7804" lon="-0.22625">
        <ele>2178</ele>
        <time>2016-03-27T15:28:01Z</time>
      </trkpt>
      <trkpt lat="42.78035" lon="-0.22643">
        <ele>2178</ele>
        <time>2016-03-27T15:28:16Z</time>
      </trkpt>
      <trkpt lat="42.78035" lon="-0.2266">
        <ele>2178</ele>
        <time>2016-03-27T15:28:32Z</time>
      </trkpt>
      <trkpt lat="42.78035" lon="-0.22678">
        <ele>2179</ele>
        <time>2016-03-27T15:28:49Z</time>
      </trkpt>
      <trkpt lat="42.78032" lon="-0.22693">
        <ele>2179</ele>
        <time>2016-03-27T15:29:04Z</time>
      </trkpt>
      <trkpt lat="42.7803" lon="-0.22705">
        <ele>2179</ele>
        <time>2016-03-27T15:29:18Z</time>
      </trkpt>
      <trkpt lat="42.78027" lon="-0.22717">
        <ele>2179</ele>
        <time>2016-03-27T15:29:32Z</time>
      </trkpt>
      <trkpt lat="42.78026" lon="-0.22734">
        <ele>2180</ele>
        <time>2016-03-27T15:29:48Z</time>
      </trkpt>
      <trkpt lat="42.78023" lon="-0.22747">
        <ele>2180</ele>
        <time>2016-03-27T15:30:03Z</time>
      </trkpt>
      <trkpt lat="42.78019" lon="-0.22761">
        <ele>2180</ele>
        <time>2016-03-27T15:30:19Z</time>
      </trkpt>
      <trkpt lat="42.78016" lon="-0.22766">
        <ele>2179</ele>
        <time>2016-03-27T15:30:25Z</time>
      </trkpt>
      <trkpt lat="42.78013" lon="-0.22769">
        <ele>2179</ele>
        <time>2016-03-27T15:30:29Z</time>
      </trkpt>
      <trkpt lat="42.78008" lon="-0.2277">
        <ele>2178</ele>
        <time>2016-03-27T15:30:40Z</time>
      </trkpt>
      <trkpt lat="42.78006" lon="-0.22769">
        <ele>2177</ele>
        <time>2016-03-27T15:30:53Z</time>
      </trkpt>
      <trkpt lat="42.78003" lon="-0.22768">
        <ele>2177</ele>
        <time>2016-03-27T15:31:10Z</time>
      </trkpt>
      <trkpt lat="42.78003" lon="-0.2277">
        <ele>2177</ele>
        <time>2016-03-27T15:31:23Z</time>
      </trkpt>
      <trkpt lat="42.78002" lon="-0.22771">
        <ele>2177</ele>
        <time>2016-03-27T15:31:35Z</time>
      </trkpt>
      <trkpt lat="42.78005" lon="-0.22772">
        <ele>2177</ele>
        <time>2016-03-27T15:31:48Z</time>
      </trkpt>
      <trkpt lat="42.78005" lon="-0.22773">
        <ele>2177</ele>
        <time>2016-03-27T15:31:59Z</time>
      </trkpt>
      <trkpt lat="42.78005" lon="-0.22769">
        <ele>2177</ele>
        <time>2016-03-27T15:32:09Z</time>
      </trkpt>
      <trkpt lat="42.78009" lon="-0.22767">
        <ele>2178</ele>
        <time>2016-03-27T15:32:23Z</time>
      </trkpt>
    </trkseg>
  </trk>
</gpx>